<?xml version="1.0" encoding="UTF-8" standalone="no" ?>
<gpx xmlns="http://www.topografix.com/GPX/1/1" xmlns:xsi="http://www.w3.org/2001/XMLSchema-instance" xsi:schemaLocation="http://www.topografix.com/GPX/1/1 http://www.topografix.com/GPX/1/1/gpx.xsd" version="1.1" creator="VisuGPX - https://www.visugpx.com">
  <metadata>
    <name>2016-09-05 Plomb du Cantal</name>
    <desc><![CDATA[2016-09-05 Plomb du Cantal]]></desc>
  </metadata>
  <trk>
    <name><![CDATA[2016-09-05 11:37]]></name>
    <desc><![CDATA[Total: 11.5km]]></desc>
    <trkseg>
      <trkpt lat="45.05251" lon="2.79354">
        <ele>1390</ele>
        <time>2016-09-05T09:37:21.449Z</time>
      </trkpt>
      <trkpt lat="45.05259" lon="2.79352">
        <ele>1389</ele>
        <time>2016-09-05T09:39:21Z</time>
      </trkpt>
      <trkpt lat="45.0526" lon="2.79353">
        <ele>1389</ele>
        <time>2016-09-05T09:39:22Z</time>
      </trkpt>
      <trkpt lat="45.05268" lon="2.7935">
        <ele>1389</ele>
        <time>2016-09-05T09:39:30Z</time>
      </trkpt>
      <trkpt lat="45.05269" lon="2.79351">
        <ele>1389</ele>
        <time>2016-09-05T09:39:31Z</time>
      </trkpt>
      <trkpt lat="45.05277" lon="2.79349">
        <ele>1388</ele>
        <time>2016-09-05T09:39:39Z</time>
      </trkpt>
      <trkpt lat="45.05278" lon="2.79349">
        <ele>1388</ele>
        <time>2016-09-05T09:39:40Z</time>
      </trkpt>
      <trkpt lat="45.05286" lon="2.79347">
        <ele>1388</ele>
        <time>2016-09-05T09:39:47Z</time>
      </trkpt>
      <trkpt lat="45.05288" lon="2.79346">
        <ele>1388</ele>
        <time>2016-09-05T09:39:48Z</time>
      </trkpt>
      <trkpt lat="45.05296" lon="2.79344">
        <ele>1387</ele>
        <time>2016-09-05T09:39:57Z</time>
      </trkpt>
      <trkpt lat="45.05297" lon="2.79343">
        <ele>1387</ele>
        <time>2016-09-05T09:39:58Z</time>
      </trkpt>
      <trkpt lat="45.05305" lon="2.79344">
        <ele>1386</ele>
        <time>2016-09-05T09:40:31Z</time>
      </trkpt>
      <trkpt lat="45.05306" lon="2.79344">
        <ele>1386</ele>
        <time>2016-09-05T09:40:32Z</time>
      </trkpt>
      <trkpt lat="45.05315" lon="2.79347">
        <ele>1386</ele>
        <time>2016-09-05T09:40:41Z</time>
      </trkpt>
      <trkpt lat="45.05316" lon="2.79346">
        <ele>1386</ele>
        <time>2016-09-05T09:40:42Z</time>
      </trkpt>
      <trkpt lat="45.05324" lon="2.79346">
        <ele>1385</ele>
        <time>2016-09-05T09:41:59Z</time>
      </trkpt>
      <trkpt lat="45.05325" lon="2.79347">
        <ele>1385</ele>
        <time>2016-09-05T09:42:00Z</time>
      </trkpt>
      <trkpt lat="45.05318" lon="2.79339">
        <ele>1385</ele>
        <time>2016-09-05T09:42:13Z</time>
      </trkpt>
      <trkpt lat="45.05318" lon="2.79337">
        <ele>1385</ele>
        <time>2016-09-05T09:42:14Z</time>
      </trkpt>
      <trkpt lat="45.05317" lon="2.79325">
        <ele>1385</ele>
        <time>2016-09-05T09:42:23Z</time>
      </trkpt>
      <trkpt lat="45.05317" lon="2.79323">
        <ele>1385</ele>
        <time>2016-09-05T09:42:24Z</time>
      </trkpt>
      <trkpt lat="45.05317" lon="2.79312">
        <ele>1386</ele>
        <time>2016-09-05T09:42:31Z</time>
      </trkpt>
      <trkpt lat="45.05317" lon="2.7931">
        <ele>1386</ele>
        <time>2016-09-05T09:42:32Z</time>
      </trkpt>
      <trkpt lat="45.05311" lon="2.79302">
        <ele>1387</ele>
        <time>2016-09-05T09:43:10Z</time>
      </trkpt>
      <trkpt lat="45.0531" lon="2.79302">
        <ele>1387</ele>
        <time>2016-09-05T09:43:11Z</time>
      </trkpt>
      <trkpt lat="45.05311" lon="2.79289">
        <ele>1387</ele>
        <time>2016-09-05T09:43:44Z</time>
      </trkpt>
      <trkpt lat="45.05311" lon="2.79288">
        <ele>1387</ele>
        <time>2016-09-05T09:43:45Z</time>
      </trkpt>
      <trkpt lat="45.05306" lon="2.79279">
        <ele>1387</ele>
        <time>2016-09-05T09:43:52Z</time>
      </trkpt>
      <trkpt lat="45.05305" lon="2.79277">
        <ele>1387</ele>
        <time>2016-09-05T09:43:53Z</time>
      </trkpt>
      <trkpt lat="45.05303" lon="2.79266">
        <ele>1388</ele>
        <time>2016-09-05T09:44:00Z</time>
      </trkpt>
      <trkpt lat="45.05303" lon="2.79264">
        <ele>1388</ele>
        <time>2016-09-05T09:44:01Z</time>
      </trkpt>
      <trkpt lat="45.05304" lon="2.79252">
        <ele>1388</ele>
        <time>2016-09-05T09:44:10Z</time>
      </trkpt>
      <trkpt lat="45.05304" lon="2.79251">
        <ele>1388</ele>
        <time>2016-09-05T09:44:11Z</time>
      </trkpt>
      <trkpt lat="45.05302" lon="2.79239">
        <ele>1389</ele>
        <time>2016-09-05T09:44:19Z</time>
      </trkpt>
      <trkpt lat="45.05302" lon="2.79238">
        <ele>1389</ele>
        <time>2016-09-05T09:44:20Z</time>
      </trkpt>
      <trkpt lat="45.053" lon="2.79227">
        <ele>1390</ele>
        <time>2016-09-05T09:44:28Z</time>
      </trkpt>
      <trkpt lat="45.053" lon="2.79225">
        <ele>1390</ele>
        <time>2016-09-05T09:44:29Z</time>
      </trkpt>
      <trkpt lat="45.05299" lon="2.79213">
        <ele>1390</ele>
        <time>2016-09-05T09:44:37Z</time>
      </trkpt>
      <trkpt lat="45.053" lon="2.79211">
        <ele>1390</ele>
        <time>2016-09-05T09:44:38Z</time>
      </trkpt>
      <trkpt lat="45.05299" lon="2.79199">
        <ele>1390</ele>
        <time>2016-09-05T09:44:47Z</time>
      </trkpt>
      <trkpt lat="45.05298" lon="2.79198">
        <ele>1390</ele>
        <time>2016-09-05T09:44:48Z</time>
      </trkpt>
      <trkpt lat="45.05298" lon="2.79187">
        <ele>1390</ele>
        <time>2016-09-05T09:44:56Z</time>
      </trkpt>
      <trkpt lat="45.05298" lon="2.79185">
        <ele>1390</ele>
        <time>2016-09-05T09:44:57Z</time>
      </trkpt>
      <trkpt lat="45.05295" lon="2.79174">
        <ele>1390</ele>
        <time>2016-09-05T09:45:04Z</time>
      </trkpt>
      <trkpt lat="45.05295" lon="2.79172">
        <ele>1390</ele>
        <time>2016-09-05T09:45:05Z</time>
      </trkpt>
      <trkpt lat="45.05292" lon="2.7916">
        <ele>1391</ele>
        <time>2016-09-05T09:45:13Z</time>
      </trkpt>
      <trkpt lat="45.05292" lon="2.79159">
        <ele>1391</ele>
        <time>2016-09-05T09:45:14Z</time>
      </trkpt>
      <trkpt lat="45.05291" lon="2.79147">
        <ele>1391</ele>
        <time>2016-09-05T09:45:21Z</time>
      </trkpt>
      <trkpt lat="45.05291" lon="2.79146">
        <ele>1391</ele>
        <time>2016-09-05T09:45:22Z</time>
      </trkpt>
      <trkpt lat="45.05291" lon="2.79133">
        <ele>1391</ele>
        <time>2016-09-05T09:45:29Z</time>
      </trkpt>
      <trkpt lat="45.05291" lon="2.79132">
        <ele>1391</ele>
        <time>2016-09-05T09:45:30Z</time>
      </trkpt>
      <trkpt lat="45.05288" lon="2.7912">
        <ele>1391</ele>
        <time>2016-09-05T09:45:38Z</time>
      </trkpt>
      <trkpt lat="45.05288" lon="2.79118">
        <ele>1391</ele>
        <time>2016-09-05T09:45:39Z</time>
      </trkpt>
      <trkpt lat="45.05288" lon="2.79106">
        <ele>1391</ele>
        <time>2016-09-05T09:45:46Z</time>
      </trkpt>
      <trkpt lat="45.05288" lon="2.79105">
        <ele>1391</ele>
        <time>2016-09-05T09:45:47Z</time>
      </trkpt>
      <trkpt lat="45.05288" lon="2.79093">
        <ele>1391</ele>
        <time>2016-09-05T09:45:54Z</time>
      </trkpt>
      <trkpt lat="45.05288" lon="2.79091">
        <ele>1391</ele>
        <time>2016-09-05T09:45:55Z</time>
      </trkpt>
      <trkpt lat="45.0529" lon="2.7908">
        <ele>1392</ele>
        <time>2016-09-05T09:46:02Z</time>
      </trkpt>
      <trkpt lat="45.0529" lon="2.79078">
        <ele>1392</ele>
        <time>2016-09-05T09:46:03Z</time>
      </trkpt>
      <trkpt lat="45.05291" lon="2.79067">
        <ele>1393</ele>
        <time>2016-09-05T09:46:09Z</time>
      </trkpt>
      <trkpt lat="45.05291" lon="2.79066">
        <ele>1393</ele>
        <time>2016-09-05T09:46:10Z</time>
      </trkpt>
      <trkpt lat="45.05295" lon="2.79054">
        <ele>1393</ele>
        <time>2016-09-05T09:46:17Z</time>
      </trkpt>
      <trkpt lat="45.05295" lon="2.79053">
        <ele>1393</ele>
        <time>2016-09-05T09:46:18Z</time>
      </trkpt>
      <trkpt lat="45.05298" lon="2.79042">
        <ele>1393</ele>
        <time>2016-09-05T09:46:26Z</time>
      </trkpt>
      <trkpt lat="45.05298" lon="2.79041">
        <ele>1393</ele>
        <time>2016-09-05T09:46:27Z</time>
      </trkpt>
      <trkpt lat="45.05302" lon="2.7903">
        <ele>1393</ele>
        <time>2016-09-05T09:46:35Z</time>
      </trkpt>
      <trkpt lat="45.05302" lon="2.79029">
        <ele>1393</ele>
        <time>2016-09-05T09:46:36Z</time>
      </trkpt>
      <trkpt lat="45.05307" lon="2.79019">
        <ele>1393</ele>
        <time>2016-09-05T09:46:44Z</time>
      </trkpt>
      <trkpt lat="45.05307" lon="2.79017">
        <ele>1393</ele>
        <time>2016-09-05T09:46:45Z</time>
      </trkpt>
      <trkpt lat="45.05307" lon="2.79005">
        <ele>1393</ele>
        <time>2016-09-05T09:46:52Z</time>
      </trkpt>
      <trkpt lat="45.05307" lon="2.79004">
        <ele>1393</ele>
        <time>2016-09-05T09:46:53Z</time>
      </trkpt>
      <trkpt lat="45.05309" lon="2.78993">
        <ele>1395</ele>
        <time>2016-09-05T09:46:59Z</time>
      </trkpt>
      <trkpt lat="45.0531" lon="2.78991">
        <ele>1395</ele>
        <time>2016-09-05T09:47:00Z</time>
      </trkpt>
      <trkpt lat="45.05311" lon="2.78979">
        <ele>1395</ele>
        <time>2016-09-05T09:47:08Z</time>
      </trkpt>
      <trkpt lat="45.05312" lon="2.78978">
        <ele>1395</ele>
        <time>2016-09-05T09:47:09Z</time>
      </trkpt>
      <trkpt lat="45.05314" lon="2.78966">
        <ele>1396</ele>
        <time>2016-09-05T09:47:18Z</time>
      </trkpt>
      <trkpt lat="45.05315" lon="2.78964">
        <ele>1396</ele>
        <time>2016-09-05T09:47:19Z</time>
      </trkpt>
      <trkpt lat="45.05318" lon="2.78954">
        <ele>1396</ele>
        <time>2016-09-05T09:47:26Z</time>
      </trkpt>
      <trkpt lat="45.05319" lon="2.78952">
        <ele>1396</ele>
        <time>2016-09-05T09:47:27Z</time>
      </trkpt>
      <trkpt lat="45.05321" lon="2.78941">
        <ele>1396</ele>
        <time>2016-09-05T09:47:35Z</time>
      </trkpt>
      <trkpt lat="45.05321" lon="2.7894">
        <ele>1396</ele>
        <time>2016-09-05T09:47:36Z</time>
      </trkpt>
      <trkpt lat="45.05324" lon="2.78929">
        <ele>1396</ele>
        <time>2016-09-05T09:47:44Z</time>
      </trkpt>
      <trkpt lat="45.05325" lon="2.78928">
        <ele>1396</ele>
        <time>2016-09-05T09:47:45Z</time>
      </trkpt>
      <trkpt lat="45.05327" lon="2.78916">
        <ele>1397</ele>
        <time>2016-09-05T09:47:53Z</time>
      </trkpt>
      <trkpt lat="45.05327" lon="2.78914">
        <ele>1397</ele>
        <time>2016-09-05T09:47:54Z</time>
      </trkpt>
      <trkpt lat="45.05327" lon="2.78903">
        <ele>1398</ele>
        <time>2016-09-05T09:48:01Z</time>
      </trkpt>
      <trkpt lat="45.05327" lon="2.78901">
        <ele>1398</ele>
        <time>2016-09-05T09:48:02Z</time>
      </trkpt>
      <trkpt lat="45.05324" lon="2.7889">
        <ele>1399</ele>
        <time>2016-09-05T09:48:09Z</time>
      </trkpt>
      <trkpt lat="45.05324" lon="2.78888">
        <ele>1399</ele>
        <time>2016-09-05T09:48:10Z</time>
      </trkpt>
      <trkpt lat="45.05323" lon="2.78876">
        <ele>1399</ele>
        <time>2016-09-05T09:48:18Z</time>
      </trkpt>
      <trkpt lat="45.05322" lon="2.78875">
        <ele>1399</ele>
        <time>2016-09-05T09:48:19Z</time>
      </trkpt>
      <trkpt lat="45.05318" lon="2.78865">
        <ele>1400</ele>
        <time>2016-09-05T09:48:29Z</time>
      </trkpt>
      <trkpt lat="45.05318" lon="2.78864">
        <ele>1400</ele>
        <time>2016-09-05T09:48:30Z</time>
      </trkpt>
      <trkpt lat="45.05314" lon="2.78853">
        <ele>1400</ele>
        <time>2016-09-05T09:48:47Z</time>
      </trkpt>
      <trkpt lat="45.05314" lon="2.78851">
        <ele>1400</ele>
        <time>2016-09-05T09:48:48Z</time>
      </trkpt>
      <trkpt lat="45.05308" lon="2.78842">
        <ele>1400</ele>
        <time>2016-09-05T09:48:57Z</time>
      </trkpt>
      <trkpt lat="45.05307" lon="2.78841">
        <ele>1400</ele>
        <time>2016-09-05T09:48:58Z</time>
      </trkpt>
      <trkpt lat="45.05304" lon="2.78831">
        <ele>1403</ele>
        <time>2016-09-05T09:49:05Z</time>
      </trkpt>
      <trkpt lat="45.05303" lon="2.7883">
        <ele>1403</ele>
        <time>2016-09-05T09:49:06Z</time>
      </trkpt>
      <trkpt lat="45.05297" lon="2.78821">
        <ele>1403</ele>
        <time>2016-09-05T09:49:14Z</time>
      </trkpt>
      <trkpt lat="45.05297" lon="2.7882">
        <ele>1403</ele>
        <time>2016-09-05T09:49:15Z</time>
      </trkpt>
      <trkpt lat="45.05298" lon="2.78808">
        <ele>1404</ele>
        <time>2016-09-05T09:49:24Z</time>
      </trkpt>
      <trkpt lat="45.05297" lon="2.78806">
        <ele>1404</ele>
        <time>2016-09-05T09:49:25Z</time>
      </trkpt>
      <trkpt lat="45.05297" lon="2.78794">
        <ele>1404</ele>
        <time>2016-09-05T09:49:35Z</time>
      </trkpt>
      <trkpt lat="45.05296" lon="2.78793">
        <ele>1404</ele>
        <time>2016-09-05T09:49:36Z</time>
      </trkpt>
      <trkpt lat="45.05293" lon="2.78783">
        <ele>1404</ele>
        <time>2016-09-05T09:49:44Z</time>
      </trkpt>
      <trkpt lat="45.05292" lon="2.78781">
        <ele>1405</ele>
        <time>2016-09-05T09:49:45Z</time>
      </trkpt>
      <trkpt lat="45.05289" lon="2.7877">
        <ele>1405</ele>
        <time>2016-09-05T09:49:54Z</time>
      </trkpt>
      <trkpt lat="45.05288" lon="2.78769">
        <ele>1405</ele>
        <time>2016-09-05T09:49:55Z</time>
      </trkpt>
      <trkpt lat="45.05284" lon="2.78759">
        <ele>1405</ele>
        <time>2016-09-05T09:50:04Z</time>
      </trkpt>
      <trkpt lat="45.05283" lon="2.78758">
        <ele>1405</ele>
        <time>2016-09-05T09:50:05Z</time>
      </trkpt>
      <trkpt lat="45.0528" lon="2.78747">
        <ele>1407</ele>
        <time>2016-09-05T09:50:14Z</time>
      </trkpt>
      <trkpt lat="45.0528" lon="2.78746">
        <ele>1407</ele>
        <time>2016-09-05T09:50:15Z</time>
      </trkpt>
      <trkpt lat="45.05275" lon="2.78735">
        <ele>1408</ele>
        <time>2016-09-05T09:50:24Z</time>
      </trkpt>
      <trkpt lat="45.05275" lon="2.78734">
        <ele>1408</ele>
        <time>2016-09-05T09:50:25Z</time>
      </trkpt>
      <trkpt lat="45.05273" lon="2.78721">
        <ele>1408</ele>
        <time>2016-09-05T09:50:35Z</time>
      </trkpt>
      <trkpt lat="45.05273" lon="2.7872">
        <ele>1408</ele>
        <time>2016-09-05T09:50:36Z</time>
      </trkpt>
      <trkpt lat="45.05277" lon="2.78711">
        <ele>1408</ele>
        <time>2016-09-05T09:50:46Z</time>
      </trkpt>
      <trkpt lat="45.05278" lon="2.7871">
        <ele>1408</ele>
        <time>2016-09-05T09:50:47Z</time>
      </trkpt>
      <trkpt lat="45.05281" lon="2.78698">
        <ele>1408</ele>
        <time>2016-09-05T09:50:59Z</time>
      </trkpt>
      <trkpt lat="45.05282" lon="2.78697">
        <ele>1408</ele>
        <time>2016-09-05T09:51:00Z</time>
      </trkpt>
      <trkpt lat="45.0528" lon="2.78685">
        <ele>1408</ele>
        <time>2016-09-05T09:51:08Z</time>
      </trkpt>
      <trkpt lat="45.0528" lon="2.78684">
        <ele>1408</ele>
        <time>2016-09-05T09:51:09Z</time>
      </trkpt>
      <trkpt lat="45.05279" lon="2.78672">
        <ele>1408</ele>
        <time>2016-09-05T09:51:18Z</time>
      </trkpt>
      <trkpt lat="45.05278" lon="2.78671">
        <ele>1408</ele>
        <time>2016-09-05T09:51:19Z</time>
      </trkpt>
      <trkpt lat="45.05278" lon="2.78659">
        <ele>1410</ele>
        <time>2016-09-05T09:51:28Z</time>
      </trkpt>
      <trkpt lat="45.05278" lon="2.78657">
        <ele>1410</ele>
        <time>2016-09-05T09:51:29Z</time>
      </trkpt>
      <trkpt lat="45.05278" lon="2.78646">
        <ele>1410</ele>
        <time>2016-09-05T09:51:37Z</time>
      </trkpt>
      <trkpt lat="45.05278" lon="2.78644">
        <ele>1410</ele>
        <time>2016-09-05T09:51:38Z</time>
      </trkpt>
      <trkpt lat="45.05277" lon="2.78632">
        <ele>1411</ele>
        <time>2016-09-05T09:51:47Z</time>
      </trkpt>
      <trkpt lat="45.05277" lon="2.78631">
        <ele>1411</ele>
        <time>2016-09-05T09:51:48Z</time>
      </trkpt>
      <trkpt lat="45.05275" lon="2.7862">
        <ele>1411</ele>
        <time>2016-09-05T09:51:58Z</time>
      </trkpt>
      <trkpt lat="45.05274" lon="2.78619">
        <ele>1411</ele>
        <time>2016-09-05T09:51:59Z</time>
      </trkpt>
      <trkpt lat="45.05272" lon="2.78607">
        <ele>1412</ele>
        <time>2016-09-05T09:52:07Z</time>
      </trkpt>
      <trkpt lat="45.05272" lon="2.78606">
        <ele>1412</ele>
        <time>2016-09-05T09:52:08Z</time>
      </trkpt>
      <trkpt lat="45.05272" lon="2.78594">
        <ele>1412</ele>
        <time>2016-09-05T09:52:17Z</time>
      </trkpt>
      <trkpt lat="45.05272" lon="2.78593">
        <ele>1413</ele>
        <time>2016-09-05T09:52:18Z</time>
      </trkpt>
      <trkpt lat="45.0527" lon="2.7858">
        <ele>1415</ele>
        <time>2016-09-05T09:52:27Z</time>
      </trkpt>
      <trkpt lat="45.0527" lon="2.78579">
        <ele>1415</ele>
        <time>2016-09-05T09:52:28Z</time>
      </trkpt>
      <trkpt lat="45.05267" lon="2.78568">
        <ele>1415</ele>
        <time>2016-09-05T09:52:37Z</time>
      </trkpt>
      <trkpt lat="45.05267" lon="2.78567">
        <ele>1415</ele>
        <time>2016-09-05T09:52:38Z</time>
      </trkpt>
      <trkpt lat="45.05264" lon="2.78555">
        <ele>1416</ele>
        <time>2016-09-05T09:52:48Z</time>
      </trkpt>
      <trkpt lat="45.05264" lon="2.78554">
        <ele>1416</ele>
        <time>2016-09-05T09:52:49Z</time>
      </trkpt>
      <trkpt lat="45.05263" lon="2.78542">
        <ele>1416</ele>
        <time>2016-09-05T09:52:58Z</time>
      </trkpt>
      <trkpt lat="45.05263" lon="2.7854">
        <ele>1416</ele>
        <time>2016-09-05T09:52:59Z</time>
      </trkpt>
      <trkpt lat="45.05262" lon="2.78529">
        <ele>1417</ele>
        <time>2016-09-05T09:53:06Z</time>
      </trkpt>
      <trkpt lat="45.05262" lon="2.78527">
        <ele>1417</ele>
        <time>2016-09-05T09:53:07Z</time>
      </trkpt>
      <trkpt lat="45.05262" lon="2.78515">
        <ele>1418</ele>
        <time>2016-09-05T09:53:16Z</time>
      </trkpt>
      <trkpt lat="45.05262" lon="2.78514">
        <ele>1418</ele>
        <time>2016-09-05T09:53:17Z</time>
      </trkpt>
      <trkpt lat="45.05261" lon="2.78502">
        <ele>1419</ele>
        <time>2016-09-05T09:53:25Z</time>
      </trkpt>
      <trkpt lat="45.05261" lon="2.785">
        <ele>1419</ele>
        <time>2016-09-05T09:53:26Z</time>
      </trkpt>
      <trkpt lat="45.05259" lon="2.78489">
        <ele>1421</ele>
        <time>2016-09-05T09:53:34Z</time>
      </trkpt>
      <trkpt lat="45.05258" lon="2.78488">
        <ele>1421</ele>
        <time>2016-09-05T09:53:35Z</time>
      </trkpt>
      <trkpt lat="45.05259" lon="2.78475">
        <ele>1421</ele>
        <time>2016-09-05T09:53:44Z</time>
      </trkpt>
      <trkpt lat="45.05259" lon="2.78474">
        <ele>1421</ele>
        <time>2016-09-05T09:53:45Z</time>
      </trkpt>
      <trkpt lat="45.05259" lon="2.78462">
        <ele>1422</ele>
        <time>2016-09-05T09:53:53Z</time>
      </trkpt>
      <trkpt lat="45.05259" lon="2.7846">
        <ele>1422</ele>
        <time>2016-09-05T09:53:54Z</time>
      </trkpt>
      <trkpt lat="45.05256" lon="2.78449">
        <ele>1423</ele>
        <time>2016-09-05T09:54:03Z</time>
      </trkpt>
      <trkpt lat="45.05256" lon="2.78447">
        <ele>1423</ele>
        <time>2016-09-05T09:54:04Z</time>
      </trkpt>
      <trkpt lat="45.05255" lon="2.78435">
        <ele>1425</ele>
        <time>2016-09-05T09:54:15Z</time>
      </trkpt>
      <trkpt lat="45.05255" lon="2.78434">
        <ele>1425</ele>
        <time>2016-09-05T09:54:16Z</time>
      </trkpt>
      <trkpt lat="45.05256" lon="2.78422">
        <ele>1427</ele>
        <time>2016-09-05T09:54:25Z</time>
      </trkpt>
      <trkpt lat="45.05256" lon="2.78421">
        <ele>1428</ele>
        <time>2016-09-05T09:54:26Z</time>
      </trkpt>
      <trkpt lat="45.05257" lon="2.78409">
        <ele>1429</ele>
        <time>2016-09-05T09:54:35Z</time>
      </trkpt>
      <trkpt lat="45.05257" lon="2.78407">
        <ele>1429</ele>
        <time>2016-09-05T09:54:36Z</time>
      </trkpt>
      <trkpt lat="45.05259" lon="2.78395">
        <ele>1429</ele>
        <time>2016-09-05T09:54:47Z</time>
      </trkpt>
      <trkpt lat="45.05259" lon="2.78394">
        <ele>1429</ele>
        <time>2016-09-05T09:54:48Z</time>
      </trkpt>
      <trkpt lat="45.05259" lon="2.78381">
        <ele>1430</ele>
        <time>2016-09-05T09:55:01Z</time>
      </trkpt>
      <trkpt lat="45.05259" lon="2.7838">
        <ele>1430</ele>
        <time>2016-09-05T09:55:02Z</time>
      </trkpt>
      <trkpt lat="45.0526" lon="2.78368">
        <ele>1431</ele>
        <time>2016-09-05T09:55:17Z</time>
      </trkpt>
      <trkpt lat="45.0526" lon="2.78367">
        <ele>1431</ele>
        <time>2016-09-05T09:55:18Z</time>
      </trkpt>
      <trkpt lat="45.05261" lon="2.78356">
        <ele>1433</ele>
        <time>2016-09-05T09:55:28Z</time>
      </trkpt>
      <trkpt lat="45.05261" lon="2.78355">
        <ele>1433</ele>
        <time>2016-09-05T09:55:29Z</time>
      </trkpt>
      <trkpt lat="45.05263" lon="2.78342">
        <ele>1435</ele>
        <time>2016-09-05T09:55:42Z</time>
      </trkpt>
      <trkpt lat="45.05262" lon="2.78341">
        <ele>1436</ele>
        <time>2016-09-05T09:55:43Z</time>
      </trkpt>
      <trkpt lat="45.05262" lon="2.7833">
        <ele>1440</ele>
        <time>2016-09-05T09:55:54Z</time>
      </trkpt>
      <trkpt lat="45.05263" lon="2.78329">
        <ele>1440</ele>
        <time>2016-09-05T09:55:55Z</time>
      </trkpt>
      <trkpt lat="45.05262" lon="2.78316">
        <ele>1440</ele>
        <time>2016-09-05T09:56:10Z</time>
      </trkpt>
      <trkpt lat="45.05262" lon="2.78315">
        <ele>1440</ele>
        <time>2016-09-05T09:56:11Z</time>
      </trkpt>
      <trkpt lat="45.05261" lon="2.78304">
        <ele>1440</ele>
        <time>2016-09-05T09:56:23Z</time>
      </trkpt>
      <trkpt lat="45.05261" lon="2.78303">
        <ele>1441</ele>
        <time>2016-09-05T09:56:24Z</time>
      </trkpt>
      <trkpt lat="45.05261" lon="2.7829">
        <ele>1442</ele>
        <time>2016-09-05T09:56:36Z</time>
      </trkpt>
      <trkpt lat="45.05261" lon="2.7829">
        <ele>1442</ele>
        <time>2016-09-05T09:56:37Z</time>
      </trkpt>
      <trkpt lat="45.05257" lon="2.78279">
        <ele>1444</ele>
        <time>2016-09-05T09:56:51Z</time>
      </trkpt>
      <trkpt lat="45.05257" lon="2.78278">
        <ele>1444</ele>
        <time>2016-09-05T09:56:52Z</time>
      </trkpt>
      <trkpt lat="45.0525" lon="2.7827">
        <ele>1446</ele>
        <time>2016-09-05T09:57:13Z</time>
      </trkpt>
      <trkpt lat="45.0525" lon="2.78269">
        <ele>1447</ele>
        <time>2016-09-05T09:57:14Z</time>
      </trkpt>
      <trkpt lat="45.05253" lon="2.78258">
        <ele>1451</ele>
        <time>2016-09-05T09:57:27Z</time>
      </trkpt>
      <trkpt lat="45.05253" lon="2.78257">
        <ele>1452</ele>
        <time>2016-09-05T09:57:28Z</time>
      </trkpt>
      <trkpt lat="45.05257" lon="2.78246">
        <ele>1455</ele>
        <time>2016-09-05T09:57:53Z</time>
      </trkpt>
      <trkpt lat="45.05258" lon="2.78245">
        <ele>1455</ele>
        <time>2016-09-05T09:57:54Z</time>
      </trkpt>
      <trkpt lat="45.05261" lon="2.78235">
        <ele>1455</ele>
        <time>2016-09-05T09:58:03Z</time>
      </trkpt>
      <trkpt lat="45.05261" lon="2.78234">
        <ele>1455</ele>
        <time>2016-09-05T09:58:04Z</time>
      </trkpt>
      <trkpt lat="45.05266" lon="2.78223">
        <ele>1456</ele>
        <time>2016-09-05T09:58:12Z</time>
      </trkpt>
      <trkpt lat="45.05266" lon="2.78222">
        <ele>1456</ele>
        <time>2016-09-05T09:58:13Z</time>
      </trkpt>
      <trkpt lat="45.05269" lon="2.78211">
        <ele>1457</ele>
        <time>2016-09-05T09:58:23Z</time>
      </trkpt>
      <trkpt lat="45.05269" lon="2.7821">
        <ele>1457</ele>
        <time>2016-09-05T09:58:24Z</time>
      </trkpt>
      <trkpt lat="45.05269" lon="2.78198">
        <ele>1459</ele>
        <time>2016-09-05T09:58:36Z</time>
      </trkpt>
      <trkpt lat="45.0527" lon="2.78197">
        <ele>1459</ele>
        <time>2016-09-05T09:58:37Z</time>
      </trkpt>
      <trkpt lat="45.05268" lon="2.78185">
        <ele>1462</ele>
        <time>2016-09-05T09:58:52Z</time>
      </trkpt>
      <trkpt lat="45.05267" lon="2.78184">
        <ele>1463</ele>
        <time>2016-09-05T09:58:53Z</time>
      </trkpt>
      <trkpt lat="45.05273" lon="2.78174">
        <ele>1463</ele>
        <time>2016-09-05T09:59:05Z</time>
      </trkpt>
      <trkpt lat="45.05273" lon="2.78173">
        <ele>1463</ele>
        <time>2016-09-05T09:59:06Z</time>
      </trkpt>
      <trkpt lat="45.05276" lon="2.78162">
        <ele>1474</ele>
        <time>2016-09-05T09:59:19Z</time>
      </trkpt>
      <trkpt lat="45.05276" lon="2.78161">
        <ele>1474</ele>
        <time>2016-09-05T09:59:20Z</time>
      </trkpt>
      <trkpt lat="45.05276" lon="2.78149">
        <ele>1474</ele>
        <time>2016-09-05T09:59:33Z</time>
      </trkpt>
      <trkpt lat="45.05276" lon="2.78148">
        <ele>1474</ele>
        <time>2016-09-05T09:59:34Z</time>
      </trkpt>
      <trkpt lat="45.0528" lon="2.78136">
        <ele>1475</ele>
        <time>2016-09-05T09:59:44Z</time>
      </trkpt>
      <trkpt lat="45.0528" lon="2.78135">
        <ele>1475</ele>
        <time>2016-09-05T09:59:45Z</time>
      </trkpt>
      <trkpt lat="45.05282" lon="2.78124">
        <ele>1476</ele>
        <time>2016-09-05T09:59:56Z</time>
      </trkpt>
      <trkpt lat="45.05282" lon="2.78123">
        <ele>1476</ele>
        <time>2016-09-05T09:59:57Z</time>
      </trkpt>
      <trkpt lat="45.05281" lon="2.7811">
        <ele>1478</ele>
        <time>2016-09-05T10:00:16Z</time>
      </trkpt>
      <trkpt lat="45.0528" lon="2.7811">
        <ele>1479</ele>
        <time>2016-09-05T10:00:17Z</time>
      </trkpt>
      <trkpt lat="45.05279" lon="2.78098">
        <ele>1481</ele>
        <time>2016-09-05T10:00:34Z</time>
      </trkpt>
      <trkpt lat="45.0528" lon="2.78097">
        <ele>1481</ele>
        <time>2016-09-05T10:00:35Z</time>
      </trkpt>
      <trkpt lat="45.05286" lon="2.78087">
        <ele>1480</ele>
        <time>2016-09-05T10:00:49Z</time>
      </trkpt>
      <trkpt lat="45.05286" lon="2.78087">
        <ele>1480</ele>
        <time>2016-09-05T10:00:50Z</time>
      </trkpt>
      <trkpt lat="45.05284" lon="2.78074">
        <ele>1491</ele>
        <time>2016-09-05T10:01:07Z</time>
      </trkpt>
      <trkpt lat="45.05283" lon="2.78074">
        <ele>1491</ele>
        <time>2016-09-05T10:01:08Z</time>
      </trkpt>
      <trkpt lat="45.05286" lon="2.78062">
        <ele>1491</ele>
        <time>2016-09-05T10:01:23Z</time>
      </trkpt>
      <trkpt lat="45.05286" lon="2.78061">
        <ele>1491</ele>
        <time>2016-09-05T10:01:24Z</time>
      </trkpt>
      <trkpt lat="45.05288" lon="2.78049">
        <ele>1491</ele>
        <time>2016-09-05T10:01:36Z</time>
      </trkpt>
      <trkpt lat="45.05288" lon="2.78048">
        <ele>1491</ele>
        <time>2016-09-05T10:01:37Z</time>
      </trkpt>
      <trkpt lat="45.05288" lon="2.78036">
        <ele>1492</ele>
        <time>2016-09-05T10:01:53Z</time>
      </trkpt>
      <trkpt lat="45.05288" lon="2.78035">
        <ele>1492</ele>
        <time>2016-09-05T10:01:54Z</time>
      </trkpt>
      <trkpt lat="45.05288" lon="2.78022">
        <ele>1493</ele>
        <time>2016-09-05T10:02:12Z</time>
      </trkpt>
      <trkpt lat="45.05288" lon="2.78021">
        <ele>1493</ele>
        <time>2016-09-05T10:02:13Z</time>
      </trkpt>
      <trkpt lat="45.05293" lon="2.78012">
        <ele>1493</ele>
        <time>2016-09-05T10:05:38Z</time>
      </trkpt>
      <trkpt lat="45.05293" lon="2.7801">
        <ele>1493</ele>
        <time>2016-09-05T10:05:39Z</time>
      </trkpt>
      <trkpt lat="45.05295" lon="2.77999">
        <ele>1498</ele>
        <time>2016-09-05T10:05:49Z</time>
      </trkpt>
      <trkpt lat="45.05296" lon="2.77998">
        <ele>1498</ele>
        <time>2016-09-05T10:05:50Z</time>
      </trkpt>
      <trkpt lat="45.05298" lon="2.77986">
        <ele>1497</ele>
        <time>2016-09-05T10:06:03Z</time>
      </trkpt>
      <trkpt lat="45.05299" lon="2.77985">
        <ele>1497</ele>
        <time>2016-09-05T10:06:04Z</time>
      </trkpt>
      <trkpt lat="45.05303" lon="2.77974">
        <ele>1497</ele>
        <time>2016-09-05T10:06:15Z</time>
      </trkpt>
      <trkpt lat="45.05303" lon="2.77973">
        <ele>1497</ele>
        <time>2016-09-05T10:06:16Z</time>
      </trkpt>
      <trkpt lat="45.05304" lon="2.77961">
        <ele>1498</ele>
        <time>2016-09-05T10:06:26Z</time>
      </trkpt>
      <trkpt lat="45.05303" lon="2.7796">
        <ele>1498</ele>
        <time>2016-09-05T10:06:27Z</time>
      </trkpt>
      <trkpt lat="45.05303" lon="2.77948">
        <ele>1498</ele>
        <time>2016-09-05T10:06:38Z</time>
      </trkpt>
      <trkpt lat="45.05303" lon="2.77947">
        <ele>1498</ele>
        <time>2016-09-05T10:06:39Z</time>
      </trkpt>
      <trkpt lat="45.05304" lon="2.77935">
        <ele>1498</ele>
        <time>2016-09-05T10:06:50Z</time>
      </trkpt>
      <trkpt lat="45.05304" lon="2.77934">
        <ele>1498</ele>
        <time>2016-09-05T10:06:51Z</time>
      </trkpt>
      <trkpt lat="45.05304" lon="2.77921">
        <ele>1498</ele>
        <time>2016-09-05T10:07:02Z</time>
      </trkpt>
      <trkpt lat="45.05304" lon="2.7792">
        <ele>1498</ele>
        <time>2016-09-05T10:07:03Z</time>
      </trkpt>
      <trkpt lat="45.05304" lon="2.77908">
        <ele>1503</ele>
        <time>2016-09-05T10:07:13Z</time>
      </trkpt>
      <trkpt lat="45.05304" lon="2.77907">
        <ele>1503</ele>
        <time>2016-09-05T10:07:14Z</time>
      </trkpt>
      <trkpt lat="45.05304" lon="2.77895">
        <ele>1504</ele>
        <time>2016-09-05T10:07:24Z</time>
      </trkpt>
      <trkpt lat="45.05304" lon="2.77894">
        <ele>1504</ele>
        <time>2016-09-05T10:07:25Z</time>
      </trkpt>
      <trkpt lat="45.05304" lon="2.77881">
        <ele>1506</ele>
        <time>2016-09-05T10:07:36Z</time>
      </trkpt>
      <trkpt lat="45.05304" lon="2.7788">
        <ele>1506</ele>
        <time>2016-09-05T10:07:37Z</time>
      </trkpt>
      <trkpt lat="45.05305" lon="2.77868">
        <ele>1506</ele>
        <time>2016-09-05T10:07:48Z</time>
      </trkpt>
      <trkpt lat="45.05305" lon="2.77867">
        <ele>1507</ele>
        <time>2016-09-05T10:07:49Z</time>
      </trkpt>
      <trkpt lat="45.05307" lon="2.77855">
        <ele>1507</ele>
        <time>2016-09-05T10:07:58Z</time>
      </trkpt>
      <trkpt lat="45.05307" lon="2.77854">
        <ele>1507</ele>
        <time>2016-09-05T10:07:59Z</time>
      </trkpt>
      <trkpt lat="45.05307" lon="2.77842">
        <ele>1507</ele>
        <time>2016-09-05T10:08:07Z</time>
      </trkpt>
      <trkpt lat="45.05307" lon="2.77841">
        <ele>1507</ele>
        <time>2016-09-05T10:08:08Z</time>
      </trkpt>
      <trkpt lat="45.05307" lon="2.77829">
        <ele>1516</ele>
        <time>2016-09-05T10:08:20Z</time>
      </trkpt>
      <trkpt lat="45.05307" lon="2.77828">
        <ele>1516</ele>
        <time>2016-09-05T10:08:21Z</time>
      </trkpt>
      <trkpt lat="45.05307" lon="2.77816">
        <ele>1518</ele>
        <time>2016-09-05T10:08:31Z</time>
      </trkpt>
      <trkpt lat="45.05307" lon="2.77814">
        <ele>1518</ele>
        <time>2016-09-05T10:08:32Z</time>
      </trkpt>
      <trkpt lat="45.0531" lon="2.77803">
        <ele>1519</ele>
        <time>2016-09-05T10:08:59Z</time>
      </trkpt>
      <trkpt lat="45.0531" lon="2.77802">
        <ele>1519</ele>
        <time>2016-09-05T10:09:00Z</time>
      </trkpt>
      <trkpt lat="45.05311" lon="2.7779">
        <ele>1521</ele>
        <time>2016-09-05T10:10:05Z</time>
      </trkpt>
      <trkpt lat="45.05312" lon="2.77789">
        <ele>1521</ele>
        <time>2016-09-05T10:10:06Z</time>
      </trkpt>
      <trkpt lat="45.05317" lon="2.77779">
        <ele>1522</ele>
        <time>2016-09-05T10:10:15Z</time>
      </trkpt>
      <trkpt lat="45.05317" lon="2.77777">
        <ele>1522</ele>
        <time>2016-09-05T10:10:16Z</time>
      </trkpt>
      <trkpt lat="45.05318" lon="2.77765">
        <ele>1522</ele>
        <time>2016-09-05T10:10:33Z</time>
      </trkpt>
      <trkpt lat="45.05319" lon="2.77764">
        <ele>1522</ele>
        <time>2016-09-05T10:10:34Z</time>
      </trkpt>
      <trkpt lat="45.0532" lon="2.77752">
        <ele>1522</ele>
        <time>2016-09-05T10:10:53Z</time>
      </trkpt>
      <trkpt lat="45.05321" lon="2.77752">
        <ele>1521</ele>
        <time>2016-09-05T10:10:54Z</time>
      </trkpt>
      <trkpt lat="45.05325" lon="2.77741">
        <ele>1529</ele>
        <time>2016-09-05T10:11:06Z</time>
      </trkpt>
      <trkpt lat="45.05326" lon="2.7774">
        <ele>1529</ele>
        <time>2016-09-05T10:11:07Z</time>
      </trkpt>
      <trkpt lat="45.05331" lon="2.7773">
        <ele>1532</ele>
        <time>2016-09-05T10:11:17Z</time>
      </trkpt>
      <trkpt lat="45.05331" lon="2.77729">
        <ele>1533</ele>
        <time>2016-09-05T10:11:18Z</time>
      </trkpt>
      <trkpt lat="45.05337" lon="2.7772">
        <ele>1520</ele>
        <time>2016-09-05T10:11:29Z</time>
      </trkpt>
      <trkpt lat="45.05338" lon="2.77719">
        <ele>1520</ele>
        <time>2016-09-05T10:11:30Z</time>
      </trkpt>
      <trkpt lat="45.05343" lon="2.7771">
        <ele>1521</ele>
        <time>2016-09-05T10:11:41Z</time>
      </trkpt>
      <trkpt lat="45.05343" lon="2.77709">
        <ele>1521</ele>
        <time>2016-09-05T10:11:42Z</time>
      </trkpt>
      <trkpt lat="45.05348" lon="2.77699">
        <ele>1523</ele>
        <time>2016-09-05T10:11:55Z</time>
      </trkpt>
      <trkpt lat="45.05349" lon="2.77698">
        <ele>1523</ele>
        <time>2016-09-05T10:11:56Z</time>
      </trkpt>
      <trkpt lat="45.05355" lon="2.77689">
        <ele>1523</ele>
        <time>2016-09-05T10:12:08Z</time>
      </trkpt>
      <trkpt lat="45.05355" lon="2.77688">
        <ele>1523</ele>
        <time>2016-09-05T10:12:09Z</time>
      </trkpt>
      <trkpt lat="45.05358" lon="2.77677">
        <ele>1525</ele>
        <time>2016-09-05T10:12:24Z</time>
      </trkpt>
      <trkpt lat="45.05359" lon="2.77676">
        <ele>1525</ele>
        <time>2016-09-05T10:12:25Z</time>
      </trkpt>
      <trkpt lat="45.05363" lon="2.77666">
        <ele>1536</ele>
        <time>2016-09-05T10:12:37Z</time>
      </trkpt>
      <trkpt lat="45.05363" lon="2.77665">
        <ele>1536</ele>
        <time>2016-09-05T10:12:38Z</time>
      </trkpt>
      <trkpt lat="45.05365" lon="2.77653">
        <ele>1537</ele>
        <time>2016-09-05T10:12:52Z</time>
      </trkpt>
      <trkpt lat="45.05366" lon="2.77652">
        <ele>1537</ele>
        <time>2016-09-05T10:12:53Z</time>
      </trkpt>
      <trkpt lat="45.05372" lon="2.77643">
        <ele>1536</ele>
        <time>2016-09-05T10:13:09Z</time>
      </trkpt>
      <trkpt lat="45.05373" lon="2.77643">
        <ele>1536</ele>
        <time>2016-09-05T10:13:10Z</time>
      </trkpt>
      <trkpt lat="45.05378" lon="2.77633">
        <ele>1537</ele>
        <time>2016-09-05T10:13:22Z</time>
      </trkpt>
      <trkpt lat="45.05379" lon="2.77633">
        <ele>1537</ele>
        <time>2016-09-05T10:13:23Z</time>
      </trkpt>
      <trkpt lat="45.05383" lon="2.77622">
        <ele>1538</ele>
        <time>2016-09-05T10:13:35Z</time>
      </trkpt>
      <trkpt lat="45.05383" lon="2.77621">
        <ele>1538</ele>
        <time>2016-09-05T10:13:36Z</time>
      </trkpt>
      <trkpt lat="45.05384" lon="2.77609">
        <ele>1539</ele>
        <time>2016-09-05T10:13:48Z</time>
      </trkpt>
      <trkpt lat="45.05384" lon="2.77608">
        <ele>1539</ele>
        <time>2016-09-05T10:13:49Z</time>
      </trkpt>
      <trkpt lat="45.05387" lon="2.77597">
        <ele>1540</ele>
        <time>2016-09-05T10:14:03Z</time>
      </trkpt>
      <trkpt lat="45.05387" lon="2.77596">
        <ele>1540</ele>
        <time>2016-09-05T10:14:04Z</time>
      </trkpt>
      <trkpt lat="45.05392" lon="2.77587">
        <ele>1540</ele>
        <time>2016-09-05T10:14:21Z</time>
      </trkpt>
      <trkpt lat="45.05393" lon="2.77586">
        <ele>1539</ele>
        <time>2016-09-05T10:14:22Z</time>
      </trkpt>
      <trkpt lat="45.05399" lon="2.77578">
        <ele>1550</ele>
        <time>2016-09-05T10:14:36Z</time>
      </trkpt>
      <trkpt lat="45.054" lon="2.77577">
        <ele>1550</ele>
        <time>2016-09-05T10:14:37Z</time>
      </trkpt>
      <trkpt lat="45.05407" lon="2.7757">
        <ele>1549</ele>
        <time>2016-09-05T10:14:50Z</time>
      </trkpt>
      <trkpt lat="45.05407" lon="2.7757">
        <ele>1549</ele>
        <time>2016-09-05T10:14:51Z</time>
      </trkpt>
      <trkpt lat="45.05414" lon="2.77562">
        <ele>1552</ele>
        <time>2016-09-05T10:15:04Z</time>
      </trkpt>
      <trkpt lat="45.05414" lon="2.77561">
        <ele>1552</ele>
        <time>2016-09-05T10:15:05Z</time>
      </trkpt>
      <trkpt lat="45.0542" lon="2.77552">
        <ele>1547</ele>
        <time>2016-09-05T10:15:18Z</time>
      </trkpt>
      <trkpt lat="45.0542" lon="2.77551">
        <ele>1548</ele>
        <time>2016-09-05T10:15:19Z</time>
      </trkpt>
      <trkpt lat="45.05427" lon="2.77543">
        <ele>1549</ele>
        <time>2016-09-05T10:15:33Z</time>
      </trkpt>
      <trkpt lat="45.05427" lon="2.77543">
        <ele>1550</ele>
        <time>2016-09-05T10:15:34Z</time>
      </trkpt>
      <trkpt lat="45.05434" lon="2.77534">
        <ele>1551</ele>
        <time>2016-09-05T10:15:51Z</time>
      </trkpt>
      <trkpt lat="45.05434" lon="2.77534">
        <ele>1551</ele>
        <time>2016-09-05T10:15:52Z</time>
      </trkpt>
      <trkpt lat="45.0544" lon="2.77525">
        <ele>1553</ele>
        <time>2016-09-05T10:16:12Z</time>
      </trkpt>
      <trkpt lat="45.05441" lon="2.77525">
        <ele>1553</ele>
        <time>2016-09-05T10:16:13Z</time>
      </trkpt>
      <trkpt lat="45.05446" lon="2.77514">
        <ele>1554</ele>
        <time>2016-09-05T10:16:31Z</time>
      </trkpt>
      <trkpt lat="45.05446" lon="2.77514">
        <ele>1554</ele>
        <time>2016-09-05T10:16:32Z</time>
      </trkpt>
      <trkpt lat="45.05452" lon="2.77504">
        <ele>1554</ele>
        <time>2016-09-05T10:16:46Z</time>
      </trkpt>
      <trkpt lat="45.05452" lon="2.77504">
        <ele>1554</ele>
        <time>2016-09-05T10:16:47Z</time>
      </trkpt>
      <trkpt lat="45.05459" lon="2.77496">
        <ele>1569</ele>
        <time>2016-09-05T10:17:07Z</time>
      </trkpt>
      <trkpt lat="45.05459" lon="2.77495">
        <ele>1570</ele>
        <time>2016-09-05T10:17:08Z</time>
      </trkpt>
      <trkpt lat="45.05465" lon="2.77486">
        <ele>1570</ele>
        <time>2016-09-05T10:17:27Z</time>
      </trkpt>
      <trkpt lat="45.05466" lon="2.77486">
        <ele>1570</ele>
        <time>2016-09-05T10:17:28Z</time>
      </trkpt>
      <trkpt lat="45.05471" lon="2.77476">
        <ele>1570</ele>
        <time>2016-09-05T10:17:43Z</time>
      </trkpt>
      <trkpt lat="45.05471" lon="2.77475">
        <ele>1570</ele>
        <time>2016-09-05T10:17:44Z</time>
      </trkpt>
      <trkpt lat="45.05477" lon="2.77465">
        <ele>1571</ele>
        <time>2016-09-05T10:17:55Z</time>
      </trkpt>
      <trkpt lat="45.05477" lon="2.77464">
        <ele>1571</ele>
        <time>2016-09-05T10:17:56Z</time>
      </trkpt>
      <trkpt lat="45.05479" lon="2.77452">
        <ele>1573</ele>
        <time>2016-09-05T10:18:11Z</time>
      </trkpt>
      <trkpt lat="45.0548" lon="2.77452">
        <ele>1573</ele>
        <time>2016-09-05T10:18:12Z</time>
      </trkpt>
      <trkpt lat="45.05473" lon="2.77443">
        <ele>1574</ele>
        <time>2016-09-05T10:24:58Z</time>
      </trkpt>
      <trkpt lat="45.05473" lon="2.77442">
        <ele>1574</ele>
        <time>2016-09-05T10:24:59Z</time>
      </trkpt>
      <trkpt lat="45.05469" lon="2.77431">
        <ele>1576</ele>
        <time>2016-09-05T10:25:17Z</time>
      </trkpt>
      <trkpt lat="45.05469" lon="2.77431">
        <ele>1576</ele>
        <time>2016-09-05T10:25:18Z</time>
      </trkpt>
      <trkpt lat="45.05464" lon="2.7742">
        <ele>1577</ele>
        <time>2016-09-05T10:25:32Z</time>
      </trkpt>
      <trkpt lat="45.05464" lon="2.7742">
        <ele>1577</ele>
        <time>2016-09-05T10:25:33Z</time>
      </trkpt>
      <trkpt lat="45.05464" lon="2.77408">
        <ele>1590</ele>
        <time>2016-09-05T10:26:04Z</time>
      </trkpt>
      <trkpt lat="45.05464" lon="2.77407">
        <ele>1590</ele>
        <time>2016-09-05T10:26:05Z</time>
      </trkpt>
      <trkpt lat="45.05465" lon="2.77395">
        <ele>1591</ele>
        <time>2016-09-05T10:26:27Z</time>
      </trkpt>
      <trkpt lat="45.05465" lon="2.77394">
        <ele>1591</ele>
        <time>2016-09-05T10:26:28Z</time>
      </trkpt>
      <trkpt lat="45.05464" lon="2.77382">
        <ele>1593</ele>
        <time>2016-09-05T10:26:43Z</time>
      </trkpt>
      <trkpt lat="45.05465" lon="2.77381">
        <ele>1593</ele>
        <time>2016-09-05T10:26:44Z</time>
      </trkpt>
      <trkpt lat="45.05471" lon="2.77372">
        <ele>1593</ele>
        <time>2016-09-05T10:26:59Z</time>
      </trkpt>
      <trkpt lat="45.05471" lon="2.77371">
        <ele>1594</ele>
        <time>2016-09-05T10:27:00Z</time>
      </trkpt>
      <trkpt lat="45.0547" lon="2.77359">
        <ele>1595</ele>
        <time>2016-09-05T10:27:14Z</time>
      </trkpt>
      <trkpt lat="45.0547" lon="2.77358">
        <ele>1595</ele>
        <time>2016-09-05T10:27:15Z</time>
      </trkpt>
      <trkpt lat="45.05461" lon="2.77356">
        <ele>1596</ele>
        <time>2016-09-05T10:27:28Z</time>
      </trkpt>
      <trkpt lat="45.0546" lon="2.77356">
        <ele>1596</ele>
        <time>2016-09-05T10:27:29Z</time>
      </trkpt>
      <trkpt lat="45.05452" lon="2.77357">
        <ele>1597</ele>
        <time>2016-09-05T10:27:40Z</time>
      </trkpt>
      <trkpt lat="45.05451" lon="2.77357">
        <ele>1597</ele>
        <time>2016-09-05T10:27:41Z</time>
      </trkpt>
      <trkpt lat="45.05443" lon="2.77352">
        <ele>1599</ele>
        <time>2016-09-05T10:27:55Z</time>
      </trkpt>
      <trkpt lat="45.05443" lon="2.77351">
        <ele>1599</ele>
        <time>2016-09-05T10:27:56Z</time>
      </trkpt>
      <trkpt lat="45.05436" lon="2.7736">
        <ele>1598</ele>
        <time>2016-09-05T10:28:09Z</time>
      </trkpt>
      <trkpt lat="45.05436" lon="2.7736">
        <ele>1598</ele>
        <time>2016-09-05T10:28:10Z</time>
      </trkpt>
      <trkpt lat="45.05427" lon="2.77365">
        <ele>1598</ele>
        <time>2016-09-05T10:28:24Z</time>
      </trkpt>
      <trkpt lat="45.05426" lon="2.77365">
        <ele>1598</ele>
        <time>2016-09-05T10:28:25Z</time>
      </trkpt>
      <trkpt lat="45.05417" lon="2.77366">
        <ele>1598</ele>
        <time>2016-09-05T10:28:38Z</time>
      </trkpt>
      <trkpt lat="45.05417" lon="2.77366">
        <ele>1602</ele>
        <time>2016-09-05T10:28:39Z</time>
      </trkpt>
      <trkpt lat="45.05408" lon="2.77363">
        <ele>1602</ele>
        <time>2016-09-05T10:28:57Z</time>
      </trkpt>
      <trkpt lat="45.05407" lon="2.77364">
        <ele>1602</ele>
        <time>2016-09-05T10:28:58Z</time>
      </trkpt>
      <trkpt lat="45.05399" lon="2.77365">
        <ele>1602</ele>
        <time>2016-09-05T10:29:09Z</time>
      </trkpt>
      <trkpt lat="45.05398" lon="2.77365">
        <ele>1602</ele>
        <time>2016-09-05T10:29:10Z</time>
      </trkpt>
      <trkpt lat="45.05389" lon="2.77362">
        <ele>1602</ele>
        <time>2016-09-05T10:29:25Z</time>
      </trkpt>
      <trkpt lat="45.05388" lon="2.77362">
        <ele>1602</ele>
        <time>2016-09-05T10:29:26Z</time>
      </trkpt>
      <trkpt lat="45.05379" lon="2.77361">
        <ele>1601</ele>
        <time>2016-09-05T10:29:43Z</time>
      </trkpt>
      <trkpt lat="45.05379" lon="2.77361">
        <ele>1601</ele>
        <time>2016-09-05T10:29:44Z</time>
      </trkpt>
      <trkpt lat="45.05373" lon="2.77353">
        <ele>1602</ele>
        <time>2016-09-05T10:30:03Z</time>
      </trkpt>
      <trkpt lat="45.05372" lon="2.77352">
        <ele>1602</ele>
        <time>2016-09-05T10:30:04Z</time>
      </trkpt>
      <trkpt lat="45.05375" lon="2.7734">
        <ele>1602</ele>
        <time>2016-09-05T10:30:18Z</time>
      </trkpt>
      <trkpt lat="45.05375" lon="2.77339">
        <ele>1602</ele>
        <time>2016-09-05T10:30:19Z</time>
      </trkpt>
      <trkpt lat="45.05379" lon="2.77328">
        <ele>1609</ele>
        <time>2016-09-05T10:30:33Z</time>
      </trkpt>
      <trkpt lat="45.05379" lon="2.77327">
        <ele>1609</ele>
        <time>2016-09-05T10:30:34Z</time>
      </trkpt>
      <trkpt lat="45.05384" lon="2.77317">
        <ele>1610</ele>
        <time>2016-09-05T10:30:45Z</time>
      </trkpt>
      <trkpt lat="45.05385" lon="2.77316">
        <ele>1610</ele>
        <time>2016-09-05T10:30:46Z</time>
      </trkpt>
      <trkpt lat="45.05387" lon="2.77304">
        <ele>1610</ele>
        <time>2016-09-05T10:31:04Z</time>
      </trkpt>
      <trkpt lat="45.05387" lon="2.77303">
        <ele>1610</ele>
        <time>2016-09-05T10:31:05Z</time>
      </trkpt>
      <trkpt lat="45.05391" lon="2.77291">
        <ele>1611</ele>
        <time>2016-09-05T10:31:48Z</time>
      </trkpt>
      <trkpt lat="45.05391" lon="2.7729">
        <ele>1611</ele>
        <time>2016-09-05T10:31:49Z</time>
      </trkpt>
      <trkpt lat="45.05394" lon="2.77279">
        <ele>1613</ele>
        <time>2016-09-05T10:32:01Z</time>
      </trkpt>
      <trkpt lat="45.05394" lon="2.77278">
        <ele>1613</ele>
        <time>2016-09-05T10:32:02Z</time>
      </trkpt>
      <trkpt lat="45.05399" lon="2.77268">
        <ele>1615</ele>
        <time>2016-09-05T10:32:12Z</time>
      </trkpt>
      <trkpt lat="45.05399" lon="2.77267">
        <ele>1615</ele>
        <time>2016-09-05T10:32:13Z</time>
      </trkpt>
      <trkpt lat="45.05403" lon="2.77256">
        <ele>1618</ele>
        <time>2016-09-05T10:32:27Z</time>
      </trkpt>
      <trkpt lat="45.05403" lon="2.77255">
        <ele>1618</ele>
        <time>2016-09-05T10:32:28Z</time>
      </trkpt>
      <trkpt lat="45.05406" lon="2.77244">
        <ele>1621</ele>
        <time>2016-09-05T10:32:42Z</time>
      </trkpt>
      <trkpt lat="45.05406" lon="2.77243">
        <ele>1621</ele>
        <time>2016-09-05T10:32:43Z</time>
      </trkpt>
      <trkpt lat="45.05409" lon="2.77232">
        <ele>1620</ele>
        <time>2016-09-05T10:32:56Z</time>
      </trkpt>
      <trkpt lat="45.0541" lon="2.77231">
        <ele>1620</ele>
        <time>2016-09-05T10:32:57Z</time>
      </trkpt>
      <trkpt lat="45.05412" lon="2.77219">
        <ele>1620</ele>
        <time>2016-09-05T10:33:16Z</time>
      </trkpt>
      <trkpt lat="45.05412" lon="2.77218">
        <ele>1620</ele>
        <time>2016-09-05T10:33:17Z</time>
      </trkpt>
      <trkpt lat="45.05416" lon="2.77206">
        <ele>1621</ele>
        <time>2016-09-05T10:34:19Z</time>
      </trkpt>
      <trkpt lat="45.05416" lon="2.77206">
        <ele>1621</ele>
        <time>2016-09-05T10:34:20Z</time>
      </trkpt>
      <trkpt lat="45.0542" lon="2.77195">
        <ele>1633</ele>
        <time>2016-09-05T10:34:34Z</time>
      </trkpt>
      <trkpt lat="45.0542" lon="2.77195">
        <ele>1633</ele>
        <time>2016-09-05T10:34:35Z</time>
      </trkpt>
      <trkpt lat="45.05423" lon="2.77183">
        <ele>1634</ele>
        <time>2016-09-05T10:34:47Z</time>
      </trkpt>
      <trkpt lat="45.05423" lon="2.77182">
        <ele>1634</ele>
        <time>2016-09-05T10:34:48Z</time>
      </trkpt>
      <trkpt lat="45.05426" lon="2.7717">
        <ele>1635</ele>
        <time>2016-09-05T10:35:01Z</time>
      </trkpt>
      <trkpt lat="45.05426" lon="2.7717">
        <ele>1635</ele>
        <time>2016-09-05T10:35:02Z</time>
      </trkpt>
      <trkpt lat="45.0543" lon="2.77158">
        <ele>1640</ele>
        <time>2016-09-05T10:35:18Z</time>
      </trkpt>
      <trkpt lat="45.0543" lon="2.77157">
        <ele>1640</ele>
        <time>2016-09-05T10:35:19Z</time>
      </trkpt>
      <trkpt lat="45.05433" lon="2.77146">
        <ele>1642</ele>
        <time>2016-09-05T10:35:35Z</time>
      </trkpt>
      <trkpt lat="45.05434" lon="2.77145">
        <ele>1642</ele>
        <time>2016-09-05T10:35:36Z</time>
      </trkpt>
      <trkpt lat="45.05439" lon="2.77135">
        <ele>1643</ele>
        <time>2016-09-05T10:35:50Z</time>
      </trkpt>
      <trkpt lat="45.05439" lon="2.77134">
        <ele>1643</ele>
        <time>2016-09-05T10:35:51Z</time>
      </trkpt>
      <trkpt lat="45.05443" lon="2.77123">
        <ele>1644</ele>
        <time>2016-09-05T10:36:08Z</time>
      </trkpt>
      <trkpt lat="45.05443" lon="2.77123">
        <ele>1644</ele>
        <time>2016-09-05T10:36:09Z</time>
      </trkpt>
      <trkpt lat="45.05444" lon="2.7711">
        <ele>1644</ele>
        <time>2016-09-05T10:36:28Z</time>
      </trkpt>
      <trkpt lat="45.05444" lon="2.77109">
        <ele>1644</ele>
        <time>2016-09-05T10:36:29Z</time>
      </trkpt>
      <trkpt lat="45.05448" lon="2.77098">
        <ele>1645</ele>
        <time>2016-09-05T10:36:46Z</time>
      </trkpt>
      <trkpt lat="45.05448" lon="2.77097">
        <ele>1645</ele>
        <time>2016-09-05T10:36:47Z</time>
      </trkpt>
      <trkpt lat="45.05451" lon="2.77085">
        <ele>1645</ele>
        <time>2016-09-05T10:37:01Z</time>
      </trkpt>
      <trkpt lat="45.05451" lon="2.77084">
        <ele>1645</ele>
        <time>2016-09-05T10:37:02Z</time>
      </trkpt>
      <trkpt lat="45.05454" lon="2.77072">
        <ele>1649</ele>
        <time>2016-09-05T10:37:15Z</time>
      </trkpt>
      <trkpt lat="45.05454" lon="2.77072">
        <ele>1649</ele>
        <time>2016-09-05T10:37:16Z</time>
      </trkpt>
      <trkpt lat="45.05457" lon="2.7706">
        <ele>1650</ele>
        <time>2016-09-05T10:37:33Z</time>
      </trkpt>
      <trkpt lat="45.05457" lon="2.77059">
        <ele>1650</ele>
        <time>2016-09-05T10:37:34Z</time>
      </trkpt>
      <trkpt lat="45.05462" lon="2.7705">
        <ele>1651</ele>
        <time>2016-09-05T10:37:51Z</time>
      </trkpt>
      <trkpt lat="45.05463" lon="2.77049">
        <ele>1651</ele>
        <time>2016-09-05T10:37:52Z</time>
      </trkpt>
      <trkpt lat="45.05467" lon="2.77039">
        <ele>1652</ele>
        <time>2016-09-05T10:38:05Z</time>
      </trkpt>
      <trkpt lat="45.05468" lon="2.77038">
        <ele>1652</ele>
        <time>2016-09-05T10:38:06Z</time>
      </trkpt>
      <trkpt lat="45.05471" lon="2.77027">
        <ele>1653</ele>
        <time>2016-09-05T10:38:19Z</time>
      </trkpt>
      <trkpt lat="45.05472" lon="2.77026">
        <ele>1653</ele>
        <time>2016-09-05T10:38:20Z</time>
      </trkpt>
      <trkpt lat="45.05475" lon="2.77015">
        <ele>1654</ele>
        <time>2016-09-05T10:38:33Z</time>
      </trkpt>
      <trkpt lat="45.05476" lon="2.77014">
        <ele>1654</ele>
        <time>2016-09-05T10:38:34Z</time>
      </trkpt>
      <trkpt lat="45.0548" lon="2.77004">
        <ele>1656</ele>
        <time>2016-09-05T10:38:46Z</time>
      </trkpt>
      <trkpt lat="45.0548" lon="2.77003">
        <ele>1656</ele>
        <time>2016-09-05T10:38:47Z</time>
      </trkpt>
      <trkpt lat="45.05484" lon="2.76992">
        <ele>1659</ele>
        <time>2016-09-05T10:39:01Z</time>
      </trkpt>
      <trkpt lat="45.05484" lon="2.76991">
        <ele>1659</ele>
        <time>2016-09-05T10:39:02Z</time>
      </trkpt>
      <trkpt lat="45.05488" lon="2.76981">
        <ele>1659</ele>
        <time>2016-09-05T10:39:14Z</time>
      </trkpt>
      <trkpt lat="45.05489" lon="2.7698">
        <ele>1659</ele>
        <time>2016-09-05T10:39:15Z</time>
      </trkpt>
      <trkpt lat="45.05494" lon="2.7697">
        <ele>1659</ele>
        <time>2016-09-05T10:39:27Z</time>
      </trkpt>
      <trkpt lat="45.05494" lon="2.7697">
        <ele>1659</ele>
        <time>2016-09-05T10:39:28Z</time>
      </trkpt>
      <trkpt lat="45.05497" lon="2.76958">
        <ele>1660</ele>
        <time>2016-09-05T10:39:40Z</time>
      </trkpt>
      <trkpt lat="45.05498" lon="2.76958">
        <ele>1660</ele>
        <time>2016-09-05T10:39:41Z</time>
      </trkpt>
      <trkpt lat="45.05498" lon="2.76946">
        <ele>1661</ele>
        <time>2016-09-05T10:39:53Z</time>
      </trkpt>
      <trkpt lat="45.05499" lon="2.76945">
        <ele>1662</ele>
        <time>2016-09-05T10:39:54Z</time>
      </trkpt>
      <trkpt lat="45.05504" lon="2.76935">
        <ele>1673</ele>
        <time>2016-09-05T10:41:19Z</time>
      </trkpt>
      <trkpt lat="45.05504" lon="2.76934">
        <ele>1673</ele>
        <time>2016-09-05T10:41:20Z</time>
      </trkpt>
      <trkpt lat="45.05508" lon="2.76923">
        <ele>1673</ele>
        <time>2016-09-05T10:41:31Z</time>
      </trkpt>
      <trkpt lat="45.05509" lon="2.76922">
        <ele>1673</ele>
        <time>2016-09-05T10:41:32Z</time>
      </trkpt>
      <trkpt lat="45.05514" lon="2.76913">
        <ele>1678</ele>
        <time>2016-09-05T10:41:44Z</time>
      </trkpt>
      <trkpt lat="45.05515" lon="2.76912">
        <ele>1678</ele>
        <time>2016-09-05T10:41:45Z</time>
      </trkpt>
      <trkpt lat="45.05519" lon="2.76902">
        <ele>1680</ele>
        <time>2016-09-05T10:41:59Z</time>
      </trkpt>
      <trkpt lat="45.0552" lon="2.76901">
        <ele>1680</ele>
        <time>2016-09-05T10:42:00Z</time>
      </trkpt>
      <trkpt lat="45.05521" lon="2.76889">
        <ele>1681</ele>
        <time>2016-09-05T10:42:13Z</time>
      </trkpt>
      <trkpt lat="45.05522" lon="2.76888">
        <ele>1681</ele>
        <time>2016-09-05T10:42:14Z</time>
      </trkpt>
      <trkpt lat="45.05525" lon="2.76876">
        <ele>1682</ele>
        <time>2016-09-05T10:42:27Z</time>
      </trkpt>
      <trkpt lat="45.05525" lon="2.76876">
        <ele>1682</ele>
        <time>2016-09-05T10:42:28Z</time>
      </trkpt>
      <trkpt lat="45.0553" lon="2.76865">
        <ele>1683</ele>
        <time>2016-09-05T10:42:43Z</time>
      </trkpt>
      <trkpt lat="45.0553" lon="2.76865">
        <ele>1683</ele>
        <time>2016-09-05T10:42:44Z</time>
      </trkpt>
      <trkpt lat="45.05536" lon="2.76856">
        <ele>1684</ele>
        <time>2016-09-05T10:42:57Z</time>
      </trkpt>
      <trkpt lat="45.05536" lon="2.76855">
        <ele>1684</ele>
        <time>2016-09-05T10:42:58Z</time>
      </trkpt>
      <trkpt lat="45.05542" lon="2.76845">
        <ele>1685</ele>
        <time>2016-09-05T10:43:13Z</time>
      </trkpt>
      <trkpt lat="45.05542" lon="2.76844">
        <ele>1685</ele>
        <time>2016-09-05T10:43:14Z</time>
      </trkpt>
      <trkpt lat="45.05545" lon="2.76832">
        <ele>1692</ele>
        <time>2016-09-05T10:43:28Z</time>
      </trkpt>
      <trkpt lat="45.05546" lon="2.76832">
        <ele>1692</ele>
        <time>2016-09-05T10:43:29Z</time>
      </trkpt>
      <trkpt lat="45.05551" lon="2.76822">
        <ele>1694</ele>
        <time>2016-09-05T10:43:44Z</time>
      </trkpt>
      <trkpt lat="45.05552" lon="2.76821">
        <ele>1694</ele>
        <time>2016-09-05T10:43:45Z</time>
      </trkpt>
      <trkpt lat="45.05556" lon="2.76811">
        <ele>1694</ele>
        <time>2016-09-05T10:43:58Z</time>
      </trkpt>
      <trkpt lat="45.05556" lon="2.7681">
        <ele>1694</ele>
        <time>2016-09-05T10:43:59Z</time>
      </trkpt>
      <trkpt lat="45.0556" lon="2.768">
        <ele>1695</ele>
        <time>2016-09-05T10:44:13Z</time>
      </trkpt>
      <trkpt lat="45.0556" lon="2.76799">
        <ele>1695</ele>
        <time>2016-09-05T10:44:14Z</time>
      </trkpt>
      <trkpt lat="45.05562" lon="2.76787">
        <ele>1696</ele>
        <time>2016-09-05T10:44:26Z</time>
      </trkpt>
      <trkpt lat="45.05562" lon="2.76786">
        <ele>1696</ele>
        <time>2016-09-05T10:44:27Z</time>
      </trkpt>
      <trkpt lat="45.05564" lon="2.76774">
        <ele>1698</ele>
        <time>2016-09-05T10:44:42Z</time>
      </trkpt>
      <trkpt lat="45.05565" lon="2.76774">
        <ele>1698</ele>
        <time>2016-09-05T10:44:43Z</time>
      </trkpt>
      <trkpt lat="45.0557" lon="2.76764">
        <ele>1701</ele>
        <time>2016-09-05T10:46:19Z</time>
      </trkpt>
      <trkpt lat="45.0557" lon="2.76763">
        <ele>1701</ele>
        <time>2016-09-05T10:46:20Z</time>
      </trkpt>
      <trkpt lat="45.05573" lon="2.76752">
        <ele>1704</ele>
        <time>2016-09-05T10:46:30Z</time>
      </trkpt>
      <trkpt lat="45.05573" lon="2.76751">
        <ele>1704</ele>
        <time>2016-09-05T10:46:31Z</time>
      </trkpt>
      <trkpt lat="45.05577" lon="2.7674">
        <ele>1708</ele>
        <time>2016-09-05T10:46:44Z</time>
      </trkpt>
      <trkpt lat="45.05577" lon="2.76739">
        <ele>1708</ele>
        <time>2016-09-05T10:46:45Z</time>
      </trkpt>
      <trkpt lat="45.05581" lon="2.76728">
        <ele>1708</ele>
        <time>2016-09-05T10:47:02Z</time>
      </trkpt>
      <trkpt lat="45.05581" lon="2.76727">
        <ele>1708</ele>
        <time>2016-09-05T10:47:03Z</time>
      </trkpt>
      <trkpt lat="45.05585" lon="2.76717">
        <ele>1716</ele>
        <time>2016-09-05T10:47:19Z</time>
      </trkpt>
      <trkpt lat="45.05585" lon="2.76716">
        <ele>1716</ele>
        <time>2016-09-05T10:47:20Z</time>
      </trkpt>
      <trkpt lat="45.05587" lon="2.76704">
        <ele>1717</ele>
        <time>2016-09-05T10:47:37Z</time>
      </trkpt>
      <trkpt lat="45.05588" lon="2.76703">
        <ele>1717</ele>
        <time>2016-09-05T10:47:38Z</time>
      </trkpt>
      <trkpt lat="45.0559" lon="2.76691">
        <ele>1719</ele>
        <time>2016-09-05T10:47:53Z</time>
      </trkpt>
      <trkpt lat="45.05591" lon="2.76691">
        <ele>1719</ele>
        <time>2016-09-05T10:47:54Z</time>
      </trkpt>
      <trkpt lat="45.05595" lon="2.7668">
        <ele>1720</ele>
        <time>2016-09-05T10:48:08Z</time>
      </trkpt>
      <trkpt lat="45.05595" lon="2.76679">
        <ele>1720</ele>
        <time>2016-09-05T10:48:09Z</time>
      </trkpt>
      <trkpt lat="45.05596" lon="2.76667">
        <ele>1721</ele>
        <time>2016-09-05T10:48:24Z</time>
      </trkpt>
      <trkpt lat="45.05596" lon="2.76666">
        <ele>1725</ele>
        <time>2016-09-05T10:48:25Z</time>
      </trkpt>
      <trkpt lat="45.05597" lon="2.76654">
        <ele>1726</ele>
        <time>2016-09-05T10:48:39Z</time>
      </trkpt>
      <trkpt lat="45.05597" lon="2.76653">
        <ele>1726</ele>
        <time>2016-09-05T10:48:40Z</time>
      </trkpt>
      <trkpt lat="45.05598" lon="2.76641">
        <ele>1727</ele>
        <time>2016-09-05T10:50:32Z</time>
      </trkpt>
      <trkpt lat="45.05598" lon="2.7664">
        <ele>1727</ele>
        <time>2016-09-05T10:50:33Z</time>
      </trkpt>
      <trkpt lat="45.05599" lon="2.76627">
        <ele>1728</ele>
        <time>2016-09-05T10:50:48Z</time>
      </trkpt>
      <trkpt lat="45.05598" lon="2.76626">
        <ele>1728</ele>
        <time>2016-09-05T10:50:49Z</time>
      </trkpt>
      <trkpt lat="45.05604" lon="2.76617">
        <ele>1729</ele>
        <time>2016-09-05T10:51:06Z</time>
      </trkpt>
      <trkpt lat="45.05604" lon="2.76616">
        <ele>1729</ele>
        <time>2016-09-05T10:51:07Z</time>
      </trkpt>
      <trkpt lat="45.05609" lon="2.76606">
        <ele>1730</ele>
        <time>2016-09-05T10:51:23Z</time>
      </trkpt>
      <trkpt lat="45.05609" lon="2.76605">
        <ele>1730</ele>
        <time>2016-09-05T10:51:24Z</time>
      </trkpt>
      <trkpt lat="45.05612" lon="2.76594">
        <ele>1731</ele>
        <time>2016-09-05T10:51:36Z</time>
      </trkpt>
      <trkpt lat="45.05613" lon="2.76593">
        <ele>1731</ele>
        <time>2016-09-05T10:51:37Z</time>
      </trkpt>
      <trkpt lat="45.05615" lon="2.76581">
        <ele>1739</ele>
        <time>2016-09-05T10:51:51Z</time>
      </trkpt>
      <trkpt lat="45.05615" lon="2.7658">
        <ele>1739</ele>
        <time>2016-09-05T10:51:52Z</time>
      </trkpt>
      <trkpt lat="45.0562" lon="2.7657">
        <ele>1740</ele>
        <time>2016-09-05T10:52:03Z</time>
      </trkpt>
      <trkpt lat="45.05621" lon="2.76569">
        <ele>1740</ele>
        <time>2016-09-05T10:52:04Z</time>
      </trkpt>
      <trkpt lat="45.05625" lon="2.76558">
        <ele>1740</ele>
        <time>2016-09-05T10:52:17Z</time>
      </trkpt>
      <trkpt lat="45.05625" lon="2.76557">
        <ele>1740</ele>
        <time>2016-09-05T10:52:18Z</time>
      </trkpt>
      <trkpt lat="45.05627" lon="2.76546">
        <ele>1742</ele>
        <time>2016-09-05T10:52:35Z</time>
      </trkpt>
      <trkpt lat="45.05627" lon="2.76545">
        <ele>1742</ele>
        <time>2016-09-05T10:52:36Z</time>
      </trkpt>
      <trkpt lat="45.05632" lon="2.76535">
        <ele>1742</ele>
        <time>2016-09-05T10:52:50Z</time>
      </trkpt>
      <trkpt lat="45.05632" lon="2.76534">
        <ele>1742</ele>
        <time>2016-09-05T10:52:51Z</time>
      </trkpt>
      <trkpt lat="45.05637" lon="2.76524">
        <ele>1743</ele>
        <time>2016-09-05T10:53:07Z</time>
      </trkpt>
      <trkpt lat="45.05638" lon="2.76523">
        <ele>1743</ele>
        <time>2016-09-05T10:53:08Z</time>
      </trkpt>
      <trkpt lat="45.05642" lon="2.76513">
        <ele>1744</ele>
        <time>2016-09-05T10:53:20Z</time>
      </trkpt>
      <trkpt lat="45.05642" lon="2.76512">
        <ele>1744</ele>
        <time>2016-09-05T10:53:21Z</time>
      </trkpt>
      <trkpt lat="45.05638" lon="2.76501">
        <ele>1745</ele>
        <time>2016-09-05T10:54:30Z</time>
      </trkpt>
      <trkpt lat="45.05638" lon="2.765">
        <ele>1755</ele>
        <time>2016-09-05T10:54:31Z</time>
      </trkpt>
      <trkpt lat="45.05639" lon="2.76487">
        <ele>1755</ele>
        <time>2016-09-05T10:54:45Z</time>
      </trkpt>
      <trkpt lat="45.05639" lon="2.76486">
        <ele>1755</ele>
        <time>2016-09-05T10:54:46Z</time>
      </trkpt>
      <trkpt lat="45.05642" lon="2.76475">
        <ele>1757</ele>
        <time>2016-09-05T10:54:59Z</time>
      </trkpt>
      <trkpt lat="45.05642" lon="2.76474">
        <ele>1757</ele>
        <time>2016-09-05T10:55:00Z</time>
      </trkpt>
      <trkpt lat="45.05644" lon="2.76462">
        <ele>1758</ele>
        <time>2016-09-05T10:55:18Z</time>
      </trkpt>
      <trkpt lat="45.05644" lon="2.76461">
        <ele>1758</ele>
        <time>2016-09-05T10:55:19Z</time>
      </trkpt>
      <trkpt lat="45.05646" lon="2.76449">
        <ele>1760</ele>
        <time>2016-09-05T10:55:35Z</time>
      </trkpt>
      <trkpt lat="45.05646" lon="2.76448">
        <ele>1760</ele>
        <time>2016-09-05T10:55:36Z</time>
      </trkpt>
      <trkpt lat="45.05649" lon="2.76437">
        <ele>1762</ele>
        <time>2016-09-05T10:55:52Z</time>
      </trkpt>
      <trkpt lat="45.05649" lon="2.76436">
        <ele>1762</ele>
        <time>2016-09-05T10:55:53Z</time>
      </trkpt>
      <trkpt lat="45.05653" lon="2.76425">
        <ele>1764</ele>
        <time>2016-09-05T10:56:10Z</time>
      </trkpt>
      <trkpt lat="45.05653" lon="2.76425">
        <ele>1764</ele>
        <time>2016-09-05T10:56:11Z</time>
      </trkpt>
      <trkpt lat="45.05657" lon="2.76413">
        <ele>1770</ele>
        <time>2016-09-05T10:56:26Z</time>
      </trkpt>
      <trkpt lat="45.05658" lon="2.76413">
        <ele>1770</ele>
        <time>2016-09-05T10:56:27Z</time>
      </trkpt>
      <trkpt lat="45.05661" lon="2.76401">
        <ele>1771</ele>
        <time>2016-09-05T10:56:42Z</time>
      </trkpt>
      <trkpt lat="45.05661" lon="2.76401">
        <ele>1771</ele>
        <time>2016-09-05T10:56:43Z</time>
      </trkpt>
      <trkpt lat="45.05663" lon="2.76389">
        <ele>1773</ele>
        <time>2016-09-05T10:58:09Z</time>
      </trkpt>
      <trkpt lat="45.05663" lon="2.76388">
        <ele>1773</ele>
        <time>2016-09-05T10:58:10Z</time>
      </trkpt>
      <trkpt lat="45.05669" lon="2.76379">
        <ele>1772</ele>
        <time>2016-09-05T10:59:18Z</time>
      </trkpt>
      <trkpt lat="45.0567" lon="2.76378">
        <ele>1772</ele>
        <time>2016-09-05T10:59:19Z</time>
      </trkpt>
      <trkpt lat="45.05677" lon="2.76371">
        <ele>1773</ele>
        <time>2016-09-05T10:59:29Z</time>
      </trkpt>
      <trkpt lat="45.05677" lon="2.7637">
        <ele>1773</ele>
        <time>2016-09-05T10:59:30Z</time>
      </trkpt>
      <trkpt lat="45.0568" lon="2.76358">
        <ele>1775</ele>
        <time>2016-09-05T10:59:44Z</time>
      </trkpt>
      <trkpt lat="45.0568" lon="2.76357">
        <ele>1775</ele>
        <time>2016-09-05T10:59:45Z</time>
      </trkpt>
      <trkpt lat="45.05681" lon="2.76345">
        <ele>1777</ele>
        <time>2016-09-05T10:59:59Z</time>
      </trkpt>
      <trkpt lat="45.05681" lon="2.76344">
        <ele>1777</ele>
        <time>2016-09-05T11:00:00Z</time>
      </trkpt>
      <trkpt lat="45.05685" lon="2.76333">
        <ele>1786</ele>
        <time>2016-09-05T11:00:18Z</time>
      </trkpt>
      <trkpt lat="45.05685" lon="2.76332">
        <ele>1786</ele>
        <time>2016-09-05T11:00:19Z</time>
      </trkpt>
      <trkpt lat="45.05688" lon="2.7632">
        <ele>1787</ele>
        <time>2016-09-05T11:01:05Z</time>
      </trkpt>
      <trkpt lat="45.05688" lon="2.7632">
        <ele>1787</ele>
        <time>2016-09-05T11:01:06Z</time>
      </trkpt>
      <trkpt lat="45.05693" lon="2.7631">
        <ele>1788</ele>
        <time>2016-09-05T11:01:22Z</time>
      </trkpt>
      <trkpt lat="45.05693" lon="2.76309">
        <ele>1788</ele>
        <time>2016-09-05T11:01:23Z</time>
      </trkpt>
      <trkpt lat="45.05699" lon="2.763">
        <ele>1789</ele>
        <time>2016-09-05T11:01:37Z</time>
      </trkpt>
      <trkpt lat="45.05699" lon="2.76299">
        <ele>1789</ele>
        <time>2016-09-05T11:01:38Z</time>
      </trkpt>
      <trkpt lat="45.05704" lon="2.76288">
        <ele>1790</ele>
        <time>2016-09-05T11:01:51Z</time>
      </trkpt>
      <trkpt lat="45.05705" lon="2.76288">
        <ele>1790</ele>
        <time>2016-09-05T11:01:52Z</time>
      </trkpt>
      <trkpt lat="45.05712" lon="2.76281">
        <ele>1791</ele>
        <time>2016-09-05T11:02:04Z</time>
      </trkpt>
      <trkpt lat="45.05712" lon="2.7628">
        <ele>1791</ele>
        <time>2016-09-05T11:02:05Z</time>
      </trkpt>
      <trkpt lat="45.05719" lon="2.76272">
        <ele>1792</ele>
        <time>2016-09-05T11:02:21Z</time>
      </trkpt>
      <trkpt lat="45.05719" lon="2.76271">
        <ele>1792</ele>
        <time>2016-09-05T11:02:22Z</time>
      </trkpt>
      <trkpt lat="45.05725" lon="2.76262">
        <ele>1793</ele>
        <time>2016-09-05T11:02:39Z</time>
      </trkpt>
      <trkpt lat="45.05725" lon="2.76261">
        <ele>1793</ele>
        <time>2016-09-05T11:02:40Z</time>
      </trkpt>
      <trkpt lat="45.05731" lon="2.76252">
        <ele>1794</ele>
        <time>2016-09-05T11:02:53Z</time>
      </trkpt>
      <trkpt lat="45.05731" lon="2.76251">
        <ele>1794</ele>
        <time>2016-09-05T11:02:54Z</time>
      </trkpt>
      <trkpt lat="45.05737" lon="2.76241">
        <ele>1802</ele>
        <time>2016-09-05T11:03:06Z</time>
      </trkpt>
      <trkpt lat="45.05737" lon="2.7624">
        <ele>1802</ele>
        <time>2016-09-05T11:03:07Z</time>
      </trkpt>
      <trkpt lat="45.05744" lon="2.76233">
        <ele>1803</ele>
        <time>2016-09-05T11:03:21Z</time>
      </trkpt>
      <trkpt lat="45.05744" lon="2.76233">
        <ele>1803</ele>
        <time>2016-09-05T11:03:22Z</time>
      </trkpt>
      <trkpt lat="45.05751" lon="2.76224">
        <ele>1806</ele>
        <time>2016-09-05T11:03:35Z</time>
      </trkpt>
      <trkpt lat="45.05751" lon="2.76224">
        <ele>1806</ele>
        <time>2016-09-05T11:03:36Z</time>
      </trkpt>
      <trkpt lat="45.05758" lon="2.76216">
        <ele>1808</ele>
        <time>2016-09-05T11:03:50Z</time>
      </trkpt>
      <trkpt lat="45.05759" lon="2.76216">
        <ele>1808</ele>
        <time>2016-09-05T11:03:51Z</time>
      </trkpt>
      <trkpt lat="45.05766" lon="2.76209">
        <ele>1809</ele>
        <time>2016-09-05T11:04:05Z</time>
      </trkpt>
      <trkpt lat="45.05767" lon="2.76209">
        <ele>1809</ele>
        <time>2016-09-05T11:04:06Z</time>
      </trkpt>
      <trkpt lat="45.05773" lon="2.762">
        <ele>1811</ele>
        <time>2016-09-05T11:04:21Z</time>
      </trkpt>
      <trkpt lat="45.05774" lon="2.762">
        <ele>1811</ele>
        <time>2016-09-05T11:04:22Z</time>
      </trkpt>
      <trkpt lat="45.05778" lon="2.7619">
        <ele>1812</ele>
        <time>2016-09-05T11:04:44Z</time>
      </trkpt>
      <trkpt lat="45.05778" lon="2.76189">
        <ele>1812</ele>
        <time>2016-09-05T11:04:45Z</time>
      </trkpt>
      <trkpt lat="45.05782" lon="2.76178">
        <ele>1813</ele>
        <time>2016-09-05T11:05:10Z</time>
      </trkpt>
      <trkpt lat="45.05782" lon="2.76177">
        <ele>1813</ele>
        <time>2016-09-05T11:05:11Z</time>
      </trkpt>
      <trkpt lat="45.05782" lon="2.76164">
        <ele>1817</ele>
        <time>2016-09-05T11:05:34Z</time>
      </trkpt>
      <trkpt lat="45.05782" lon="2.76164">
        <ele>1817</ele>
        <time>2016-09-05T11:05:35Z</time>
      </trkpt>
      <trkpt lat="45.05785" lon="2.76151">
        <ele>1817</ele>
        <time>2016-09-05T11:05:57Z</time>
      </trkpt>
      <trkpt lat="45.05785" lon="2.76151">
        <ele>1817</ele>
        <time>2016-09-05T11:05:58Z</time>
      </trkpt>
      <trkpt lat="45.05793" lon="2.76152">
        <ele>1818</ele>
        <time>2016-09-05T11:07:11Z</time>
      </trkpt>
      <trkpt lat="45.05794" lon="2.76152">
        <ele>1818</ele>
        <time>2016-09-05T11:07:12Z</time>
      </trkpt>
      <trkpt lat="45.05786" lon="2.76147">
        <ele>1817</ele>
        <time>2016-09-05T11:36:01Z</time>
      </trkpt>
      <trkpt lat="45.05786" lon="2.76146">
        <ele>1817</ele>
        <time>2016-09-05T11:36:02Z</time>
      </trkpt>
      <trkpt lat="45.05779" lon="2.7614">
        <ele>1816</ele>
        <time>2016-09-05T11:36:15Z</time>
      </trkpt>
      <trkpt lat="45.05778" lon="2.76139">
        <ele>1816</ele>
        <time>2016-09-05T11:36:16Z</time>
      </trkpt>
      <trkpt lat="45.05771" lon="2.76131">
        <ele>1815</ele>
        <time>2016-09-05T11:36:28Z</time>
      </trkpt>
      <trkpt lat="45.05771" lon="2.76131">
        <ele>1815</ele>
        <time>2016-09-05T11:36:29Z</time>
      </trkpt>
      <trkpt lat="45.05766" lon="2.76121">
        <ele>1814</ele>
        <time>2016-09-05T11:36:53Z</time>
      </trkpt>
      <trkpt lat="45.05765" lon="2.7612">
        <ele>1813</ele>
        <time>2016-09-05T11:36:54Z</time>
      </trkpt>
      <trkpt lat="45.05774" lon="2.76116">
        <ele>1814</ele>
        <time>2016-09-05T11:37:28Z</time>
      </trkpt>
      <trkpt lat="45.05774" lon="2.76116">
        <ele>1814</ele>
        <time>2016-09-05T11:37:29Z</time>
      </trkpt>
      <trkpt lat="45.05783" lon="2.76116">
        <ele>1814</ele>
        <time>2016-09-05T11:37:41Z</time>
      </trkpt>
      <trkpt lat="45.05784" lon="2.76116">
        <ele>1814</ele>
        <time>2016-09-05T11:37:42Z</time>
      </trkpt>
      <trkpt lat="45.05792" lon="2.76113">
        <ele>1815</ele>
        <time>2016-09-05T11:37:50Z</time>
      </trkpt>
      <trkpt lat="45.05793" lon="2.76112">
        <ele>1815</ele>
        <time>2016-09-05T11:37:51Z</time>
      </trkpt>
      <trkpt lat="45.058" lon="2.76107">
        <ele>1815</ele>
        <time>2016-09-05T11:38:01Z</time>
      </trkpt>
      <trkpt lat="45.05801" lon="2.76106">
        <ele>1815</ele>
        <time>2016-09-05T11:38:02Z</time>
      </trkpt>
      <trkpt lat="45.05808" lon="2.761">
        <ele>1815</ele>
        <time>2016-09-05T11:38:12Z</time>
      </trkpt>
      <trkpt lat="45.05809" lon="2.761">
        <ele>1815</ele>
        <time>2016-09-05T11:38:13Z</time>
      </trkpt>
      <trkpt lat="45.05817" lon="2.76096">
        <ele>1814</ele>
        <time>2016-09-05T11:38:25Z</time>
      </trkpt>
      <trkpt lat="45.05818" lon="2.76095">
        <ele>1814</ele>
        <time>2016-09-05T11:38:26Z</time>
      </trkpt>
      <trkpt lat="45.05826" lon="2.76091">
        <ele>1814</ele>
        <time>2016-09-05T11:38:43Z</time>
      </trkpt>
      <trkpt lat="45.05827" lon="2.76091">
        <ele>1814</ele>
        <time>2016-09-05T11:38:44Z</time>
      </trkpt>
      <trkpt lat="45.05836" lon="2.76092">
        <ele>1816</ele>
        <time>2016-09-05T11:38:56Z</time>
      </trkpt>
      <trkpt lat="45.05836" lon="2.76092">
        <ele>1816</ele>
        <time>2016-09-05T11:38:57Z</time>
      </trkpt>
      <trkpt lat="45.05845" lon="2.76089">
        <ele>1816</ele>
        <time>2016-09-05T11:39:17Z</time>
      </trkpt>
      <trkpt lat="45.05845" lon="2.76088">
        <ele>1816</ele>
        <time>2016-09-05T11:39:18Z</time>
      </trkpt>
      <trkpt lat="45.05853" lon="2.76084">
        <ele>1817</ele>
        <time>2016-09-05T11:39:29Z</time>
      </trkpt>
      <trkpt lat="45.05854" lon="2.76084">
        <ele>1818</ele>
        <time>2016-09-05T11:39:30Z</time>
      </trkpt>
      <trkpt lat="45.05863" lon="2.76082">
        <ele>1804</ele>
        <time>2016-09-05T11:39:40Z</time>
      </trkpt>
      <trkpt lat="45.05863" lon="2.76082">
        <ele>1804</ele>
        <time>2016-09-05T11:39:41Z</time>
      </trkpt>
      <trkpt lat="45.05871" lon="2.7608">
        <ele>1803</ele>
        <time>2016-09-05T11:39:51Z</time>
      </trkpt>
      <trkpt lat="45.05872" lon="2.76079">
        <ele>1803</ele>
        <time>2016-09-05T11:39:52Z</time>
      </trkpt>
      <trkpt lat="45.0588" lon="2.76076">
        <ele>1803</ele>
        <time>2016-09-05T11:40:02Z</time>
      </trkpt>
      <trkpt lat="45.05881" lon="2.76076">
        <ele>1803</ele>
        <time>2016-09-05T11:40:03Z</time>
      </trkpt>
      <trkpt lat="45.05889" lon="2.76075">
        <ele>1804</ele>
        <time>2016-09-05T11:40:14Z</time>
      </trkpt>
      <trkpt lat="45.0589" lon="2.76075">
        <ele>1804</ele>
        <time>2016-09-05T11:40:15Z</time>
      </trkpt>
      <trkpt lat="45.05899" lon="2.76071">
        <ele>1805</ele>
        <time>2016-09-05T11:40:27Z</time>
      </trkpt>
      <trkpt lat="45.05899" lon="2.7607">
        <ele>1805</ele>
        <time>2016-09-05T11:40:28Z</time>
      </trkpt>
      <trkpt lat="45.05908" lon="2.7607">
        <ele>1807</ele>
        <time>2016-09-05T11:40:39Z</time>
      </trkpt>
      <trkpt lat="45.05909" lon="2.7607">
        <ele>1807</ele>
        <time>2016-09-05T11:40:40Z</time>
      </trkpt>
      <trkpt lat="45.05918" lon="2.76071">
        <ele>1809</ele>
        <time>2016-09-05T11:41:05Z</time>
      </trkpt>
      <trkpt lat="45.05918" lon="2.76071">
        <ele>1809</ele>
        <time>2016-09-05T11:41:06Z</time>
      </trkpt>
      <trkpt lat="45.05926" lon="2.76076">
        <ele>1810</ele>
        <time>2016-09-05T11:41:19Z</time>
      </trkpt>
      <trkpt lat="45.05926" lon="2.76076">
        <ele>1810</ele>
        <time>2016-09-05T11:41:20Z</time>
      </trkpt>
      <trkpt lat="45.05935" lon="2.76075">
        <ele>1807</ele>
        <time>2016-09-05T11:41:32Z</time>
      </trkpt>
      <trkpt lat="45.05935" lon="2.76075">
        <ele>1807</ele>
        <time>2016-09-05T11:41:33Z</time>
      </trkpt>
      <trkpt lat="45.05944" lon="2.76077">
        <ele>1806</ele>
        <time>2016-09-05T11:41:47Z</time>
      </trkpt>
      <trkpt lat="45.05945" lon="2.76077">
        <ele>1805</ele>
        <time>2016-09-05T11:41:48Z</time>
      </trkpt>
      <trkpt lat="45.05953" lon="2.7608">
        <ele>1805</ele>
        <time>2016-09-05T11:42:04Z</time>
      </trkpt>
      <trkpt lat="45.05953" lon="2.7608">
        <ele>1805</ele>
        <time>2016-09-05T11:42:05Z</time>
      </trkpt>
      <trkpt lat="45.05961" lon="2.76086">
        <ele>1816</ele>
        <time>2016-09-05T11:42:26Z</time>
      </trkpt>
      <trkpt lat="45.05962" lon="2.76087">
        <ele>1816</ele>
        <time>2016-09-05T11:42:27Z</time>
      </trkpt>
      <trkpt lat="45.05969" lon="2.76091">
        <ele>1816</ele>
        <time>2016-09-05T11:42:40Z</time>
      </trkpt>
      <trkpt lat="45.0597" lon="2.76092">
        <ele>1815</ele>
        <time>2016-09-05T11:42:41Z</time>
      </trkpt>
      <trkpt lat="45.05978" lon="2.76096">
        <ele>1815</ele>
        <time>2016-09-05T11:42:53Z</time>
      </trkpt>
      <trkpt lat="45.05979" lon="2.76096">
        <ele>1815</ele>
        <time>2016-09-05T11:42:54Z</time>
      </trkpt>
      <trkpt lat="45.05986" lon="2.76102">
        <ele>1815</ele>
        <time>2016-09-05T11:43:04Z</time>
      </trkpt>
      <trkpt lat="45.05987" lon="2.76102">
        <ele>1815</ele>
        <time>2016-09-05T11:43:05Z</time>
      </trkpt>
      <trkpt lat="45.05984" lon="2.76113">
        <ele>1816</ele>
        <time>2016-09-05T11:43:32Z</time>
      </trkpt>
      <trkpt lat="45.05983" lon="2.76114">
        <ele>1816</ele>
        <time>2016-09-05T11:43:33Z</time>
      </trkpt>
      <trkpt lat="45.05992" lon="2.76111">
        <ele>1815</ele>
        <time>2016-09-05T11:45:03Z</time>
      </trkpt>
      <trkpt lat="45.05992" lon="2.76111">
        <ele>1815</ele>
        <time>2016-09-05T11:45:04Z</time>
      </trkpt>
      <trkpt lat="45.05984" lon="2.76113">
        <ele>1816</ele>
        <time>2016-09-05T11:46:14Z</time>
      </trkpt>
      <trkpt lat="45.05983" lon="2.76113">
        <ele>1816</ele>
        <time>2016-09-05T11:46:15Z</time>
      </trkpt>
      <trkpt lat="45.05974" lon="2.76116">
        <ele>1817</ele>
        <time>2016-09-05T11:46:27Z</time>
      </trkpt>
      <trkpt lat="45.05974" lon="2.76117">
        <ele>1817</ele>
        <time>2016-09-05T11:46:28Z</time>
      </trkpt>
      <trkpt lat="45.0597" lon="2.76127">
        <ele>1818</ele>
        <time>2016-09-05T11:46:41Z</time>
      </trkpt>
      <trkpt lat="45.05969" lon="2.76128">
        <ele>1818</ele>
        <time>2016-09-05T11:46:42Z</time>
      </trkpt>
      <trkpt lat="45.05962" lon="2.76135">
        <ele>1818</ele>
        <time>2016-09-05T11:46:57Z</time>
      </trkpt>
      <trkpt lat="45.05961" lon="2.76135">
        <ele>1818</ele>
        <time>2016-09-05T11:46:58Z</time>
      </trkpt>
      <trkpt lat="45.05957" lon="2.76146">
        <ele>1819</ele>
        <time>2016-09-05T11:47:11Z</time>
      </trkpt>
      <trkpt lat="45.05957" lon="2.76147">
        <ele>1819</ele>
        <time>2016-09-05T11:47:12Z</time>
      </trkpt>
      <trkpt lat="45.05958" lon="2.7616">
        <ele>1820</ele>
        <time>2016-09-05T11:47:24Z</time>
      </trkpt>
      <trkpt lat="45.05957" lon="2.76161">
        <ele>1820</ele>
        <time>2016-09-05T11:47:25Z</time>
      </trkpt>
      <trkpt lat="45.05949" lon="2.76166">
        <ele>1821</ele>
        <time>2016-09-05T11:47:45Z</time>
      </trkpt>
      <trkpt lat="45.05949" lon="2.76166">
        <ele>1821</ele>
        <time>2016-09-05T11:47:46Z</time>
      </trkpt>
      <trkpt lat="45.05942" lon="2.76174">
        <ele>1820</ele>
        <time>2016-09-05T11:47:59Z</time>
      </trkpt>
      <trkpt lat="45.05941" lon="2.76175">
        <ele>1820</ele>
        <time>2016-09-05T11:48:00Z</time>
      </trkpt>
      <trkpt lat="45.05935" lon="2.76182">
        <ele>1820</ele>
        <time>2016-09-05T11:48:11Z</time>
      </trkpt>
      <trkpt lat="45.05934" lon="2.76183">
        <ele>1820</ele>
        <time>2016-09-05T11:48:12Z</time>
      </trkpt>
      <trkpt lat="45.05927" lon="2.7619">
        <ele>1819</ele>
        <time>2016-09-05T11:48:26Z</time>
      </trkpt>
      <trkpt lat="45.05926" lon="2.76191">
        <ele>1819</ele>
        <time>2016-09-05T11:48:27Z</time>
      </trkpt>
      <trkpt lat="45.05918" lon="2.7619">
        <ele>1820</ele>
        <time>2016-09-05T11:48:52Z</time>
      </trkpt>
      <trkpt lat="45.05917" lon="2.7619">
        <ele>1820</ele>
        <time>2016-09-05T11:48:53Z</time>
      </trkpt>
      <trkpt lat="45.05909" lon="2.76185">
        <ele>1821</ele>
        <time>2016-09-05T11:49:13Z</time>
      </trkpt>
      <trkpt lat="45.05909" lon="2.76185">
        <ele>1821</ele>
        <time>2016-09-05T11:49:14Z</time>
      </trkpt>
      <trkpt lat="45.05904" lon="2.76175">
        <ele>1823</ele>
        <time>2016-09-05T11:49:29Z</time>
      </trkpt>
      <trkpt lat="45.05903" lon="2.76175">
        <ele>1823</ele>
        <time>2016-09-05T11:49:30Z</time>
      </trkpt>
      <trkpt lat="45.05897" lon="2.76165">
        <ele>1826</ele>
        <time>2016-09-05T11:49:52Z</time>
      </trkpt>
      <trkpt lat="45.05897" lon="2.76165">
        <ele>1825</ele>
        <time>2016-09-05T11:49:53Z</time>
      </trkpt>
      <trkpt lat="45.05893" lon="2.76155">
        <ele>1825</ele>
        <time>2016-09-05T11:50:08Z</time>
      </trkpt>
      <trkpt lat="45.05892" lon="2.76154">
        <ele>1824</ele>
        <time>2016-09-05T11:50:09Z</time>
      </trkpt>
      <trkpt lat="45.05887" lon="2.76144">
        <ele>1824</ele>
        <time>2016-09-05T11:50:19Z</time>
      </trkpt>
      <trkpt lat="45.05886" lon="2.76143">
        <ele>1823</ele>
        <time>2016-09-05T11:50:20Z</time>
      </trkpt>
      <trkpt lat="45.05888" lon="2.76131">
        <ele>1822</ele>
        <time>2016-09-05T11:55:33Z</time>
      </trkpt>
      <trkpt lat="45.05889" lon="2.76131">
        <ele>1822</ele>
        <time>2016-09-05T11:55:34Z</time>
      </trkpt>
      <trkpt lat="45.05897" lon="2.76133">
        <ele>1823</ele>
        <time>2016-09-05T11:56:38Z</time>
      </trkpt>
      <trkpt lat="45.05898" lon="2.76133">
        <ele>1823</ele>
        <time>2016-09-05T11:56:39Z</time>
      </trkpt>
      <trkpt lat="45.05894" lon="2.76144">
        <ele>1824</ele>
        <time>2016-09-05T12:00:34Z</time>
      </trkpt>
      <trkpt lat="45.05893" lon="2.76144">
        <ele>1824</ele>
        <time>2016-09-05T12:00:35Z</time>
      </trkpt>
      <trkpt lat="45.05893" lon="2.76157">
        <ele>1825</ele>
        <time>2016-09-05T12:04:20Z</time>
      </trkpt>
      <trkpt lat="45.05893" lon="2.76158">
        <ele>1825</ele>
        <time>2016-09-05T12:04:21Z</time>
      </trkpt>
      <trkpt lat="45.05898" lon="2.76168">
        <ele>1823</ele>
        <time>2016-09-05T12:04:36Z</time>
      </trkpt>
      <trkpt lat="45.05899" lon="2.76168">
        <ele>1823</ele>
        <time>2016-09-05T12:04:37Z</time>
      </trkpt>
      <trkpt lat="45.05904" lon="2.76179">
        <ele>1822</ele>
        <time>2016-09-05T12:04:54Z</time>
      </trkpt>
      <trkpt lat="45.05904" lon="2.76179">
        <ele>1822</ele>
        <time>2016-09-05T12:04:55Z</time>
      </trkpt>
      <trkpt lat="45.05912" lon="2.76186">
        <ele>1821</ele>
        <time>2016-09-05T12:05:15Z</time>
      </trkpt>
      <trkpt lat="45.05912" lon="2.76186">
        <ele>1821</ele>
        <time>2016-09-05T12:05:16Z</time>
      </trkpt>
      <trkpt lat="45.0592" lon="2.76192">
        <ele>1819</ele>
        <time>2016-09-05T12:05:31Z</time>
      </trkpt>
      <trkpt lat="45.05921" lon="2.76192">
        <ele>1819</ele>
        <time>2016-09-05T12:05:32Z</time>
      </trkpt>
      <trkpt lat="45.0593" lon="2.76191">
        <ele>1818</ele>
        <time>2016-09-05T12:05:55Z</time>
      </trkpt>
      <trkpt lat="45.0593" lon="2.76191">
        <ele>1818</ele>
        <time>2016-09-05T12:05:56Z</time>
      </trkpt>
      <trkpt lat="45.05938" lon="2.76185">
        <ele>1819</ele>
        <time>2016-09-05T12:06:18Z</time>
      </trkpt>
      <trkpt lat="45.05938" lon="2.76185">
        <ele>1819</ele>
        <time>2016-09-05T12:06:19Z</time>
      </trkpt>
      <trkpt lat="45.05945" lon="2.76179">
        <ele>1818</ele>
        <time>2016-09-05T12:06:31Z</time>
      </trkpt>
      <trkpt lat="45.05946" lon="2.76178">
        <ele>1818</ele>
        <time>2016-09-05T12:06:32Z</time>
      </trkpt>
      <trkpt lat="45.05953" lon="2.76171">
        <ele>1818</ele>
        <time>2016-09-05T12:06:47Z</time>
      </trkpt>
      <trkpt lat="45.05953" lon="2.7617">
        <ele>1818</ele>
        <time>2016-09-05T12:06:48Z</time>
      </trkpt>
      <trkpt lat="45.05962" lon="2.76169">
        <ele>1817</ele>
        <time>2016-09-05T12:07:09Z</time>
      </trkpt>
      <trkpt lat="45.05963" lon="2.76169">
        <ele>1817</ele>
        <time>2016-09-05T12:07:10Z</time>
      </trkpt>
      <trkpt lat="45.05971" lon="2.7617">
        <ele>1817</ele>
        <time>2016-09-05T12:07:27Z</time>
      </trkpt>
      <trkpt lat="45.05972" lon="2.7617">
        <ele>1817</ele>
        <time>2016-09-05T12:07:28Z</time>
      </trkpt>
      <trkpt lat="45.0598" lon="2.7617">
        <ele>1816</ele>
        <time>2016-09-05T12:07:41Z</time>
      </trkpt>
      <trkpt lat="45.05981" lon="2.7617">
        <ele>1816</ele>
        <time>2016-09-05T12:07:42Z</time>
      </trkpt>
      <trkpt lat="45.05989" lon="2.76173">
        <ele>1816</ele>
        <time>2016-09-05T12:07:57Z</time>
      </trkpt>
      <trkpt lat="45.0599" lon="2.76173">
        <ele>1816</ele>
        <time>2016-09-05T12:07:58Z</time>
      </trkpt>
      <trkpt lat="45.05998" lon="2.76175">
        <ele>1816</ele>
        <time>2016-09-05T12:08:09Z</time>
      </trkpt>
      <trkpt lat="45.05999" lon="2.76175">
        <ele>1816</ele>
        <time>2016-09-05T12:08:10Z</time>
      </trkpt>
      <trkpt lat="45.06007" lon="2.7617">
        <ele>1815</ele>
        <time>2016-09-05T12:08:43Z</time>
      </trkpt>
      <trkpt lat="45.06007" lon="2.76168">
        <ele>1815</ele>
        <time>2016-09-05T12:08:44Z</time>
      </trkpt>
      <trkpt lat="45.0601" lon="2.76157">
        <ele>1814</ele>
        <time>2016-09-05T12:08:53Z</time>
      </trkpt>
      <trkpt lat="45.0601" lon="2.76156">
        <ele>1814</ele>
        <time>2016-09-05T12:08:54Z</time>
      </trkpt>
      <trkpt lat="45.06015" lon="2.76146">
        <ele>1813</ele>
        <time>2016-09-05T12:09:03Z</time>
      </trkpt>
      <trkpt lat="45.06015" lon="2.76145">
        <ele>1813</ele>
        <time>2016-09-05T12:09:04Z</time>
      </trkpt>
      <trkpt lat="45.0602" lon="2.76135">
        <ele>1812</ele>
        <time>2016-09-05T12:09:19Z</time>
      </trkpt>
      <trkpt lat="45.06021" lon="2.76134">
        <ele>1812</ele>
        <time>2016-09-05T12:09:20Z</time>
      </trkpt>
      <trkpt lat="45.06024" lon="2.76123">
        <ele>1811</ele>
        <time>2016-09-05T12:09:31Z</time>
      </trkpt>
      <trkpt lat="45.06024" lon="2.76122">
        <ele>1811</ele>
        <time>2016-09-05T12:09:32Z</time>
      </trkpt>
      <trkpt lat="45.0603" lon="2.76114">
        <ele>1810</ele>
        <time>2016-09-05T12:09:43Z</time>
      </trkpt>
      <trkpt lat="45.06031" lon="2.76113">
        <ele>1810</ele>
        <time>2016-09-05T12:09:44Z</time>
      </trkpt>
      <trkpt lat="45.06023" lon="2.76107">
        <ele>1810</ele>
        <time>2016-09-05T12:11:09Z</time>
      </trkpt>
      <trkpt lat="45.06022" lon="2.76107">
        <ele>1810</ele>
        <time>2016-09-05T12:11:10Z</time>
      </trkpt>
      <trkpt lat="45.06014" lon="2.76106">
        <ele>1810</ele>
        <time>2016-09-05T12:11:18Z</time>
      </trkpt>
      <trkpt lat="45.06013" lon="2.76106">
        <ele>1810</ele>
        <time>2016-09-05T12:11:19Z</time>
      </trkpt>
      <trkpt lat="45.06005" lon="2.76105">
        <ele>1810</ele>
        <time>2016-09-05T12:11:28Z</time>
      </trkpt>
      <trkpt lat="45.06004" lon="2.76105">
        <ele>1810</ele>
        <time>2016-09-05T12:11:29Z</time>
      </trkpt>
      <trkpt lat="45.05996" lon="2.76108">
        <ele>1815</ele>
        <time>2016-09-05T12:11:40Z</time>
      </trkpt>
      <trkpt lat="45.05995" lon="2.76108">
        <ele>1815</ele>
        <time>2016-09-05T12:11:41Z</time>
      </trkpt>
      <trkpt lat="45.06003" lon="2.76103">
        <ele>1810</ele>
        <time>2016-09-05T12:12:50Z</time>
      </trkpt>
      <trkpt lat="45.06003" lon="2.76103">
        <ele>1810</ele>
        <time>2016-09-05T12:12:51Z</time>
      </trkpt>
      <trkpt lat="45.06012" lon="2.76105">
        <ele>1810</ele>
        <time>2016-09-05T12:13:00Z</time>
      </trkpt>
      <trkpt lat="45.06013" lon="2.76106">
        <ele>1810</ele>
        <time>2016-09-05T12:13:01Z</time>
      </trkpt>
      <trkpt lat="45.06022" lon="2.76106">
        <ele>1810</ele>
        <time>2016-09-05T12:13:09Z</time>
      </trkpt>
      <trkpt lat="45.06023" lon="2.76106">
        <ele>1810</ele>
        <time>2016-09-05T12:13:10Z</time>
      </trkpt>
      <trkpt lat="45.06031" lon="2.76104">
        <ele>1810</ele>
        <time>2016-09-05T12:13:20Z</time>
      </trkpt>
      <trkpt lat="45.06032" lon="2.76104">
        <ele>1810</ele>
        <time>2016-09-05T12:13:21Z</time>
      </trkpt>
      <trkpt lat="45.06041" lon="2.76106">
        <ele>1810</ele>
        <time>2016-09-05T12:13:31Z</time>
      </trkpt>
      <trkpt lat="45.06042" lon="2.76106">
        <ele>1810</ele>
        <time>2016-09-05T12:13:32Z</time>
      </trkpt>
      <trkpt lat="45.0605" lon="2.76105">
        <ele>1809</ele>
        <time>2016-09-05T12:13:42Z</time>
      </trkpt>
      <trkpt lat="45.06051" lon="2.76105">
        <ele>1809</ele>
        <time>2016-09-05T12:13:43Z</time>
      </trkpt>
      <trkpt lat="45.06059" lon="2.76102">
        <ele>1808</ele>
        <time>2016-09-05T12:13:54Z</time>
      </trkpt>
      <trkpt lat="45.0606" lon="2.76102">
        <ele>1808</ele>
        <time>2016-09-05T12:13:55Z</time>
      </trkpt>
      <trkpt lat="45.06069" lon="2.76102">
        <ele>1808</ele>
        <time>2016-09-05T12:14:04Z</time>
      </trkpt>
      <trkpt lat="45.0607" lon="2.76102">
        <ele>1808</ele>
        <time>2016-09-05T12:14:05Z</time>
      </trkpt>
      <trkpt lat="45.06078" lon="2.76101">
        <ele>1807</ele>
        <time>2016-09-05T12:14:13Z</time>
      </trkpt>
      <trkpt lat="45.06079" lon="2.76101">
        <ele>1807</ele>
        <time>2016-09-05T12:14:14Z</time>
      </trkpt>
      <trkpt lat="45.06088" lon="2.76098">
        <ele>1804</ele>
        <time>2016-09-05T12:14:23Z</time>
      </trkpt>
      <trkpt lat="45.06089" lon="2.76098">
        <ele>1804</ele>
        <time>2016-09-05T12:14:24Z</time>
      </trkpt>
      <trkpt lat="45.06097" lon="2.76097">
        <ele>1804</ele>
        <time>2016-09-05T12:14:32Z</time>
      </trkpt>
      <trkpt lat="45.06098" lon="2.76096">
        <ele>1804</ele>
        <time>2016-09-05T12:14:33Z</time>
      </trkpt>
      <trkpt lat="45.06106" lon="2.76092">
        <ele>1804</ele>
        <time>2016-09-05T12:14:43Z</time>
      </trkpt>
      <trkpt lat="45.06107" lon="2.76092">
        <ele>1804</ele>
        <time>2016-09-05T12:14:44Z</time>
      </trkpt>
      <trkpt lat="45.06115" lon="2.76089">
        <ele>1804</ele>
        <time>2016-09-05T12:14:54Z</time>
      </trkpt>
      <trkpt lat="45.06116" lon="2.76089">
        <ele>1804</ele>
        <time>2016-09-05T12:14:55Z</time>
      </trkpt>
      <trkpt lat="45.06124" lon="2.76088">
        <ele>1803</ele>
        <time>2016-09-05T12:15:04Z</time>
      </trkpt>
      <trkpt lat="45.06125" lon="2.76088">
        <ele>1803</ele>
        <time>2016-09-05T12:15:05Z</time>
      </trkpt>
      <trkpt lat="45.06133" lon="2.76085">
        <ele>1803</ele>
        <time>2016-09-05T12:15:13Z</time>
      </trkpt>
      <trkpt lat="45.06134" lon="2.76085">
        <ele>1803</ele>
        <time>2016-09-05T12:15:14Z</time>
      </trkpt>
      <trkpt lat="45.06143" lon="2.76086">
        <ele>1803</ele>
        <time>2016-09-05T12:15:23Z</time>
      </trkpt>
      <trkpt lat="45.06144" lon="2.76087">
        <ele>1803</ele>
        <time>2016-09-05T12:15:24Z</time>
      </trkpt>
      <trkpt lat="45.06153" lon="2.76085">
        <ele>1802</ele>
        <time>2016-09-05T12:15:34Z</time>
      </trkpt>
      <trkpt lat="45.06154" lon="2.76085">
        <ele>1802</ele>
        <time>2016-09-05T12:15:35Z</time>
      </trkpt>
      <trkpt lat="45.06162" lon="2.76084">
        <ele>1801</ele>
        <time>2016-09-05T12:15:44Z</time>
      </trkpt>
      <trkpt lat="45.06163" lon="2.76084">
        <ele>1801</ele>
        <time>2016-09-05T12:15:45Z</time>
      </trkpt>
      <trkpt lat="45.06171" lon="2.76084">
        <ele>1801</ele>
        <time>2016-09-05T12:15:54Z</time>
      </trkpt>
      <trkpt lat="45.06172" lon="2.76084">
        <ele>1801</ele>
        <time>2016-09-05T12:15:55Z</time>
      </trkpt>
      <trkpt lat="45.0618" lon="2.76079">
        <ele>1798</ele>
        <time>2016-09-05T12:16:04Z</time>
      </trkpt>
      <trkpt lat="45.06181" lon="2.76079">
        <ele>1797</ele>
        <time>2016-09-05T12:16:05Z</time>
      </trkpt>
      <trkpt lat="45.06189" lon="2.76083">
        <ele>1797</ele>
        <time>2016-09-05T12:17:03Z</time>
      </trkpt>
      <trkpt lat="45.0619" lon="2.76083">
        <ele>1797</ele>
        <time>2016-09-05T12:17:04Z</time>
      </trkpt>
      <trkpt lat="45.06198" lon="2.7608">
        <ele>1796</ele>
        <time>2016-09-05T12:17:27Z</time>
      </trkpt>
      <trkpt lat="45.06199" lon="2.76079">
        <ele>1796</ele>
        <time>2016-09-05T12:17:28Z</time>
      </trkpt>
      <trkpt lat="45.06207" lon="2.76075">
        <ele>1796</ele>
        <time>2016-09-05T12:17:36Z</time>
      </trkpt>
      <trkpt lat="45.06208" lon="2.76074">
        <ele>1795</ele>
        <time>2016-09-05T12:17:37Z</time>
      </trkpt>
      <trkpt lat="45.06215" lon="2.76067">
        <ele>1795</ele>
        <time>2016-09-05T12:17:46Z</time>
      </trkpt>
      <trkpt lat="45.06216" lon="2.76066">
        <ele>1795</ele>
        <time>2016-09-05T12:17:47Z</time>
      </trkpt>
      <trkpt lat="45.06223" lon="2.7606">
        <ele>1795</ele>
        <time>2016-09-05T12:17:57Z</time>
      </trkpt>
      <trkpt lat="45.06224" lon="2.76059">
        <ele>1795</ele>
        <time>2016-09-05T12:17:58Z</time>
      </trkpt>
      <trkpt lat="45.06232" lon="2.76055">
        <ele>1795</ele>
        <time>2016-09-05T12:18:09Z</time>
      </trkpt>
      <trkpt lat="45.06233" lon="2.76055">
        <ele>1795</ele>
        <time>2016-09-05T12:18:10Z</time>
      </trkpt>
      <trkpt lat="45.06241" lon="2.7605">
        <ele>1795</ele>
        <time>2016-09-05T12:18:18Z</time>
      </trkpt>
      <trkpt lat="45.06242" lon="2.7605">
        <ele>1795</ele>
        <time>2016-09-05T12:18:19Z</time>
      </trkpt>
      <trkpt lat="45.0625" lon="2.76047">
        <ele>1794</ele>
        <time>2016-09-05T12:18:27Z</time>
      </trkpt>
      <trkpt lat="45.06251" lon="2.76047">
        <ele>1794</ele>
        <time>2016-09-05T12:18:28Z</time>
      </trkpt>
      <trkpt lat="45.0626" lon="2.76044">
        <ele>1794</ele>
        <time>2016-09-05T12:18:37Z</time>
      </trkpt>
      <trkpt lat="45.06261" lon="2.76044">
        <ele>1794</ele>
        <time>2016-09-05T12:18:38Z</time>
      </trkpt>
      <trkpt lat="45.06269" lon="2.76046">
        <ele>1794</ele>
        <time>2016-09-05T12:18:47Z</time>
      </trkpt>
      <trkpt lat="45.0627" lon="2.76046">
        <ele>1794</ele>
        <time>2016-09-05T12:18:48Z</time>
      </trkpt>
      <trkpt lat="45.06278" lon="2.76051">
        <ele>1794</ele>
        <time>2016-09-05T12:18:58Z</time>
      </trkpt>
      <trkpt lat="45.06279" lon="2.76051">
        <ele>1794</ele>
        <time>2016-09-05T12:18:59Z</time>
      </trkpt>
      <trkpt lat="45.06287" lon="2.76051">
        <ele>1794</ele>
        <time>2016-09-05T12:19:12Z</time>
      </trkpt>
      <trkpt lat="45.06288" lon="2.76051">
        <ele>1794</ele>
        <time>2016-09-05T12:19:13Z</time>
      </trkpt>
      <trkpt lat="45.06294" lon="2.7606">
        <ele>1794</ele>
        <time>2016-09-05T12:19:28Z</time>
      </trkpt>
      <trkpt lat="45.06294" lon="2.76061">
        <ele>1794</ele>
        <time>2016-09-05T12:19:29Z</time>
      </trkpt>
      <trkpt lat="45.06294" lon="2.76073">
        <ele>1795</ele>
        <time>2016-09-05T12:19:39Z</time>
      </trkpt>
      <trkpt lat="45.06294" lon="2.76074">
        <ele>1795</ele>
        <time>2016-09-05T12:19:40Z</time>
      </trkpt>
      <trkpt lat="45.06294" lon="2.76087">
        <ele>1795</ele>
        <time>2016-09-05T12:19:51Z</time>
      </trkpt>
      <trkpt lat="45.06294" lon="2.76088">
        <ele>1795</ele>
        <time>2016-09-05T12:19:52Z</time>
      </trkpt>
      <trkpt lat="45.06297" lon="2.76099">
        <ele>1795</ele>
        <time>2016-09-05T12:20:07Z</time>
      </trkpt>
      <trkpt lat="45.06298" lon="2.761">
        <ele>1795</ele>
        <time>2016-09-05T12:20:08Z</time>
      </trkpt>
      <trkpt lat="45.06306" lon="2.76103">
        <ele>1795</ele>
        <time>2016-09-05T12:20:32Z</time>
      </trkpt>
      <trkpt lat="45.06307" lon="2.76103">
        <ele>1795</ele>
        <time>2016-09-05T12:20:33Z</time>
      </trkpt>
      <trkpt lat="45.06315" lon="2.76107">
        <ele>1795</ele>
        <time>2016-09-05T12:20:45Z</time>
      </trkpt>
      <trkpt lat="45.06316" lon="2.76107">
        <ele>1795</ele>
        <time>2016-09-05T12:20:46Z</time>
      </trkpt>
      <trkpt lat="45.06307" lon="2.76108">
        <ele>1795</ele>
        <time>2016-09-05T12:21:43Z</time>
      </trkpt>
      <trkpt lat="45.06306" lon="2.76107">
        <ele>1795</ele>
        <time>2016-09-05T12:21:44Z</time>
      </trkpt>
      <trkpt lat="45.06301" lon="2.76098">
        <ele>1795</ele>
        <time>2016-09-05T12:21:53Z</time>
      </trkpt>
      <trkpt lat="45.063" lon="2.76096">
        <ele>1795</ele>
        <time>2016-09-05T12:21:54Z</time>
      </trkpt>
      <trkpt lat="45.06296" lon="2.76086">
        <ele>1795</ele>
        <time>2016-09-05T12:22:03Z</time>
      </trkpt>
      <trkpt lat="45.06295" lon="2.76085">
        <ele>1795</ele>
        <time>2016-09-05T12:22:04Z</time>
      </trkpt>
      <trkpt lat="45.06295" lon="2.76072">
        <ele>1795</ele>
        <time>2016-09-05T12:22:13Z</time>
      </trkpt>
      <trkpt lat="45.06295" lon="2.76071">
        <ele>1794</ele>
        <time>2016-09-05T12:22:14Z</time>
      </trkpt>
      <trkpt lat="45.06293" lon="2.7606">
        <ele>1794</ele>
        <time>2016-09-05T12:22:23Z</time>
      </trkpt>
      <trkpt lat="45.06292" lon="2.76059">
        <ele>1794</ele>
        <time>2016-09-05T12:22:24Z</time>
      </trkpt>
      <trkpt lat="45.06287" lon="2.76049">
        <ele>1794</ele>
        <time>2016-09-05T12:22:37Z</time>
      </trkpt>
      <trkpt lat="45.06286" lon="2.76049">
        <ele>1794</ele>
        <time>2016-09-05T12:22:38Z</time>
      </trkpt>
      <trkpt lat="45.06292" lon="2.76057">
        <ele>1794</ele>
        <time>2016-09-05T12:23:21Z</time>
      </trkpt>
      <trkpt lat="45.06292" lon="2.76059">
        <ele>1794</ele>
        <time>2016-09-05T12:23:22Z</time>
      </trkpt>
      <trkpt lat="45.06292" lon="2.76071">
        <ele>1795</ele>
        <time>2016-09-05T12:23:32Z</time>
      </trkpt>
      <trkpt lat="45.06292" lon="2.76072">
        <ele>1795</ele>
        <time>2016-09-05T12:23:33Z</time>
      </trkpt>
      <trkpt lat="45.06294" lon="2.76083">
        <ele>1795</ele>
        <time>2016-09-05T12:23:43Z</time>
      </trkpt>
      <trkpt lat="45.06294" lon="2.76084">
        <ele>1795</ele>
        <time>2016-09-05T12:23:44Z</time>
      </trkpt>
      <trkpt lat="45.06297" lon="2.76096">
        <ele>1795</ele>
        <time>2016-09-05T12:23:57Z</time>
      </trkpt>
      <trkpt lat="45.06297" lon="2.76097">
        <ele>1795</ele>
        <time>2016-09-05T12:23:58Z</time>
      </trkpt>
      <trkpt lat="45.06302" lon="2.76108">
        <ele>1795</ele>
        <time>2016-09-05T12:24:10Z</time>
      </trkpt>
      <trkpt lat="45.06302" lon="2.76108">
        <ele>1795</ele>
        <time>2016-09-05T12:24:11Z</time>
      </trkpt>
      <trkpt lat="45.06311" lon="2.7611">
        <ele>1795</ele>
        <time>2016-09-05T12:24:20Z</time>
      </trkpt>
      <trkpt lat="45.06312" lon="2.7611">
        <ele>1795</ele>
        <time>2016-09-05T12:24:21Z</time>
      </trkpt>
      <trkpt lat="45.0632" lon="2.76111">
        <ele>1795</ele>
        <time>2016-09-05T12:24:30Z</time>
      </trkpt>
      <trkpt lat="45.06321" lon="2.76112">
        <ele>1795</ele>
        <time>2016-09-05T12:24:31Z</time>
      </trkpt>
      <trkpt lat="45.06327" lon="2.7612">
        <ele>1794</ele>
        <time>2016-09-05T12:25:31Z</time>
      </trkpt>
      <trkpt lat="45.06328" lon="2.76121">
        <ele>1794</ele>
        <time>2016-09-05T12:25:32Z</time>
      </trkpt>
      <trkpt lat="45.06334" lon="2.76128">
        <ele>1787</ele>
        <time>2016-09-05T12:25:42Z</time>
      </trkpt>
      <trkpt lat="45.06335" lon="2.76128">
        <ele>1787</ele>
        <time>2016-09-05T12:25:43Z</time>
      </trkpt>
      <trkpt lat="45.06341" lon="2.76137">
        <ele>1787</ele>
        <time>2016-09-05T12:25:51Z</time>
      </trkpt>
      <trkpt lat="45.06342" lon="2.76137">
        <ele>1787</ele>
        <time>2016-09-05T12:25:52Z</time>
      </trkpt>
      <trkpt lat="45.06347" lon="2.76147">
        <ele>1787</ele>
        <time>2016-09-05T12:26:01Z</time>
      </trkpt>
      <trkpt lat="45.06347" lon="2.76148">
        <ele>1787</ele>
        <time>2016-09-05T12:26:02Z</time>
      </trkpt>
      <trkpt lat="45.06354" lon="2.76156">
        <ele>1786</ele>
        <time>2016-09-05T12:26:10Z</time>
      </trkpt>
      <trkpt lat="45.06354" lon="2.76157">
        <ele>1786</ele>
        <time>2016-09-05T12:26:11Z</time>
      </trkpt>
      <trkpt lat="45.06359" lon="2.76167">
        <ele>1784</ele>
        <time>2016-09-05T12:26:21Z</time>
      </trkpt>
      <trkpt lat="45.0636" lon="2.76168">
        <ele>1784</ele>
        <time>2016-09-05T12:26:22Z</time>
      </trkpt>
      <trkpt lat="45.06363" lon="2.76179">
        <ele>1783</ele>
        <time>2016-09-05T12:26:30Z</time>
      </trkpt>
      <trkpt lat="45.06363" lon="2.7618">
        <ele>1783</ele>
        <time>2016-09-05T12:26:31Z</time>
      </trkpt>
      <trkpt lat="45.06365" lon="2.76191">
        <ele>1783</ele>
        <time>2016-09-05T12:26:38Z</time>
      </trkpt>
      <trkpt lat="45.06365" lon="2.76193">
        <ele>1782</ele>
        <time>2016-09-05T12:26:39Z</time>
      </trkpt>
      <trkpt lat="45.06369" lon="2.76203">
        <ele>1782</ele>
        <time>2016-09-05T12:26:47Z</time>
      </trkpt>
      <trkpt lat="45.06369" lon="2.76204">
        <ele>1782</ele>
        <time>2016-09-05T12:26:48Z</time>
      </trkpt>
      <trkpt lat="45.06374" lon="2.76215">
        <ele>1781</ele>
        <time>2016-09-05T12:26:59Z</time>
      </trkpt>
      <trkpt lat="45.06374" lon="2.76216">
        <ele>1781</ele>
        <time>2016-09-05T12:27:00Z</time>
      </trkpt>
      <trkpt lat="45.0638" lon="2.76225">
        <ele>1780</ele>
        <time>2016-09-05T12:27:13Z</time>
      </trkpt>
      <trkpt lat="45.06381" lon="2.76226">
        <ele>1780</ele>
        <time>2016-09-05T12:27:14Z</time>
      </trkpt>
      <trkpt lat="45.06387" lon="2.76235">
        <ele>1780</ele>
        <time>2016-09-05T12:27:27Z</time>
      </trkpt>
      <trkpt lat="45.06388" lon="2.76235">
        <ele>1780</ele>
        <time>2016-09-05T12:27:28Z</time>
      </trkpt>
      <trkpt lat="45.0639" lon="2.76247">
        <ele>1779</ele>
        <time>2016-09-05T12:27:40Z</time>
      </trkpt>
      <trkpt lat="45.0639" lon="2.76248">
        <ele>1779</ele>
        <time>2016-09-05T12:27:41Z</time>
      </trkpt>
      <trkpt lat="45.06386" lon="2.76259">
        <ele>1774</ele>
        <time>2016-09-05T12:27:53Z</time>
      </trkpt>
      <trkpt lat="45.06386" lon="2.76261">
        <ele>1774</ele>
        <time>2016-09-05T12:27:54Z</time>
      </trkpt>
      <trkpt lat="45.06386" lon="2.76272">
        <ele>1773</ele>
        <time>2016-09-05T12:28:05Z</time>
      </trkpt>
      <trkpt lat="45.06386" lon="2.76273">
        <ele>1773</ele>
        <time>2016-09-05T12:28:06Z</time>
      </trkpt>
      <trkpt lat="45.06381" lon="2.76284">
        <ele>1773</ele>
        <time>2016-09-05T12:28:21Z</time>
      </trkpt>
      <trkpt lat="45.06381" lon="2.76285">
        <ele>1773</ele>
        <time>2016-09-05T12:28:22Z</time>
      </trkpt>
      <trkpt lat="45.06386" lon="2.76294">
        <ele>1772</ele>
        <time>2016-09-05T12:28:41Z</time>
      </trkpt>
      <trkpt lat="45.06387" lon="2.76295">
        <ele>1772</ele>
        <time>2016-09-05T12:28:42Z</time>
      </trkpt>
      <trkpt lat="45.06393" lon="2.76304">
        <ele>1771</ele>
        <time>2016-09-05T12:28:51Z</time>
      </trkpt>
      <trkpt lat="45.06394" lon="2.76305">
        <ele>1771</ele>
        <time>2016-09-05T12:28:52Z</time>
      </trkpt>
      <trkpt lat="45.064" lon="2.76312">
        <ele>1770</ele>
        <time>2016-09-05T12:29:22Z</time>
      </trkpt>
      <trkpt lat="45.064" lon="2.76314">
        <ele>1770</ele>
        <time>2016-09-05T12:29:23Z</time>
      </trkpt>
      <trkpt lat="45.06408" lon="2.7632">
        <ele>1769</ele>
        <time>2016-09-05T12:29:31Z</time>
      </trkpt>
      <trkpt lat="45.06409" lon="2.76321">
        <ele>1769</ele>
        <time>2016-09-05T12:29:32Z</time>
      </trkpt>
      <trkpt lat="45.06415" lon="2.7633">
        <ele>1768</ele>
        <time>2016-09-05T12:29:40Z</time>
      </trkpt>
      <trkpt lat="45.06416" lon="2.76331">
        <ele>1768</ele>
        <time>2016-09-05T12:29:41Z</time>
      </trkpt>
      <trkpt lat="45.06423" lon="2.76338">
        <ele>1766</ele>
        <time>2016-09-05T12:29:51Z</time>
      </trkpt>
      <trkpt lat="45.06424" lon="2.76338">
        <ele>1766</ele>
        <time>2016-09-05T12:29:52Z</time>
      </trkpt>
      <trkpt lat="45.0643" lon="2.76346">
        <ele>1765</ele>
        <time>2016-09-05T12:30:01Z</time>
      </trkpt>
      <trkpt lat="45.06431" lon="2.76347">
        <ele>1765</ele>
        <time>2016-09-05T12:30:02Z</time>
      </trkpt>
      <trkpt lat="45.06437" lon="2.76356">
        <ele>1764</ele>
        <time>2016-09-05T12:30:10Z</time>
      </trkpt>
      <trkpt lat="45.06437" lon="2.76357">
        <ele>1764</ele>
        <time>2016-09-05T12:30:11Z</time>
      </trkpt>
      <trkpt lat="45.06444" lon="2.76364">
        <ele>1764</ele>
        <time>2016-09-05T12:30:19Z</time>
      </trkpt>
      <trkpt lat="45.06444" lon="2.76365">
        <ele>1764</ele>
        <time>2016-09-05T12:30:20Z</time>
      </trkpt>
      <trkpt lat="45.06451" lon="2.76372">
        <ele>1763</ele>
        <time>2016-09-05T12:30:29Z</time>
      </trkpt>
      <trkpt lat="45.06451" lon="2.76373">
        <ele>1763</ele>
        <time>2016-09-05T12:30:30Z</time>
      </trkpt>
      <trkpt lat="45.06458" lon="2.76381">
        <ele>1763</ele>
        <time>2016-09-05T12:30:39Z</time>
      </trkpt>
      <trkpt lat="45.06458" lon="2.76382">
        <ele>1763</ele>
        <time>2016-09-05T12:30:40Z</time>
      </trkpt>
      <trkpt lat="45.06464" lon="2.7639">
        <ele>1763</ele>
        <time>2016-09-05T12:30:48Z</time>
      </trkpt>
      <trkpt lat="45.06465" lon="2.76391">
        <ele>1763</ele>
        <time>2016-09-05T12:30:49Z</time>
      </trkpt>
      <trkpt lat="45.06471" lon="2.764">
        <ele>1763</ele>
        <time>2016-09-05T12:30:59Z</time>
      </trkpt>
      <trkpt lat="45.06471" lon="2.76401">
        <ele>1763</ele>
        <time>2016-09-05T12:31:00Z</time>
      </trkpt>
      <trkpt lat="45.06477" lon="2.76409">
        <ele>1763</ele>
        <time>2016-09-05T12:31:09Z</time>
      </trkpt>
      <trkpt lat="45.06478" lon="2.76409">
        <ele>1763</ele>
        <time>2016-09-05T12:31:10Z</time>
      </trkpt>
      <trkpt lat="45.06484" lon="2.76419">
        <ele>1756</ele>
        <time>2016-09-05T12:31:19Z</time>
      </trkpt>
      <trkpt lat="45.06484" lon="2.7642">
        <ele>1756</ele>
        <time>2016-09-05T12:31:20Z</time>
      </trkpt>
      <trkpt lat="45.06489" lon="2.76429">
        <ele>1756</ele>
        <time>2016-09-05T12:31:27Z</time>
      </trkpt>
      <trkpt lat="45.06489" lon="2.7643">
        <ele>1756</ele>
        <time>2016-09-05T12:31:28Z</time>
      </trkpt>
      <trkpt lat="45.06496" lon="2.76438">
        <ele>1754</ele>
        <time>2016-09-05T12:31:36Z</time>
      </trkpt>
      <trkpt lat="45.06496" lon="2.76439">
        <ele>1754</ele>
        <time>2016-09-05T12:31:37Z</time>
      </trkpt>
      <trkpt lat="45.06502" lon="2.76448">
        <ele>1760</ele>
        <time>2016-09-05T12:31:45Z</time>
      </trkpt>
      <trkpt lat="45.06502" lon="2.76449">
        <ele>1760</ele>
        <time>2016-09-05T12:31:46Z</time>
      </trkpt>
      <trkpt lat="45.06507" lon="2.76458">
        <ele>1758</ele>
        <time>2016-09-05T12:31:54Z</time>
      </trkpt>
      <trkpt lat="45.06508" lon="2.76459">
        <ele>1758</ele>
        <time>2016-09-05T12:31:55Z</time>
      </trkpt>
      <trkpt lat="45.06514" lon="2.76468">
        <ele>1757</ele>
        <time>2016-09-05T12:32:03Z</time>
      </trkpt>
      <trkpt lat="45.06515" lon="2.76469">
        <ele>1757</ele>
        <time>2016-09-05T12:32:04Z</time>
      </trkpt>
      <trkpt lat="45.06521" lon="2.76478">
        <ele>1756</ele>
        <time>2016-09-05T12:32:13Z</time>
      </trkpt>
      <trkpt lat="45.06521" lon="2.7648">
        <ele>1756</ele>
        <time>2016-09-05T12:32:14Z</time>
      </trkpt>
      <trkpt lat="45.06527" lon="2.76489">
        <ele>1756</ele>
        <time>2016-09-05T12:33:06Z</time>
      </trkpt>
      <trkpt lat="45.06527" lon="2.7649">
        <ele>1756</ele>
        <time>2016-09-05T12:33:07Z</time>
      </trkpt>
      <trkpt lat="45.0653" lon="2.765">
        <ele>1747</ele>
        <time>2016-09-05T12:33:15Z</time>
      </trkpt>
      <trkpt lat="45.06531" lon="2.76502">
        <ele>1747</ele>
        <time>2016-09-05T12:33:16Z</time>
      </trkpt>
      <trkpt lat="45.06535" lon="2.76511">
        <ele>1747</ele>
        <time>2016-09-05T12:33:23Z</time>
      </trkpt>
      <trkpt lat="45.06536" lon="2.76513">
        <ele>1747</ele>
        <time>2016-09-05T12:33:24Z</time>
      </trkpt>
      <trkpt lat="45.06541" lon="2.76521">
        <ele>1747</ele>
        <time>2016-09-05T12:33:32Z</time>
      </trkpt>
      <trkpt lat="45.06542" lon="2.76522">
        <ele>1747</ele>
        <time>2016-09-05T12:33:33Z</time>
      </trkpt>
      <trkpt lat="45.06546" lon="2.76532">
        <ele>1746</ele>
        <time>2016-09-05T12:33:42Z</time>
      </trkpt>
      <trkpt lat="45.06546" lon="2.76534">
        <ele>1746</ele>
        <time>2016-09-05T12:33:43Z</time>
      </trkpt>
      <trkpt lat="45.0655" lon="2.76545">
        <ele>1746</ele>
        <time>2016-09-05T12:33:52Z</time>
      </trkpt>
      <trkpt lat="45.06551" lon="2.76546">
        <ele>1746</ele>
        <time>2016-09-05T12:33:53Z</time>
      </trkpt>
      <trkpt lat="45.06556" lon="2.76556">
        <ele>1745</ele>
        <time>2016-09-05T12:34:01Z</time>
      </trkpt>
      <trkpt lat="45.06556" lon="2.76557">
        <ele>1745</ele>
        <time>2016-09-05T12:34:02Z</time>
      </trkpt>
      <trkpt lat="45.06561" lon="2.76567">
        <ele>1745</ele>
        <time>2016-09-05T12:34:10Z</time>
      </trkpt>
      <trkpt lat="45.06562" lon="2.76568">
        <ele>1745</ele>
        <time>2016-09-05T12:34:11Z</time>
      </trkpt>
      <trkpt lat="45.06567" lon="2.76578">
        <ele>1746</ele>
        <time>2016-09-05T12:34:20Z</time>
      </trkpt>
      <trkpt lat="45.06568" lon="2.76579">
        <ele>1746</ele>
        <time>2016-09-05T12:34:21Z</time>
      </trkpt>
      <trkpt lat="45.06572" lon="2.7659">
        <ele>1740</ele>
        <time>2016-09-05T12:34:31Z</time>
      </trkpt>
      <trkpt lat="45.06573" lon="2.7659">
        <ele>1740</ele>
        <time>2016-09-05T12:34:32Z</time>
      </trkpt>
      <trkpt lat="45.06577" lon="2.766">
        <ele>1738</ele>
        <time>2016-09-05T12:34:41Z</time>
      </trkpt>
      <trkpt lat="45.06578" lon="2.76601">
        <ele>1738</ele>
        <time>2016-09-05T12:34:42Z</time>
      </trkpt>
      <trkpt lat="45.06583" lon="2.7661">
        <ele>1736</ele>
        <time>2016-09-05T12:34:51Z</time>
      </trkpt>
      <trkpt lat="45.06584" lon="2.76611">
        <ele>1745</ele>
        <time>2016-09-05T12:34:52Z</time>
      </trkpt>
      <trkpt lat="45.06588" lon="2.76621">
        <ele>1744</ele>
        <time>2016-09-05T12:35:00Z</time>
      </trkpt>
      <trkpt lat="45.06589" lon="2.76623">
        <ele>1744</ele>
        <time>2016-09-05T12:35:01Z</time>
      </trkpt>
      <trkpt lat="45.06589" lon="2.76634">
        <ele>1742</ele>
        <time>2016-09-05T12:35:38Z</time>
      </trkpt>
      <trkpt lat="45.06589" lon="2.76636">
        <ele>1742</ele>
        <time>2016-09-05T12:35:39Z</time>
      </trkpt>
      <trkpt lat="45.06593" lon="2.76647">
        <ele>1740</ele>
        <time>2016-09-05T12:35:49Z</time>
      </trkpt>
      <trkpt lat="45.06594" lon="2.76648">
        <ele>1740</ele>
        <time>2016-09-05T12:35:50Z</time>
      </trkpt>
      <trkpt lat="45.06597" lon="2.76658">
        <ele>1739</ele>
        <time>2016-09-05T12:35:57Z</time>
      </trkpt>
      <trkpt lat="45.06598" lon="2.76659">
        <ele>1739</ele>
        <time>2016-09-05T12:35:58Z</time>
      </trkpt>
      <trkpt lat="45.06601" lon="2.7667">
        <ele>1735</ele>
        <time>2016-09-05T12:36:07Z</time>
      </trkpt>
      <trkpt lat="45.06601" lon="2.76672">
        <ele>1735</ele>
        <time>2016-09-05T12:36:08Z</time>
      </trkpt>
      <trkpt lat="45.06601" lon="2.76684">
        <ele>1736</ele>
        <time>2016-09-05T12:36:17Z</time>
      </trkpt>
      <trkpt lat="45.06602" lon="2.76685">
        <ele>1736</ele>
        <time>2016-09-05T12:36:18Z</time>
      </trkpt>
      <trkpt lat="45.06603" lon="2.76696">
        <ele>1736</ele>
        <time>2016-09-05T12:36:25Z</time>
      </trkpt>
      <trkpt lat="45.06604" lon="2.76698">
        <ele>1736</ele>
        <time>2016-09-05T12:36:26Z</time>
      </trkpt>
      <trkpt lat="45.06608" lon="2.76708">
        <ele>1736</ele>
        <time>2016-09-05T12:36:33Z</time>
      </trkpt>
      <trkpt lat="45.06607" lon="2.7671">
        <ele>1736</ele>
        <time>2016-09-05T12:36:34Z</time>
      </trkpt>
      <trkpt lat="45.06611" lon="2.76721">
        <ele>1735</ele>
        <time>2016-09-05T12:36:44Z</time>
      </trkpt>
      <trkpt lat="45.06611" lon="2.76723">
        <ele>1735</ele>
        <time>2016-09-05T12:36:45Z</time>
      </trkpt>
      <trkpt lat="45.06615" lon="2.76733">
        <ele>1735</ele>
        <time>2016-09-05T12:36:56Z</time>
      </trkpt>
      <trkpt lat="45.06615" lon="2.76735">
        <ele>1735</ele>
        <time>2016-09-05T12:36:57Z</time>
      </trkpt>
      <trkpt lat="45.06614" lon="2.76746">
        <ele>1734</ele>
        <time>2016-09-05T12:37:06Z</time>
      </trkpt>
      <trkpt lat="45.06614" lon="2.76747">
        <ele>1734</ele>
        <time>2016-09-05T12:37:07Z</time>
      </trkpt>
      <trkpt lat="45.06616" lon="2.76759">
        <ele>1730</ele>
        <time>2016-09-05T12:37:15Z</time>
      </trkpt>
      <trkpt lat="45.06616" lon="2.76761">
        <ele>1730</ele>
        <time>2016-09-05T12:37:16Z</time>
      </trkpt>
      <trkpt lat="45.06615" lon="2.76773">
        <ele>1730</ele>
        <time>2016-09-05T12:37:25Z</time>
      </trkpt>
      <trkpt lat="45.06615" lon="2.76775">
        <ele>1730</ele>
        <time>2016-09-05T12:37:26Z</time>
      </trkpt>
      <trkpt lat="45.06613" lon="2.76787">
        <ele>1729</ele>
        <time>2016-09-05T12:37:36Z</time>
      </trkpt>
      <trkpt lat="45.06613" lon="2.76788">
        <ele>1729</ele>
        <time>2016-09-05T12:37:37Z</time>
      </trkpt>
      <trkpt lat="45.06613" lon="2.76801">
        <ele>1728</ele>
        <time>2016-09-05T12:37:47Z</time>
      </trkpt>
      <trkpt lat="45.06613" lon="2.76802">
        <ele>1728</ele>
        <time>2016-09-05T12:37:48Z</time>
      </trkpt>
      <trkpt lat="45.06613" lon="2.76814">
        <ele>1727</ele>
        <time>2016-09-05T12:37:57Z</time>
      </trkpt>
      <trkpt lat="45.06613" lon="2.76816">
        <ele>1727</ele>
        <time>2016-09-05T12:37:58Z</time>
      </trkpt>
      <trkpt lat="45.06611" lon="2.76828">
        <ele>1725</ele>
        <time>2016-09-05T12:38:14Z</time>
      </trkpt>
      <trkpt lat="45.06612" lon="2.76829">
        <ele>1725</ele>
        <time>2016-09-05T12:38:15Z</time>
      </trkpt>
      <trkpt lat="45.06611" lon="2.76842">
        <ele>1721</ele>
        <time>2016-09-05T12:38:26Z</time>
      </trkpt>
      <trkpt lat="45.06611" lon="2.76843">
        <ele>1721</ele>
        <time>2016-09-05T12:38:27Z</time>
      </trkpt>
      <trkpt lat="45.06611" lon="2.76854">
        <ele>1721</ele>
        <time>2016-09-05T12:38:35Z</time>
      </trkpt>
      <trkpt lat="45.06611" lon="2.76856">
        <ele>1721</ele>
        <time>2016-09-05T12:38:36Z</time>
      </trkpt>
      <trkpt lat="45.06614" lon="2.76867">
        <ele>1721</ele>
        <time>2016-09-05T12:38:43Z</time>
      </trkpt>
      <trkpt lat="45.06614" lon="2.76869">
        <ele>1721</ele>
        <time>2016-09-05T12:38:44Z</time>
      </trkpt>
      <trkpt lat="45.06615" lon="2.76881">
        <ele>1721</ele>
        <time>2016-09-05T12:38:51Z</time>
      </trkpt>
      <trkpt lat="45.06615" lon="2.76882">
        <ele>1721</ele>
        <time>2016-09-05T12:38:52Z</time>
      </trkpt>
      <trkpt lat="45.06614" lon="2.76894">
        <ele>1720</ele>
        <time>2016-09-05T12:39:00Z</time>
      </trkpt>
      <trkpt lat="45.06614" lon="2.76896">
        <ele>1720</ele>
        <time>2016-09-05T12:39:01Z</time>
      </trkpt>
      <trkpt lat="45.06615" lon="2.76908">
        <ele>1719</ele>
        <time>2016-09-05T12:39:08Z</time>
      </trkpt>
      <trkpt lat="45.06615" lon="2.7691">
        <ele>1719</ele>
        <time>2016-09-05T12:39:09Z</time>
      </trkpt>
      <trkpt lat="45.06614" lon="2.76922">
        <ele>1714</ele>
        <time>2016-09-05T12:39:18Z</time>
      </trkpt>
      <trkpt lat="45.06614" lon="2.76923">
        <ele>1714</ele>
        <time>2016-09-05T12:39:19Z</time>
      </trkpt>
      <trkpt lat="45.06611" lon="2.76935">
        <ele>1713</ele>
        <time>2016-09-05T12:39:28Z</time>
      </trkpt>
      <trkpt lat="45.06611" lon="2.76936">
        <ele>1713</ele>
        <time>2016-09-05T12:39:29Z</time>
      </trkpt>
      <trkpt lat="45.06609" lon="2.76949">
        <ele>1713</ele>
        <time>2016-09-05T12:39:38Z</time>
      </trkpt>
      <trkpt lat="45.06609" lon="2.7695">
        <ele>1713</ele>
        <time>2016-09-05T12:39:39Z</time>
      </trkpt>
      <trkpt lat="45.06608" lon="2.76962">
        <ele>1712</ele>
        <time>2016-09-05T12:39:47Z</time>
      </trkpt>
      <trkpt lat="45.06608" lon="2.76963">
        <ele>1712</ele>
        <time>2016-09-05T12:39:48Z</time>
      </trkpt>
      <trkpt lat="45.06607" lon="2.76975">
        <ele>1711</ele>
        <time>2016-09-05T12:39:57Z</time>
      </trkpt>
      <trkpt lat="45.06606" lon="2.76977">
        <ele>1710</ele>
        <time>2016-09-05T12:39:58Z</time>
      </trkpt>
      <trkpt lat="45.06605" lon="2.76989">
        <ele>1708</ele>
        <time>2016-09-05T12:40:06Z</time>
      </trkpt>
      <trkpt lat="45.06605" lon="2.7699">
        <ele>1708</ele>
        <time>2016-09-05T12:40:07Z</time>
      </trkpt>
      <trkpt lat="45.06604" lon="2.77002">
        <ele>1705</ele>
        <time>2016-09-05T12:40:15Z</time>
      </trkpt>
      <trkpt lat="45.06603" lon="2.77003">
        <ele>1705</ele>
        <time>2016-09-05T12:40:16Z</time>
      </trkpt>
      <trkpt lat="45.06602" lon="2.77015">
        <ele>1705</ele>
        <time>2016-09-05T12:40:25Z</time>
      </trkpt>
      <trkpt lat="45.06602" lon="2.77017">
        <ele>1705</ele>
        <time>2016-09-05T12:40:26Z</time>
      </trkpt>
      <trkpt lat="45.066" lon="2.77029">
        <ele>1706</ele>
        <time>2016-09-05T12:40:35Z</time>
      </trkpt>
      <trkpt lat="45.066" lon="2.7703">
        <ele>1706</ele>
        <time>2016-09-05T12:40:36Z</time>
      </trkpt>
      <trkpt lat="45.06597" lon="2.77041">
        <ele>1706</ele>
        <time>2016-09-05T12:40:44Z</time>
      </trkpt>
      <trkpt lat="45.06597" lon="2.77042">
        <ele>1706</ele>
        <time>2016-09-05T12:40:45Z</time>
      </trkpt>
      <trkpt lat="45.06596" lon="2.77054">
        <ele>1705</ele>
        <time>2016-09-05T12:40:53Z</time>
      </trkpt>
      <trkpt lat="45.06596" lon="2.77055">
        <ele>1705</ele>
        <time>2016-09-05T12:40:54Z</time>
      </trkpt>
      <trkpt lat="45.06594" lon="2.77067">
        <ele>1703</ele>
        <time>2016-09-05T12:41:02Z</time>
      </trkpt>
      <trkpt lat="45.06593" lon="2.77068">
        <ele>1702</ele>
        <time>2016-09-05T12:41:03Z</time>
      </trkpt>
      <trkpt lat="45.0659" lon="2.77079">
        <ele>1698</ele>
        <time>2016-09-05T12:41:11Z</time>
      </trkpt>
      <trkpt lat="45.06589" lon="2.77081">
        <ele>1698</ele>
        <time>2016-09-05T12:41:12Z</time>
      </trkpt>
      <trkpt lat="45.06584" lon="2.77091">
        <ele>1697</ele>
        <time>2016-09-05T12:41:21Z</time>
      </trkpt>
      <trkpt lat="45.06584" lon="2.77092">
        <ele>1698</ele>
        <time>2016-09-05T12:41:22Z</time>
      </trkpt>
      <trkpt lat="45.06579" lon="2.77102">
        <ele>1686</ele>
        <time>2016-09-05T12:41:35Z</time>
      </trkpt>
      <trkpt lat="45.06578" lon="2.77103">
        <ele>1686</ele>
        <time>2016-09-05T12:41:36Z</time>
      </trkpt>
      <trkpt lat="45.06573" lon="2.77113">
        <ele>1684</ele>
        <time>2016-09-05T12:41:44Z</time>
      </trkpt>
      <trkpt lat="45.06573" lon="2.77115">
        <ele>1684</ele>
        <time>2016-09-05T12:41:45Z</time>
      </trkpt>
      <trkpt lat="45.06571" lon="2.77126">
        <ele>1683</ele>
        <time>2016-09-05T12:41:53Z</time>
      </trkpt>
      <trkpt lat="45.0657" lon="2.77127">
        <ele>1683</ele>
        <time>2016-09-05T12:41:54Z</time>
      </trkpt>
      <trkpt lat="45.06568" lon="2.77139">
        <ele>1683</ele>
        <time>2016-09-05T12:42:03Z</time>
      </trkpt>
      <trkpt lat="45.06567" lon="2.77141">
        <ele>1683</ele>
        <time>2016-09-05T12:42:04Z</time>
      </trkpt>
      <trkpt lat="45.06567" lon="2.77152">
        <ele>1683</ele>
        <time>2016-09-05T12:42:13Z</time>
      </trkpt>
      <trkpt lat="45.06567" lon="2.77154">
        <ele>1683</ele>
        <time>2016-09-05T12:42:14Z</time>
      </trkpt>
      <trkpt lat="45.06564" lon="2.77165">
        <ele>1683</ele>
        <time>2016-09-05T12:42:22Z</time>
      </trkpt>
      <trkpt lat="45.06564" lon="2.77167">
        <ele>1683</ele>
        <time>2016-09-05T12:42:23Z</time>
      </trkpt>
      <trkpt lat="45.06565" lon="2.77179">
        <ele>1682</ele>
        <time>2016-09-05T12:42:31Z</time>
      </trkpt>
      <trkpt lat="45.06565" lon="2.77181">
        <ele>1682</ele>
        <time>2016-09-05T12:42:32Z</time>
      </trkpt>
      <trkpt lat="45.06563" lon="2.77193">
        <ele>1681</ele>
        <time>2016-09-05T12:42:40Z</time>
      </trkpt>
      <trkpt lat="45.06563" lon="2.77194">
        <ele>1681</ele>
        <time>2016-09-05T12:42:41Z</time>
      </trkpt>
      <trkpt lat="45.06561" lon="2.77206">
        <ele>1680</ele>
        <time>2016-09-05T12:42:50Z</time>
      </trkpt>
      <trkpt lat="45.06561" lon="2.77208">
        <ele>1680</ele>
        <time>2016-09-05T12:42:51Z</time>
      </trkpt>
      <trkpt lat="45.06561" lon="2.77219">
        <ele>1680</ele>
        <time>2016-09-05T12:42:58Z</time>
      </trkpt>
      <trkpt lat="45.06561" lon="2.77221">
        <ele>1680</ele>
        <time>2016-09-05T12:42:59Z</time>
      </trkpt>
      <trkpt lat="45.0656" lon="2.77233">
        <ele>1681</ele>
        <time>2016-09-05T12:43:06Z</time>
      </trkpt>
      <trkpt lat="45.0656" lon="2.77235">
        <ele>1681</ele>
        <time>2016-09-05T12:43:07Z</time>
      </trkpt>
      <trkpt lat="45.06557" lon="2.77247">
        <ele>1681</ele>
        <time>2016-09-05T12:43:17Z</time>
      </trkpt>
      <trkpt lat="45.06557" lon="2.77248">
        <ele>1681</ele>
        <time>2016-09-05T12:43:18Z</time>
      </trkpt>
      <trkpt lat="45.06555" lon="2.7726">
        <ele>1679</ele>
        <time>2016-09-05T12:43:43Z</time>
      </trkpt>
      <trkpt lat="45.06554" lon="2.77261">
        <ele>1679</ele>
        <time>2016-09-05T12:43:44Z</time>
      </trkpt>
      <trkpt lat="45.06555" lon="2.77273">
        <ele>1679</ele>
        <time>2016-09-05T12:43:53Z</time>
      </trkpt>
      <trkpt lat="45.06555" lon="2.77274">
        <ele>1679</ele>
        <time>2016-09-05T12:43:54Z</time>
      </trkpt>
      <trkpt lat="45.06551" lon="2.77285">
        <ele>1678</ele>
        <time>2016-09-05T12:44:04Z</time>
      </trkpt>
      <trkpt lat="45.0655" lon="2.77286">
        <ele>1678</ele>
        <time>2016-09-05T12:44:05Z</time>
      </trkpt>
      <trkpt lat="45.06548" lon="2.77297">
        <ele>1677</ele>
        <time>2016-09-05T12:44:15Z</time>
      </trkpt>
      <trkpt lat="45.06548" lon="2.77299">
        <ele>1677</ele>
        <time>2016-09-05T12:44:16Z</time>
      </trkpt>
      <trkpt lat="45.06545" lon="2.7731">
        <ele>1677</ele>
        <time>2016-09-05T12:44:27Z</time>
      </trkpt>
      <trkpt lat="45.06545" lon="2.77312">
        <ele>1677</ele>
        <time>2016-09-05T12:44:28Z</time>
      </trkpt>
      <trkpt lat="45.06544" lon="2.77324">
        <ele>1676</ele>
        <time>2016-09-05T12:44:59Z</time>
      </trkpt>
      <trkpt lat="45.06544" lon="2.77325">
        <ele>1676</ele>
        <time>2016-09-05T12:45:00Z</time>
      </trkpt>
      <trkpt lat="45.06545" lon="2.77336">
        <ele>1675</ele>
        <time>2016-09-05T12:45:07Z</time>
      </trkpt>
      <trkpt lat="45.06545" lon="2.77338">
        <ele>1675</ele>
        <time>2016-09-05T12:45:08Z</time>
      </trkpt>
      <trkpt lat="45.06545" lon="2.7735">
        <ele>1674</ele>
        <time>2016-09-05T12:45:16Z</time>
      </trkpt>
      <trkpt lat="45.06545" lon="2.77352">
        <ele>1674</ele>
        <time>2016-09-05T12:45:17Z</time>
      </trkpt>
      <trkpt lat="45.06543" lon="2.77363">
        <ele>1674</ele>
        <time>2016-09-05T12:45:26Z</time>
      </trkpt>
      <trkpt lat="45.06542" lon="2.77364">
        <ele>1674</ele>
        <time>2016-09-05T12:45:27Z</time>
      </trkpt>
      <trkpt lat="45.0654" lon="2.77375">
        <ele>1673</ele>
        <time>2016-09-05T12:45:36Z</time>
      </trkpt>
      <trkpt lat="45.0654" lon="2.77377">
        <ele>1673</ele>
        <time>2016-09-05T12:45:37Z</time>
      </trkpt>
      <trkpt lat="45.06538" lon="2.77389">
        <ele>1672</ele>
        <time>2016-09-05T12:45:46Z</time>
      </trkpt>
      <trkpt lat="45.06538" lon="2.7739">
        <ele>1672</ele>
        <time>2016-09-05T12:45:47Z</time>
      </trkpt>
      <trkpt lat="45.06537" lon="2.77402">
        <ele>1672</ele>
        <time>2016-09-05T12:45:57Z</time>
      </trkpt>
      <trkpt lat="45.06537" lon="2.77403">
        <ele>1672</ele>
        <time>2016-09-05T12:45:58Z</time>
      </trkpt>
      <trkpt lat="45.06536" lon="2.77415">
        <ele>1671</ele>
        <time>2016-09-05T12:46:18Z</time>
      </trkpt>
      <trkpt lat="45.06536" lon="2.77417">
        <ele>1668</ele>
        <time>2016-09-05T12:46:19Z</time>
      </trkpt>
      <trkpt lat="45.06534" lon="2.77429">
        <ele>1667</ele>
        <time>2016-09-05T12:46:27Z</time>
      </trkpt>
      <trkpt lat="45.06534" lon="2.7743">
        <ele>1667</ele>
        <time>2016-09-05T12:46:28Z</time>
      </trkpt>
      <trkpt lat="45.06531" lon="2.77442">
        <ele>1667</ele>
        <time>2016-09-05T12:46:37Z</time>
      </trkpt>
      <trkpt lat="45.06531" lon="2.77443">
        <ele>1667</ele>
        <time>2016-09-05T12:46:38Z</time>
      </trkpt>
      <trkpt lat="45.06531" lon="2.77454">
        <ele>1667</ele>
        <time>2016-09-05T12:46:47Z</time>
      </trkpt>
      <trkpt lat="45.06531" lon="2.77456">
        <ele>1667</ele>
        <time>2016-09-05T12:46:48Z</time>
      </trkpt>
      <trkpt lat="45.0653" lon="2.77469">
        <ele>1666</ele>
        <time>2016-09-05T12:46:56Z</time>
      </trkpt>
      <trkpt lat="45.0653" lon="2.7747">
        <ele>1666</ele>
        <time>2016-09-05T12:46:57Z</time>
      </trkpt>
      <trkpt lat="45.06528" lon="2.77482">
        <ele>1665</ele>
        <time>2016-09-05T12:47:06Z</time>
      </trkpt>
      <trkpt lat="45.06528" lon="2.77483">
        <ele>1664</ele>
        <time>2016-09-05T12:47:07Z</time>
      </trkpt>
      <trkpt lat="45.06529" lon="2.77495">
        <ele>1664</ele>
        <time>2016-09-05T12:47:15Z</time>
      </trkpt>
      <trkpt lat="45.0653" lon="2.77497">
        <ele>1664</ele>
        <time>2016-09-05T12:47:16Z</time>
      </trkpt>
      <trkpt lat="45.06528" lon="2.77508">
        <ele>1659</ele>
        <time>2016-09-05T12:47:24Z</time>
      </trkpt>
      <trkpt lat="45.06527" lon="2.77509">
        <ele>1659</ele>
        <time>2016-09-05T12:47:25Z</time>
      </trkpt>
      <trkpt lat="45.06526" lon="2.77521">
        <ele>1659</ele>
        <time>2016-09-05T12:47:33Z</time>
      </trkpt>
      <trkpt lat="45.06525" lon="2.77522">
        <ele>1659</ele>
        <time>2016-09-05T12:47:34Z</time>
      </trkpt>
      <trkpt lat="45.06521" lon="2.77533">
        <ele>1658</ele>
        <time>2016-09-05T12:47:44Z</time>
      </trkpt>
      <trkpt lat="45.0652" lon="2.77534">
        <ele>1658</ele>
        <time>2016-09-05T12:47:45Z</time>
      </trkpt>
      <trkpt lat="45.0652" lon="2.77546">
        <ele>1658</ele>
        <time>2016-09-05T12:47:54Z</time>
      </trkpt>
      <trkpt lat="45.0652" lon="2.77547">
        <ele>1657</ele>
        <time>2016-09-05T12:47:55Z</time>
      </trkpt>
      <trkpt lat="45.06521" lon="2.77558">
        <ele>1656</ele>
        <time>2016-09-05T12:48:02Z</time>
      </trkpt>
      <trkpt lat="45.06521" lon="2.7756">
        <ele>1656</ele>
        <time>2016-09-05T12:48:03Z</time>
      </trkpt>
      <trkpt lat="45.06521" lon="2.77572">
        <ele>1655</ele>
        <time>2016-09-05T12:48:11Z</time>
      </trkpt>
      <trkpt lat="45.06521" lon="2.77574">
        <ele>1655</ele>
        <time>2016-09-05T12:48:12Z</time>
      </trkpt>
      <trkpt lat="45.06522" lon="2.77585">
        <ele>1650</ele>
        <time>2016-09-05T12:48:37Z</time>
      </trkpt>
      <trkpt lat="45.06523" lon="2.77587">
        <ele>1650</ele>
        <time>2016-09-05T12:48:38Z</time>
      </trkpt>
      <trkpt lat="45.06524" lon="2.77598">
        <ele>1651</ele>
        <time>2016-09-05T12:48:46Z</time>
      </trkpt>
      <trkpt lat="45.06524" lon="2.77599">
        <ele>1651</ele>
        <time>2016-09-05T12:48:47Z</time>
      </trkpt>
      <trkpt lat="45.06526" lon="2.7761">
        <ele>1651</ele>
        <time>2016-09-05T12:48:54Z</time>
      </trkpt>
      <trkpt lat="45.06527" lon="2.77612">
        <ele>1651</ele>
        <time>2016-09-05T12:48:55Z</time>
      </trkpt>
      <trkpt lat="45.06527" lon="2.77624">
        <ele>1651</ele>
        <time>2016-09-05T12:49:03Z</time>
      </trkpt>
      <trkpt lat="45.06527" lon="2.77625">
        <ele>1651</ele>
        <time>2016-09-05T12:49:04Z</time>
      </trkpt>
      <trkpt lat="45.06527" lon="2.77638">
        <ele>1650</ele>
        <time>2016-09-05T12:49:12Z</time>
      </trkpt>
      <trkpt lat="45.06527" lon="2.77639">
        <ele>1650</ele>
        <time>2016-09-05T12:49:13Z</time>
      </trkpt>
      <trkpt lat="45.06529" lon="2.77651">
        <ele>1649</ele>
        <time>2016-09-05T12:49:21Z</time>
      </trkpt>
      <trkpt lat="45.06529" lon="2.77653">
        <ele>1649</ele>
        <time>2016-09-05T12:49:22Z</time>
      </trkpt>
      <trkpt lat="45.06529" lon="2.77665">
        <ele>1649</ele>
        <time>2016-09-05T12:49:30Z</time>
      </trkpt>
      <trkpt lat="45.06529" lon="2.77666">
        <ele>1649</ele>
        <time>2016-09-05T12:49:31Z</time>
      </trkpt>
      <trkpt lat="45.06529" lon="2.77679">
        <ele>1644</ele>
        <time>2016-09-05T12:49:40Z</time>
      </trkpt>
      <trkpt lat="45.06529" lon="2.7768">
        <ele>1644</ele>
        <time>2016-09-05T12:49:41Z</time>
      </trkpt>
      <trkpt lat="45.06525" lon="2.77691">
        <ele>1643</ele>
        <time>2016-09-05T12:49:52Z</time>
      </trkpt>
      <trkpt lat="45.06525" lon="2.77693">
        <ele>1643</ele>
        <time>2016-09-05T12:49:53Z</time>
      </trkpt>
      <trkpt lat="45.06519" lon="2.77701">
        <ele>1642</ele>
        <time>2016-09-05T12:50:05Z</time>
      </trkpt>
      <trkpt lat="45.06518" lon="2.77702">
        <ele>1642</ele>
        <time>2016-09-05T12:50:06Z</time>
      </trkpt>
      <trkpt lat="45.0651" lon="2.77697">
        <ele>1642</ele>
        <time>2016-09-05T12:50:13Z</time>
      </trkpt>
      <trkpt lat="45.06509" lon="2.77696">
        <ele>1642</ele>
        <time>2016-09-05T12:50:14Z</time>
      </trkpt>
      <trkpt lat="45.06503" lon="2.77688">
        <ele>1642</ele>
        <time>2016-09-05T12:50:21Z</time>
      </trkpt>
      <trkpt lat="45.06502" lon="2.77688">
        <ele>1642</ele>
        <time>2016-09-05T12:50:22Z</time>
      </trkpt>
      <trkpt lat="45.06495" lon="2.77681">
        <ele>1634</ele>
        <time>2016-09-05T12:50:30Z</time>
      </trkpt>
      <trkpt lat="45.06494" lon="2.7768">
        <ele>1634</ele>
        <time>2016-09-05T12:50:31Z</time>
      </trkpt>
      <trkpt lat="45.06489" lon="2.77671">
        <ele>1635</ele>
        <time>2016-09-05T12:50:38Z</time>
      </trkpt>
      <trkpt lat="45.06488" lon="2.7767">
        <ele>1635</ele>
        <time>2016-09-05T12:50:39Z</time>
      </trkpt>
      <trkpt lat="45.06482" lon="2.77662">
        <ele>1637</ele>
        <time>2016-09-05T12:50:47Z</time>
      </trkpt>
      <trkpt lat="45.06481" lon="2.77662">
        <ele>1637</ele>
        <time>2016-09-05T12:50:48Z</time>
      </trkpt>
      <trkpt lat="45.06473" lon="2.77656">
        <ele>1635</ele>
        <time>2016-09-05T12:51:00Z</time>
      </trkpt>
      <trkpt lat="45.06472" lon="2.77656">
        <ele>1635</ele>
        <time>2016-09-05T12:51:01Z</time>
      </trkpt>
      <trkpt lat="45.06463" lon="2.77653">
        <ele>1634</ele>
        <time>2016-09-05T12:51:10Z</time>
      </trkpt>
      <trkpt lat="45.06462" lon="2.77653">
        <ele>1634</ele>
        <time>2016-09-05T12:51:11Z</time>
      </trkpt>
      <trkpt lat="45.06455" lon="2.77648">
        <ele>1633</ele>
        <time>2016-09-05T12:51:18Z</time>
      </trkpt>
      <trkpt lat="45.06454" lon="2.77648">
        <ele>1633</ele>
        <time>2016-09-05T12:51:19Z</time>
      </trkpt>
      <trkpt lat="45.06446" lon="2.77645">
        <ele>1632</ele>
        <time>2016-09-05T12:51:29Z</time>
      </trkpt>
      <trkpt lat="45.06445" lon="2.77644">
        <ele>1632</ele>
        <time>2016-09-05T12:51:30Z</time>
      </trkpt>
      <trkpt lat="45.06438" lon="2.77637">
        <ele>1632</ele>
        <time>2016-09-05T12:51:39Z</time>
      </trkpt>
      <trkpt lat="45.06437" lon="2.77636">
        <ele>1632</ele>
        <time>2016-09-05T12:51:40Z</time>
      </trkpt>
      <trkpt lat="45.06433" lon="2.77626">
        <ele>1632</ele>
        <time>2016-09-05T12:51:48Z</time>
      </trkpt>
      <trkpt lat="45.06432" lon="2.77625">
        <ele>1632</ele>
        <time>2016-09-05T12:51:49Z</time>
      </trkpt>
      <trkpt lat="45.06427" lon="2.77615">
        <ele>1632</ele>
        <time>2016-09-05T12:51:58Z</time>
      </trkpt>
      <trkpt lat="45.06426" lon="2.77614">
        <ele>1632</ele>
        <time>2016-09-05T12:51:59Z</time>
      </trkpt>
      <trkpt lat="45.06422" lon="2.77603">
        <ele>1632</ele>
        <time>2016-09-05T12:52:08Z</time>
      </trkpt>
      <trkpt lat="45.06421" lon="2.77602">
        <ele>1632</ele>
        <time>2016-09-05T12:52:09Z</time>
      </trkpt>
      <trkpt lat="45.06416" lon="2.77594">
        <ele>1627</ele>
        <time>2016-09-05T12:52:17Z</time>
      </trkpt>
      <trkpt lat="45.06415" lon="2.77593">
        <ele>1627</ele>
        <time>2016-09-05T12:52:18Z</time>
      </trkpt>
      <trkpt lat="45.06406" lon="2.77589">
        <ele>1626</ele>
        <time>2016-09-05T12:52:26Z</time>
      </trkpt>
      <trkpt lat="45.06405" lon="2.77588">
        <ele>1626</ele>
        <time>2016-09-05T12:52:27Z</time>
      </trkpt>
      <trkpt lat="45.06397" lon="2.77592">
        <ele>1623</ele>
        <time>2016-09-05T12:52:38Z</time>
      </trkpt>
      <trkpt lat="45.06396" lon="2.77593">
        <ele>1623</ele>
        <time>2016-09-05T12:52:39Z</time>
      </trkpt>
      <trkpt lat="45.06393" lon="2.77604">
        <ele>1621</ele>
        <time>2016-09-05T12:52:51Z</time>
      </trkpt>
      <trkpt lat="45.06394" lon="2.77606">
        <ele>1621</ele>
        <time>2016-09-05T12:52:52Z</time>
      </trkpt>
      <trkpt lat="45.06393" lon="2.77618">
        <ele>1620</ele>
        <time>2016-09-05T12:53:04Z</time>
      </trkpt>
      <trkpt lat="45.06393" lon="2.77619">
        <ele>1620</ele>
        <time>2016-09-05T12:53:05Z</time>
      </trkpt>
      <trkpt lat="45.06395" lon="2.77631">
        <ele>1619</ele>
        <time>2016-09-05T12:53:14Z</time>
      </trkpt>
      <trkpt lat="45.06395" lon="2.77632">
        <ele>1619</ele>
        <time>2016-09-05T12:53:15Z</time>
      </trkpt>
      <trkpt lat="45.06395" lon="2.77644">
        <ele>1619</ele>
        <time>2016-09-05T12:53:24Z</time>
      </trkpt>
      <trkpt lat="45.06395" lon="2.77645">
        <ele>1619</ele>
        <time>2016-09-05T12:53:25Z</time>
      </trkpt>
      <trkpt lat="45.06395" lon="2.77656">
        <ele>1619</ele>
        <time>2016-09-05T12:53:33Z</time>
      </trkpt>
      <trkpt lat="45.06395" lon="2.77658">
        <ele>1619</ele>
        <time>2016-09-05T12:53:34Z</time>
      </trkpt>
      <trkpt lat="45.06396" lon="2.7767">
        <ele>1615</ele>
        <time>2016-09-05T12:53:42Z</time>
      </trkpt>
      <trkpt lat="45.06396" lon="2.77671">
        <ele>1615</ele>
        <time>2016-09-05T12:53:43Z</time>
      </trkpt>
      <trkpt lat="45.06397" lon="2.77683">
        <ele>1614</ele>
        <time>2016-09-05T12:53:51Z</time>
      </trkpt>
      <trkpt lat="45.06397" lon="2.77684">
        <ele>1614</ele>
        <time>2016-09-05T12:53:52Z</time>
      </trkpt>
      <trkpt lat="45.06398" lon="2.77697">
        <ele>1612</ele>
        <time>2016-09-05T12:54:01Z</time>
      </trkpt>
      <trkpt lat="45.06398" lon="2.77698">
        <ele>1612</ele>
        <time>2016-09-05T12:54:02Z</time>
      </trkpt>
      <trkpt lat="45.064" lon="2.7771">
        <ele>1611</ele>
        <time>2016-09-05T12:54:11Z</time>
      </trkpt>
      <trkpt lat="45.064" lon="2.77712">
        <ele>1611</ele>
        <time>2016-09-05T12:54:12Z</time>
      </trkpt>
      <trkpt lat="45.06403" lon="2.77722">
        <ele>1611</ele>
        <time>2016-09-05T12:54:20Z</time>
      </trkpt>
      <trkpt lat="45.06403" lon="2.77723">
        <ele>1611</ele>
        <time>2016-09-05T12:54:21Z</time>
      </trkpt>
      <trkpt lat="45.06406" lon="2.77734">
        <ele>1611</ele>
        <time>2016-09-05T12:54:28Z</time>
      </trkpt>
      <trkpt lat="45.06406" lon="2.77736">
        <ele>1611</ele>
        <time>2016-09-05T12:54:29Z</time>
      </trkpt>
      <trkpt lat="45.06406" lon="2.77747">
        <ele>1612</ele>
        <time>2016-09-05T12:54:37Z</time>
      </trkpt>
      <trkpt lat="45.06406" lon="2.77749">
        <ele>1612</ele>
        <time>2016-09-05T12:54:38Z</time>
      </trkpt>
      <trkpt lat="45.06408" lon="2.7776">
        <ele>1608</ele>
        <time>2016-09-05T12:54:46Z</time>
      </trkpt>
      <trkpt lat="45.06408" lon="2.77762">
        <ele>1608</ele>
        <time>2016-09-05T12:54:47Z</time>
      </trkpt>
      <trkpt lat="45.06409" lon="2.77773">
        <ele>1605</ele>
        <time>2016-09-05T12:58:43Z</time>
      </trkpt>
      <trkpt lat="45.06409" lon="2.77775">
        <ele>1605</ele>
        <time>2016-09-05T12:58:44Z</time>
      </trkpt>
      <trkpt lat="45.06415" lon="2.77784">
        <ele>1604</ele>
        <time>2016-09-05T12:58:53Z</time>
      </trkpt>
      <trkpt lat="45.06415" lon="2.77785">
        <ele>1604</ele>
        <time>2016-09-05T12:58:54Z</time>
      </trkpt>
      <trkpt lat="45.06419" lon="2.77796">
        <ele>1613</ele>
        <time>2016-09-05T12:59:02Z</time>
      </trkpt>
      <trkpt lat="45.06419" lon="2.77797">
        <ele>1613</ele>
        <time>2016-09-05T12:59:03Z</time>
      </trkpt>
      <trkpt lat="45.06423" lon="2.77808">
        <ele>1612</ele>
        <time>2016-09-05T12:59:11Z</time>
      </trkpt>
      <trkpt lat="45.06424" lon="2.77809">
        <ele>1612</ele>
        <time>2016-09-05T12:59:12Z</time>
      </trkpt>
      <trkpt lat="45.06427" lon="2.77821">
        <ele>1610</ele>
        <time>2016-09-05T12:59:20Z</time>
      </trkpt>
      <trkpt lat="45.06428" lon="2.77822">
        <ele>1610</ele>
        <time>2016-09-05T12:59:21Z</time>
      </trkpt>
      <trkpt lat="45.06432" lon="2.77833">
        <ele>1609</ele>
        <time>2016-09-05T12:59:30Z</time>
      </trkpt>
      <trkpt lat="45.06433" lon="2.77834">
        <ele>1604</ele>
        <time>2016-09-05T12:59:31Z</time>
      </trkpt>
      <trkpt lat="45.0644" lon="2.77841">
        <ele>1604</ele>
        <time>2016-09-05T12:59:42Z</time>
      </trkpt>
      <trkpt lat="45.0644" lon="2.77842">
        <ele>1604</ele>
        <time>2016-09-05T12:59:43Z</time>
      </trkpt>
      <trkpt lat="45.06448" lon="2.77848">
        <ele>1604</ele>
        <time>2016-09-05T12:59:52Z</time>
      </trkpt>
      <trkpt lat="45.06449" lon="2.77849">
        <ele>1604</ele>
        <time>2016-09-05T12:59:53Z</time>
      </trkpt>
      <trkpt lat="45.06455" lon="2.77857">
        <ele>1604</ele>
        <time>2016-09-05T13:00:02Z</time>
      </trkpt>
      <trkpt lat="45.06456" lon="2.77858">
        <ele>1604</ele>
        <time>2016-09-05T13:00:03Z</time>
      </trkpt>
      <trkpt lat="45.0646" lon="2.77868">
        <ele>1604</ele>
        <time>2016-09-05T13:00:11Z</time>
      </trkpt>
      <trkpt lat="45.0646" lon="2.7787">
        <ele>1604</ele>
        <time>2016-09-05T13:00:12Z</time>
      </trkpt>
      <trkpt lat="45.0646" lon="2.77882">
        <ele>1602</ele>
        <time>2016-09-05T13:00:22Z</time>
      </trkpt>
      <trkpt lat="45.0646" lon="2.77883">
        <ele>1602</ele>
        <time>2016-09-05T13:00:23Z</time>
      </trkpt>
      <trkpt lat="45.06455" lon="2.77893">
        <ele>1601</ele>
        <time>2016-09-05T13:00:33Z</time>
      </trkpt>
      <trkpt lat="45.06454" lon="2.77893">
        <ele>1601</ele>
        <time>2016-09-05T13:00:34Z</time>
      </trkpt>
      <trkpt lat="45.06449" lon="2.77903">
        <ele>1600</ele>
        <time>2016-09-05T13:00:44Z</time>
      </trkpt>
      <trkpt lat="45.06448" lon="2.77904">
        <ele>1600</ele>
        <time>2016-09-05T13:00:45Z</time>
      </trkpt>
      <trkpt lat="45.06442" lon="2.77912">
        <ele>1598</ele>
        <time>2016-09-05T13:00:55Z</time>
      </trkpt>
      <trkpt lat="45.06442" lon="2.77913">
        <ele>1598</ele>
        <time>2016-09-05T13:00:56Z</time>
      </trkpt>
      <trkpt lat="45.06434" lon="2.77919">
        <ele>1591</ele>
        <time>2016-09-05T13:01:06Z</time>
      </trkpt>
      <trkpt lat="45.06433" lon="2.77919">
        <ele>1591</ele>
        <time>2016-09-05T13:01:07Z</time>
      </trkpt>
      <trkpt lat="45.06425" lon="2.77913">
        <ele>1594</ele>
        <time>2016-09-05T13:01:15Z</time>
      </trkpt>
      <trkpt lat="45.06424" lon="2.77912">
        <ele>1594</ele>
        <time>2016-09-05T13:01:16Z</time>
      </trkpt>
      <trkpt lat="45.06417" lon="2.77905">
        <ele>1595</ele>
        <time>2016-09-05T13:01:24Z</time>
      </trkpt>
      <trkpt lat="45.06416" lon="2.77905">
        <ele>1591</ele>
        <time>2016-09-05T13:01:25Z</time>
      </trkpt>
      <trkpt lat="45.06407" lon="2.77904">
        <ele>1591</ele>
        <time>2016-09-05T13:01:33Z</time>
      </trkpt>
      <trkpt lat="45.06406" lon="2.77905">
        <ele>1591</ele>
        <time>2016-09-05T13:01:34Z</time>
      </trkpt>
      <trkpt lat="45.06401" lon="2.77914">
        <ele>1591</ele>
        <time>2016-09-05T13:02:20Z</time>
      </trkpt>
      <trkpt lat="45.064" lon="2.77915">
        <ele>1591</ele>
        <time>2016-09-05T13:02:21Z</time>
      </trkpt>
      <trkpt lat="45.06396" lon="2.77927">
        <ele>1586</ele>
        <time>2016-09-05T13:02:29Z</time>
      </trkpt>
      <trkpt lat="45.06395" lon="2.77927">
        <ele>1586</ele>
        <time>2016-09-05T13:02:30Z</time>
      </trkpt>
      <trkpt lat="45.06391" lon="2.77938">
        <ele>1585</ele>
        <time>2016-09-05T13:02:38Z</time>
      </trkpt>
      <trkpt lat="45.06391" lon="2.77939">
        <ele>1585</ele>
        <time>2016-09-05T13:02:39Z</time>
      </trkpt>
      <trkpt lat="45.06385" lon="2.77948">
        <ele>1584</ele>
        <time>2016-09-05T13:02:47Z</time>
      </trkpt>
      <trkpt lat="45.06385" lon="2.7795">
        <ele>1584</ele>
        <time>2016-09-05T13:02:48Z</time>
      </trkpt>
      <trkpt lat="45.06379" lon="2.77959">
        <ele>1583</ele>
        <time>2016-09-05T13:02:56Z</time>
      </trkpt>
      <trkpt lat="45.06378" lon="2.77959">
        <ele>1583</ele>
        <time>2016-09-05T13:02:57Z</time>
      </trkpt>
      <trkpt lat="45.0637" lon="2.77964">
        <ele>1582</ele>
        <time>2016-09-05T13:03:06Z</time>
      </trkpt>
      <trkpt lat="45.06369" lon="2.77965">
        <ele>1582</ele>
        <time>2016-09-05T13:03:07Z</time>
      </trkpt>
      <trkpt lat="45.06362" lon="2.77971">
        <ele>1582</ele>
        <time>2016-09-05T13:03:16Z</time>
      </trkpt>
      <trkpt lat="45.06361" lon="2.77972">
        <ele>1581</ele>
        <time>2016-09-05T13:03:17Z</time>
      </trkpt>
      <trkpt lat="45.06353" lon="2.77977">
        <ele>1581</ele>
        <time>2016-09-05T13:03:26Z</time>
      </trkpt>
      <trkpt lat="45.06352" lon="2.77978">
        <ele>1581</ele>
        <time>2016-09-05T13:03:27Z</time>
      </trkpt>
      <trkpt lat="45.06344" lon="2.77982">
        <ele>1580</ele>
        <time>2016-09-05T13:03:36Z</time>
      </trkpt>
      <trkpt lat="45.06343" lon="2.77983">
        <ele>1580</ele>
        <time>2016-09-05T13:03:37Z</time>
      </trkpt>
      <trkpt lat="45.06336" lon="2.77989">
        <ele>1578</ele>
        <time>2016-09-05T13:03:46Z</time>
      </trkpt>
      <trkpt lat="45.06336" lon="2.7799">
        <ele>1578</ele>
        <time>2016-09-05T13:03:47Z</time>
      </trkpt>
      <trkpt lat="45.06328" lon="2.77994">
        <ele>1575</ele>
        <time>2016-09-05T13:03:55Z</time>
      </trkpt>
      <trkpt lat="45.06327" lon="2.77995">
        <ele>1575</ele>
        <time>2016-09-05T13:03:56Z</time>
      </trkpt>
      <trkpt lat="45.06321" lon="2.78003">
        <ele>1571</ele>
        <time>2016-09-05T13:04:05Z</time>
      </trkpt>
      <trkpt lat="45.0632" lon="2.78003">
        <ele>1571</ele>
        <time>2016-09-05T13:04:06Z</time>
      </trkpt>
      <trkpt lat="45.06312" lon="2.78009">
        <ele>1569</ele>
        <time>2016-09-05T13:04:16Z</time>
      </trkpt>
      <trkpt lat="45.06311" lon="2.78009">
        <ele>1569</ele>
        <time>2016-09-05T13:04:17Z</time>
      </trkpt>
      <trkpt lat="45.06303" lon="2.7801">
        <ele>1568</ele>
        <time>2016-09-05T13:04:25Z</time>
      </trkpt>
      <trkpt lat="45.06302" lon="2.78011">
        <ele>1568</ele>
        <time>2016-09-05T13:04:26Z</time>
      </trkpt>
      <trkpt lat="45.06294" lon="2.7801">
        <ele>1567</ele>
        <time>2016-09-05T13:04:35Z</time>
      </trkpt>
      <trkpt lat="45.06293" lon="2.78009">
        <ele>1567</ele>
        <time>2016-09-05T13:04:36Z</time>
      </trkpt>
      <trkpt lat="45.06285" lon="2.78003">
        <ele>1566</ele>
        <time>2016-09-05T13:04:44Z</time>
      </trkpt>
      <trkpt lat="45.06284" lon="2.78002">
        <ele>1566</ele>
        <time>2016-09-05T13:04:45Z</time>
      </trkpt>
      <trkpt lat="45.0628" lon="2.77992">
        <ele>1570</ele>
        <time>2016-09-05T13:04:52Z</time>
      </trkpt>
      <trkpt lat="45.0628" lon="2.7799">
        <ele>1570</ele>
        <time>2016-09-05T13:04:53Z</time>
      </trkpt>
      <trkpt lat="45.06277" lon="2.7798">
        <ele>1570</ele>
        <time>2016-09-05T13:05:02Z</time>
      </trkpt>
      <trkpt lat="45.06276" lon="2.77978">
        <ele>1570</ele>
        <time>2016-09-05T13:05:03Z</time>
      </trkpt>
      <trkpt lat="45.06272" lon="2.77968">
        <ele>1570</ele>
        <time>2016-09-05T13:05:11Z</time>
      </trkpt>
      <trkpt lat="45.06271" lon="2.77966">
        <ele>1570</ele>
        <time>2016-09-05T13:05:12Z</time>
      </trkpt>
      <trkpt lat="45.06268" lon="2.77955">
        <ele>1571</ele>
        <time>2016-09-05T13:05:20Z</time>
      </trkpt>
      <trkpt lat="45.06268" lon="2.77954">
        <ele>1571</ele>
        <time>2016-09-05T13:05:21Z</time>
      </trkpt>
      <trkpt lat="45.06262" lon="2.77945">
        <ele>1570</ele>
        <time>2016-09-05T13:05:30Z</time>
      </trkpt>
      <trkpt lat="45.06261" lon="2.77944">
        <ele>1570</ele>
        <time>2016-09-05T13:05:31Z</time>
      </trkpt>
      <trkpt lat="45.06254" lon="2.77937">
        <ele>1570</ele>
        <time>2016-09-05T13:05:40Z</time>
      </trkpt>
      <trkpt lat="45.06253" lon="2.77938">
        <ele>1570</ele>
        <time>2016-09-05T13:05:41Z</time>
      </trkpt>
      <trkpt lat="45.06247" lon="2.77946">
        <ele>1562</ele>
        <time>2016-09-05T13:07:06Z</time>
      </trkpt>
      <trkpt lat="45.06246" lon="2.77947">
        <ele>1562</ele>
        <time>2016-09-05T13:07:07Z</time>
      </trkpt>
      <trkpt lat="45.06242" lon="2.77958">
        <ele>1562</ele>
        <time>2016-09-05T13:07:16Z</time>
      </trkpt>
      <trkpt lat="45.06242" lon="2.77959">
        <ele>1562</ele>
        <time>2016-09-05T13:07:17Z</time>
      </trkpt>
      <trkpt lat="45.06234" lon="2.77965">
        <ele>1561</ele>
        <time>2016-09-05T13:07:26Z</time>
      </trkpt>
      <trkpt lat="45.06233" lon="2.77966">
        <ele>1561</ele>
        <time>2016-09-05T13:07:27Z</time>
      </trkpt>
      <trkpt lat="45.06226" lon="2.77973">
        <ele>1561</ele>
        <time>2016-09-05T13:07:35Z</time>
      </trkpt>
      <trkpt lat="45.06225" lon="2.77973">
        <ele>1561</ele>
        <time>2016-09-05T13:07:36Z</time>
      </trkpt>
      <trkpt lat="45.0622" lon="2.77982">
        <ele>1560</ele>
        <time>2016-09-05T13:07:44Z</time>
      </trkpt>
      <trkpt lat="45.06219" lon="2.77983">
        <ele>1560</ele>
        <time>2016-09-05T13:07:45Z</time>
      </trkpt>
      <trkpt lat="45.06213" lon="2.77991">
        <ele>1559</ele>
        <time>2016-09-05T13:07:53Z</time>
      </trkpt>
      <trkpt lat="45.06212" lon="2.77992">
        <ele>1559</ele>
        <time>2016-09-05T13:07:54Z</time>
      </trkpt>
      <trkpt lat="45.06204" lon="2.77999">
        <ele>1559</ele>
        <time>2016-09-05T13:08:05Z</time>
      </trkpt>
      <trkpt lat="45.06204" lon="2.78">
        <ele>1558</ele>
        <time>2016-09-05T13:08:06Z</time>
      </trkpt>
      <trkpt lat="45.06197" lon="2.78008">
        <ele>1556</ele>
        <time>2016-09-05T13:08:14Z</time>
      </trkpt>
      <trkpt lat="45.06196" lon="2.78008">
        <ele>1556</ele>
        <time>2016-09-05T13:08:15Z</time>
      </trkpt>
      <trkpt lat="45.06189" lon="2.78014">
        <ele>1555</ele>
        <time>2016-09-05T13:08:23Z</time>
      </trkpt>
      <trkpt lat="45.06189" lon="2.78015">
        <ele>1555</ele>
        <time>2016-09-05T13:08:24Z</time>
      </trkpt>
      <trkpt lat="45.06181" lon="2.78021">
        <ele>1555</ele>
        <time>2016-09-05T13:08:32Z</time>
      </trkpt>
      <trkpt lat="45.0618" lon="2.78022">
        <ele>1555</ele>
        <time>2016-09-05T13:08:33Z</time>
      </trkpt>
      <trkpt lat="45.06173" lon="2.78028">
        <ele>1555</ele>
        <time>2016-09-05T13:08:41Z</time>
      </trkpt>
      <trkpt lat="45.06172" lon="2.78028">
        <ele>1555</ele>
        <time>2016-09-05T13:08:42Z</time>
      </trkpt>
      <trkpt lat="45.06165" lon="2.78036">
        <ele>1549</ele>
        <time>2016-09-05T13:08:51Z</time>
      </trkpt>
      <trkpt lat="45.06164" lon="2.78037">
        <ele>1549</ele>
        <time>2016-09-05T13:08:52Z</time>
      </trkpt>
      <trkpt lat="45.06156" lon="2.78042">
        <ele>1548</ele>
        <time>2016-09-05T13:08:59Z</time>
      </trkpt>
      <trkpt lat="45.06155" lon="2.78042">
        <ele>1548</ele>
        <time>2016-09-05T13:09:00Z</time>
      </trkpt>
      <trkpt lat="45.06148" lon="2.78048">
        <ele>1548</ele>
        <time>2016-09-05T13:09:08Z</time>
      </trkpt>
      <trkpt lat="45.06148" lon="2.7805">
        <ele>1548</ele>
        <time>2016-09-05T13:09:09Z</time>
      </trkpt>
      <trkpt lat="45.0614" lon="2.78055">
        <ele>1548</ele>
        <time>2016-09-05T13:09:18Z</time>
      </trkpt>
      <trkpt lat="45.06139" lon="2.78055">
        <ele>1548</ele>
        <time>2016-09-05T13:09:19Z</time>
      </trkpt>
      <trkpt lat="45.06132" lon="2.78062">
        <ele>1547</ele>
        <time>2016-09-05T13:09:30Z</time>
      </trkpt>
      <trkpt lat="45.06131" lon="2.78063">
        <ele>1547</ele>
        <time>2016-09-05T13:09:31Z</time>
      </trkpt>
      <trkpt lat="45.06124" lon="2.78068">
        <ele>1546</ele>
        <time>2016-09-05T13:09:40Z</time>
      </trkpt>
      <trkpt lat="45.06123" lon="2.78069">
        <ele>1546</ele>
        <time>2016-09-05T13:09:41Z</time>
      </trkpt>
      <trkpt lat="45.06115" lon="2.78074">
        <ele>1545</ele>
        <time>2016-09-05T13:09:53Z</time>
      </trkpt>
      <trkpt lat="45.06114" lon="2.78074">
        <ele>1545</ele>
        <time>2016-09-05T13:09:54Z</time>
      </trkpt>
      <trkpt lat="45.06106" lon="2.78078">
        <ele>1544</ele>
        <time>2016-09-05T13:10:04Z</time>
      </trkpt>
      <trkpt lat="45.06106" lon="2.78078">
        <ele>1544</ele>
        <time>2016-09-05T13:10:05Z</time>
      </trkpt>
      <trkpt lat="45.06098" lon="2.78084">
        <ele>1542</ele>
        <time>2016-09-05T13:10:16Z</time>
      </trkpt>
      <trkpt lat="45.06097" lon="2.78084">
        <ele>1542</ele>
        <time>2016-09-05T13:10:17Z</time>
      </trkpt>
      <trkpt lat="45.06089" lon="2.78085">
        <ele>1541</ele>
        <time>2016-09-05T13:10:27Z</time>
      </trkpt>
      <trkpt lat="45.06088" lon="2.78085">
        <ele>1541</ele>
        <time>2016-09-05T13:10:28Z</time>
      </trkpt>
      <trkpt lat="45.0608" lon="2.7809">
        <ele>1538</ele>
        <time>2016-09-05T13:10:38Z</time>
      </trkpt>
      <trkpt lat="45.0608" lon="2.78091">
        <ele>1537</ele>
        <time>2016-09-05T13:10:39Z</time>
      </trkpt>
      <trkpt lat="45.06074" lon="2.781">
        <ele>1535</ele>
        <time>2016-09-05T13:10:51Z</time>
      </trkpt>
      <trkpt lat="45.06073" lon="2.781">
        <ele>1535</ele>
        <time>2016-09-05T13:10:52Z</time>
      </trkpt>
      <trkpt lat="45.06066" lon="2.78106">
        <ele>1533</ele>
        <time>2016-09-05T13:11:02Z</time>
      </trkpt>
      <trkpt lat="45.06066" lon="2.78107">
        <ele>1533</ele>
        <time>2016-09-05T13:11:03Z</time>
      </trkpt>
      <trkpt lat="45.06061" lon="2.78117">
        <ele>1532</ele>
        <time>2016-09-05T13:11:13Z</time>
      </trkpt>
      <trkpt lat="45.0606" lon="2.78118">
        <ele>1532</ele>
        <time>2016-09-05T13:11:14Z</time>
      </trkpt>
      <trkpt lat="45.06057" lon="2.78129">
        <ele>1532</ele>
        <time>2016-09-05T13:11:24Z</time>
      </trkpt>
      <trkpt lat="45.06057" lon="2.7813">
        <ele>1532</ele>
        <time>2016-09-05T13:11:25Z</time>
      </trkpt>
      <trkpt lat="45.06052" lon="2.7814">
        <ele>1531</ele>
        <time>2016-09-05T13:11:35Z</time>
      </trkpt>
      <trkpt lat="45.06051" lon="2.78141">
        <ele>1531</ele>
        <time>2016-09-05T13:11:36Z</time>
      </trkpt>
      <trkpt lat="45.06047" lon="2.78151">
        <ele>1530</ele>
        <time>2016-09-05T13:11:46Z</time>
      </trkpt>
      <trkpt lat="45.06047" lon="2.78152">
        <ele>1530</ele>
        <time>2016-09-05T13:11:47Z</time>
      </trkpt>
      <trkpt lat="45.06039" lon="2.78157">
        <ele>1529</ele>
        <time>2016-09-05T13:11:58Z</time>
      </trkpt>
      <trkpt lat="45.06038" lon="2.78157">
        <ele>1529</ele>
        <time>2016-09-05T13:11:59Z</time>
      </trkpt>
      <trkpt lat="45.0603" lon="2.7816">
        <ele>1528</ele>
        <time>2016-09-05T13:12:10Z</time>
      </trkpt>
      <trkpt lat="45.06029" lon="2.7816">
        <ele>1528</ele>
        <time>2016-09-05T13:12:11Z</time>
      </trkpt>
      <trkpt lat="45.06021" lon="2.78165">
        <ele>1526</ele>
        <time>2016-09-05T13:12:20Z</time>
      </trkpt>
      <trkpt lat="45.0602" lon="2.78165">
        <ele>1526</ele>
        <time>2016-09-05T13:12:21Z</time>
      </trkpt>
      <trkpt lat="45.06012" lon="2.78165">
        <ele>1524</ele>
        <time>2016-09-05T13:12:30Z</time>
      </trkpt>
      <trkpt lat="45.06011" lon="2.78165">
        <ele>1524</ele>
        <time>2016-09-05T13:12:31Z</time>
      </trkpt>
      <trkpt lat="45.06003" lon="2.7817">
        <ele>1521</ele>
        <time>2016-09-05T13:12:41Z</time>
      </trkpt>
      <trkpt lat="45.06002" lon="2.78171">
        <ele>1521</ele>
        <time>2016-09-05T13:12:42Z</time>
      </trkpt>
      <trkpt lat="45.05998" lon="2.78183">
        <ele>1515</ele>
        <time>2016-09-05T13:13:03Z</time>
      </trkpt>
      <trkpt lat="45.05998" lon="2.78183">
        <ele>1515</ele>
        <time>2016-09-05T13:13:04Z</time>
      </trkpt>
      <trkpt lat="45.06003" lon="2.78193">
        <ele>1522</ele>
        <time>2016-09-05T13:13:51Z</time>
      </trkpt>
      <trkpt lat="45.06004" lon="2.78194">
        <ele>1522</ele>
        <time>2016-09-05T13:13:52Z</time>
      </trkpt>
      <trkpt lat="45.06007" lon="2.78205">
        <ele>1522</ele>
        <time>2016-09-05T13:14:39Z</time>
      </trkpt>
      <trkpt lat="45.06008" lon="2.78206">
        <ele>1522</ele>
        <time>2016-09-05T13:14:40Z</time>
      </trkpt>
      <trkpt lat="45.06011" lon="2.78217">
        <ele>1521</ele>
        <time>2016-09-05T13:14:48Z</time>
      </trkpt>
      <trkpt lat="45.06012" lon="2.78218">
        <ele>1521</ele>
        <time>2016-09-05T13:14:49Z</time>
      </trkpt>
      <trkpt lat="45.06016" lon="2.78228">
        <ele>1520</ele>
        <time>2016-09-05T13:14:59Z</time>
      </trkpt>
      <trkpt lat="45.06017" lon="2.78229">
        <ele>1520</ele>
        <time>2016-09-05T13:15:00Z</time>
      </trkpt>
      <trkpt lat="45.06023" lon="2.78237">
        <ele>1520</ele>
        <time>2016-09-05T13:15:10Z</time>
      </trkpt>
      <trkpt lat="45.06024" lon="2.78238">
        <ele>1520</ele>
        <time>2016-09-05T13:15:11Z</time>
      </trkpt>
      <trkpt lat="45.06029" lon="2.78248">
        <ele>1521</ele>
        <time>2016-09-05T13:15:20Z</time>
      </trkpt>
      <trkpt lat="45.0603" lon="2.78249">
        <ele>1521</ele>
        <time>2016-09-05T13:15:21Z</time>
      </trkpt>
      <trkpt lat="45.06035" lon="2.78257">
        <ele>1515</ele>
        <time>2016-09-05T13:15:29Z</time>
      </trkpt>
      <trkpt lat="45.06036" lon="2.78258">
        <ele>1515</ele>
        <time>2016-09-05T13:15:30Z</time>
      </trkpt>
      <trkpt lat="45.06042" lon="2.78268">
        <ele>1515</ele>
        <time>2016-09-05T13:15:38Z</time>
      </trkpt>
      <trkpt lat="45.06042" lon="2.78268">
        <ele>1515</ele>
        <time>2016-09-05T13:15:39Z</time>
      </trkpt>
      <trkpt lat="45.06049" lon="2.78276">
        <ele>1514</ele>
        <time>2016-09-05T13:15:47Z</time>
      </trkpt>
      <trkpt lat="45.0605" lon="2.78276">
        <ele>1515</ele>
        <time>2016-09-05T13:15:48Z</time>
      </trkpt>
      <trkpt lat="45.06057" lon="2.78282">
        <ele>1515</ele>
        <time>2016-09-05T13:15:57Z</time>
      </trkpt>
      <trkpt lat="45.06058" lon="2.78283">
        <ele>1514</ele>
        <time>2016-09-05T13:15:58Z</time>
      </trkpt>
      <trkpt lat="45.06065" lon="2.78287">
        <ele>1514</ele>
        <time>2016-09-05T13:16:06Z</time>
      </trkpt>
      <trkpt lat="45.06066" lon="2.78287">
        <ele>1514</ele>
        <time>2016-09-05T13:16:07Z</time>
      </trkpt>
      <trkpt lat="45.06074" lon="2.78291">
        <ele>1514</ele>
        <time>2016-09-05T13:16:15Z</time>
      </trkpt>
      <trkpt lat="45.06075" lon="2.78291">
        <ele>1514</ele>
        <time>2016-09-05T13:16:16Z</time>
      </trkpt>
      <trkpt lat="45.06083" lon="2.78295">
        <ele>1514</ele>
        <time>2016-09-05T13:16:24Z</time>
      </trkpt>
      <trkpt lat="45.06083" lon="2.78296">
        <ele>1514</ele>
        <time>2016-09-05T13:16:25Z</time>
      </trkpt>
      <trkpt lat="45.06091" lon="2.78297">
        <ele>1518</ele>
        <time>2016-09-05T13:16:34Z</time>
      </trkpt>
      <trkpt lat="45.06092" lon="2.78297">
        <ele>1518</ele>
        <time>2016-09-05T13:16:35Z</time>
      </trkpt>
      <trkpt lat="45.06101" lon="2.78296">
        <ele>1519</ele>
        <time>2016-09-05T13:16:43Z</time>
      </trkpt>
      <trkpt lat="45.06102" lon="2.78296">
        <ele>1519</ele>
        <time>2016-09-05T13:16:44Z</time>
      </trkpt>
      <trkpt lat="45.0611" lon="2.783">
        <ele>1519</ele>
        <time>2016-09-05T13:16:53Z</time>
      </trkpt>
      <trkpt lat="45.06111" lon="2.783">
        <ele>1519</ele>
        <time>2016-09-05T13:16:54Z</time>
      </trkpt>
      <trkpt lat="45.06119" lon="2.78297">
        <ele>1519</ele>
        <time>2016-09-05T13:17:04Z</time>
      </trkpt>
      <trkpt lat="45.0612" lon="2.78297">
        <ele>1520</ele>
        <time>2016-09-05T13:17:05Z</time>
      </trkpt>
      <trkpt lat="45.06129" lon="2.78297">
        <ele>1520</ele>
        <time>2016-09-05T13:17:18Z</time>
      </trkpt>
      <trkpt lat="45.0613" lon="2.78298">
        <ele>1520</ele>
        <time>2016-09-05T13:17:19Z</time>
      </trkpt>
      <trkpt lat="45.06138" lon="2.78302">
        <ele>1520</ele>
        <time>2016-09-05T13:17:29Z</time>
      </trkpt>
      <trkpt lat="45.06139" lon="2.78302">
        <ele>1520</ele>
        <time>2016-09-05T13:17:30Z</time>
      </trkpt>
      <trkpt lat="45.06148" lon="2.78304">
        <ele>1520</ele>
        <time>2016-09-05T13:17:41Z</time>
      </trkpt>
      <trkpt lat="45.06149" lon="2.78304">
        <ele>1520</ele>
        <time>2016-09-05T13:17:42Z</time>
      </trkpt>
      <trkpt lat="45.06157" lon="2.78309">
        <ele>1519</ele>
        <time>2016-09-05T13:17:51Z</time>
      </trkpt>
      <trkpt lat="45.06158" lon="2.7831">
        <ele>1519</ele>
        <time>2016-09-05T13:17:52Z</time>
      </trkpt>
      <trkpt lat="45.06166" lon="2.78313">
        <ele>1518</ele>
        <time>2016-09-05T13:18:05Z</time>
      </trkpt>
      <trkpt lat="45.06167" lon="2.78314">
        <ele>1521</ele>
        <time>2016-09-05T13:18:06Z</time>
      </trkpt>
      <trkpt lat="45.06176" lon="2.78316">
        <ele>1521</ele>
        <time>2016-09-05T13:18:22Z</time>
      </trkpt>
      <trkpt lat="45.06176" lon="2.78316">
        <ele>1521</ele>
        <time>2016-09-05T13:18:23Z</time>
      </trkpt>
      <trkpt lat="45.06185" lon="2.78318">
        <ele>1521</ele>
        <time>2016-09-05T13:18:35Z</time>
      </trkpt>
      <trkpt lat="45.06185" lon="2.78318">
        <ele>1521</ele>
        <time>2016-09-05T13:18:36Z</time>
      </trkpt>
      <trkpt lat="45.06194" lon="2.7832">
        <ele>1522</ele>
        <time>2016-09-05T13:18:47Z</time>
      </trkpt>
      <trkpt lat="45.06195" lon="2.78321">
        <ele>1522</ele>
        <time>2016-09-05T13:18:48Z</time>
      </trkpt>
      <trkpt lat="45.06203" lon="2.7832">
        <ele>1523</ele>
        <time>2016-09-05T13:18:58Z</time>
      </trkpt>
      <trkpt lat="45.06204" lon="2.7832">
        <ele>1523</ele>
        <time>2016-09-05T13:18:59Z</time>
      </trkpt>
      <trkpt lat="45.06213" lon="2.78317">
        <ele>1523</ele>
        <time>2016-09-05T13:19:42Z</time>
      </trkpt>
      <trkpt lat="45.06214" lon="2.78317">
        <ele>1523</ele>
        <time>2016-09-05T13:19:43Z</time>
      </trkpt>
      <trkpt lat="45.06222" lon="2.78317">
        <ele>1524</ele>
        <time>2016-09-05T13:19:52Z</time>
      </trkpt>
      <trkpt lat="45.06223" lon="2.78316">
        <ele>1524</ele>
        <time>2016-09-05T13:19:53Z</time>
      </trkpt>
      <trkpt lat="45.06231" lon="2.78314">
        <ele>1524</ele>
        <time>2016-09-05T13:20:03Z</time>
      </trkpt>
      <trkpt lat="45.06232" lon="2.78314">
        <ele>1524</ele>
        <time>2016-09-05T13:20:04Z</time>
      </trkpt>
      <trkpt lat="45.0624" lon="2.78312">
        <ele>1524</ele>
        <time>2016-09-05T13:20:13Z</time>
      </trkpt>
      <trkpt lat="45.06241" lon="2.78312">
        <ele>1524</ele>
        <time>2016-09-05T13:20:14Z</time>
      </trkpt>
      <trkpt lat="45.06249" lon="2.78305">
        <ele>1524</ele>
        <time>2016-09-05T13:20:25Z</time>
      </trkpt>
      <trkpt lat="45.06249" lon="2.78304">
        <ele>1525</ele>
        <time>2016-09-05T13:20:26Z</time>
      </trkpt>
      <trkpt lat="45.06257" lon="2.78302">
        <ele>1526</ele>
        <time>2016-09-05T13:20:48Z</time>
      </trkpt>
      <trkpt lat="45.06258" lon="2.78302">
        <ele>1526</ele>
        <time>2016-09-05T13:20:49Z</time>
      </trkpt>
      <trkpt lat="45.06265" lon="2.78298">
        <ele>1526</ele>
        <time>2016-09-05T13:21:01Z</time>
      </trkpt>
      <trkpt lat="45.06266" lon="2.78297">
        <ele>1527</ele>
        <time>2016-09-05T13:21:02Z</time>
      </trkpt>
      <trkpt lat="45.06273" lon="2.7829">
        <ele>1527</ele>
        <time>2016-09-05T13:21:11Z</time>
      </trkpt>
      <trkpt lat="45.06274" lon="2.78289">
        <ele>1527</ele>
        <time>2016-09-05T13:21:12Z</time>
      </trkpt>
      <trkpt lat="45.06282" lon="2.78289">
        <ele>1527</ele>
        <time>2016-09-05T13:21:21Z</time>
      </trkpt>
      <trkpt lat="45.06283" lon="2.78289">
        <ele>1527</ele>
        <time>2016-09-05T13:21:22Z</time>
      </trkpt>
      <trkpt lat="45.06291" lon="2.78294">
        <ele>1527</ele>
        <time>2016-09-05T13:21:30Z</time>
      </trkpt>
      <trkpt lat="45.06292" lon="2.78295">
        <ele>1527</ele>
        <time>2016-09-05T13:21:31Z</time>
      </trkpt>
      <trkpt lat="45.06299" lon="2.78298">
        <ele>1527</ele>
        <time>2016-09-05T13:21:39Z</time>
      </trkpt>
      <trkpt lat="45.063" lon="2.78298">
        <ele>1527</ele>
        <time>2016-09-05T13:21:40Z</time>
      </trkpt>
      <trkpt lat="45.06309" lon="2.78302">
        <ele>1527</ele>
        <time>2016-09-05T13:21:48Z</time>
      </trkpt>
      <trkpt lat="45.0631" lon="2.78302">
        <ele>1527</ele>
        <time>2016-09-05T13:21:49Z</time>
      </trkpt>
      <trkpt lat="45.06318" lon="2.78306">
        <ele>1526</ele>
        <time>2016-09-05T13:21:57Z</time>
      </trkpt>
      <trkpt lat="45.06319" lon="2.78306">
        <ele>1526</ele>
        <time>2016-09-05T13:21:58Z</time>
      </trkpt>
      <trkpt lat="45.06327" lon="2.7831">
        <ele>1526</ele>
        <time>2016-09-05T13:22:06Z</time>
      </trkpt>
      <trkpt lat="45.06328" lon="2.78311">
        <ele>1526</ele>
        <time>2016-09-05T13:22:07Z</time>
      </trkpt>
      <trkpt lat="45.06336" lon="2.78316">
        <ele>1526</ele>
        <time>2016-09-05T13:22:16Z</time>
      </trkpt>
      <trkpt lat="45.06337" lon="2.78317">
        <ele>1526</ele>
        <time>2016-09-05T13:22:17Z</time>
      </trkpt>
      <trkpt lat="45.06345" lon="2.78321">
        <ele>1526</ele>
        <time>2016-09-05T13:22:25Z</time>
      </trkpt>
      <trkpt lat="45.06345" lon="2.78321">
        <ele>1526</ele>
        <time>2016-09-05T13:22:26Z</time>
      </trkpt>
      <trkpt lat="45.06354" lon="2.78325">
        <ele>1527</ele>
        <time>2016-09-05T13:22:34Z</time>
      </trkpt>
      <trkpt lat="45.06355" lon="2.78326">
        <ele>1527</ele>
        <time>2016-09-05T13:22:35Z</time>
      </trkpt>
      <trkpt lat="45.06363" lon="2.78329">
        <ele>1527</ele>
        <time>2016-09-05T13:22:43Z</time>
      </trkpt>
      <trkpt lat="45.06364" lon="2.78329">
        <ele>1527</ele>
        <time>2016-09-05T13:22:44Z</time>
      </trkpt>
      <trkpt lat="45.06372" lon="2.78333">
        <ele>1527</ele>
        <time>2016-09-05T13:22:52Z</time>
      </trkpt>
      <trkpt lat="45.06373" lon="2.78333">
        <ele>1521</ele>
        <time>2016-09-05T13:22:53Z</time>
      </trkpt>
      <trkpt lat="45.06381" lon="2.78337">
        <ele>1522</ele>
        <time>2016-09-05T13:23:02Z</time>
      </trkpt>
      <trkpt lat="45.06382" lon="2.78337">
        <ele>1522</ele>
        <time>2016-09-05T13:23:03Z</time>
      </trkpt>
      <trkpt lat="45.06389" lon="2.7833">
        <ele>1528</ele>
        <time>2016-09-05T13:23:15Z</time>
      </trkpt>
      <trkpt lat="45.06389" lon="2.7833">
        <ele>1528</ele>
        <time>2016-09-05T13:23:16Z</time>
      </trkpt>
      <trkpt lat="45.06397" lon="2.78323">
        <ele>1528</ele>
        <time>2016-09-05T13:23:26Z</time>
      </trkpt>
      <trkpt lat="45.06398" lon="2.78323">
        <ele>1528</ele>
        <time>2016-09-05T13:23:27Z</time>
      </trkpt>
      <trkpt lat="45.06406" lon="2.78321">
        <ele>1528</ele>
        <time>2016-09-05T13:23:36Z</time>
      </trkpt>
      <trkpt lat="45.06407" lon="2.78321">
        <ele>1528</ele>
        <time>2016-09-05T13:23:37Z</time>
      </trkpt>
      <trkpt lat="45.06415" lon="2.78317">
        <ele>1528</ele>
        <time>2016-09-05T13:23:48Z</time>
      </trkpt>
      <trkpt lat="45.06415" lon="2.78317">
        <ele>1528</ele>
        <time>2016-09-05T13:23:49Z</time>
      </trkpt>
      <trkpt lat="45.06423" lon="2.78313">
        <ele>1532</ele>
        <time>2016-09-05T13:24:03Z</time>
      </trkpt>
      <trkpt lat="45.06424" lon="2.78313">
        <ele>1532</ele>
        <time>2016-09-05T13:24:04Z</time>
      </trkpt>
      <trkpt lat="45.06432" lon="2.78319">
        <ele>1532</ele>
        <time>2016-09-05T13:24:24Z</time>
      </trkpt>
      <trkpt lat="45.06433" lon="2.7832">
        <ele>1532</ele>
        <time>2016-09-05T13:24:25Z</time>
      </trkpt>
      <trkpt lat="45.06441" lon="2.78324">
        <ele>1533</ele>
        <time>2016-09-05T13:24:47Z</time>
      </trkpt>
      <trkpt lat="45.06441" lon="2.78324">
        <ele>1533</ele>
        <time>2016-09-05T13:24:48Z</time>
      </trkpt>
      <trkpt lat="45.06449" lon="2.7833">
        <ele>1534</ele>
        <time>2016-09-05T13:25:00Z</time>
      </trkpt>
      <trkpt lat="45.0645" lon="2.7833">
        <ele>1534</ele>
        <time>2016-09-05T13:25:01Z</time>
      </trkpt>
      <trkpt lat="45.06456" lon="2.78339">
        <ele>1529</ele>
        <time>2016-09-05T13:25:14Z</time>
      </trkpt>
      <trkpt lat="45.06457" lon="2.7834">
        <ele>1529</ele>
        <time>2016-09-05T13:25:15Z</time>
      </trkpt>
      <trkpt lat="45.06465" lon="2.78344">
        <ele>1530</ele>
        <time>2016-09-05T13:25:27Z</time>
      </trkpt>
      <trkpt lat="45.06465" lon="2.78344">
        <ele>1530</ele>
        <time>2016-09-05T13:25:28Z</time>
      </trkpt>
      <trkpt lat="45.06473" lon="2.78351">
        <ele>1531</ele>
        <time>2016-09-05T13:25:40Z</time>
      </trkpt>
      <trkpt lat="45.06473" lon="2.78352">
        <ele>1531</ele>
        <time>2016-09-05T13:25:41Z</time>
      </trkpt>
      <trkpt lat="45.06477" lon="2.78362">
        <ele>1530</ele>
        <time>2016-09-05T13:25:52Z</time>
      </trkpt>
      <trkpt lat="45.06477" lon="2.78363">
        <ele>1530</ele>
        <time>2016-09-05T13:25:53Z</time>
      </trkpt>
      <trkpt lat="45.06483" lon="2.78372">
        <ele>1530</ele>
        <time>2016-09-05T13:26:08Z</time>
      </trkpt>
      <trkpt lat="45.06484" lon="2.78373">
        <ele>1530</ele>
        <time>2016-09-05T13:26:09Z</time>
      </trkpt>
      <trkpt lat="45.06486" lon="2.78384">
        <ele>1529</ele>
        <time>2016-09-05T13:26:19Z</time>
      </trkpt>
      <trkpt lat="45.06486" lon="2.78385">
        <ele>1529</ele>
        <time>2016-09-05T13:26:20Z</time>
      </trkpt>
      <trkpt lat="45.06491" lon="2.78396">
        <ele>1529</ele>
        <time>2016-09-05T13:26:34Z</time>
      </trkpt>
      <trkpt lat="45.06491" lon="2.78396">
        <ele>1529</ele>
        <time>2016-09-05T13:26:35Z</time>
      </trkpt>
      <trkpt lat="45.06493" lon="2.78408">
        <ele>1530</ele>
        <time>2016-09-05T13:27:08Z</time>
      </trkpt>
      <trkpt lat="45.06493" lon="2.78409">
        <ele>1530</ele>
        <time>2016-09-05T13:27:09Z</time>
      </trkpt>
      <trkpt lat="45.0649" lon="2.7842">
        <ele>1527</ele>
        <time>2016-09-05T13:27:23Z</time>
      </trkpt>
      <trkpt lat="45.0649" lon="2.78421">
        <ele>1527</ele>
        <time>2016-09-05T13:27:24Z</time>
      </trkpt>
      <trkpt lat="45.06491" lon="2.78433">
        <ele>1525</ele>
        <time>2016-09-05T13:27:36Z</time>
      </trkpt>
      <trkpt lat="45.06491" lon="2.78434">
        <ele>1525</ele>
        <time>2016-09-05T13:27:37Z</time>
      </trkpt>
      <trkpt lat="45.06487" lon="2.78445">
        <ele>1523</ele>
        <time>2016-09-05T13:27:52Z</time>
      </trkpt>
      <trkpt lat="45.06486" lon="2.78446">
        <ele>1523</ele>
        <time>2016-09-05T13:27:53Z</time>
      </trkpt>
      <trkpt lat="45.06483" lon="2.78457">
        <ele>1522</ele>
        <time>2016-09-05T13:28:08Z</time>
      </trkpt>
      <trkpt lat="45.06483" lon="2.78458">
        <ele>1522</ele>
        <time>2016-09-05T13:28:09Z</time>
      </trkpt>
      <trkpt lat="45.06478" lon="2.78468">
        <ele>1521</ele>
        <time>2016-09-05T13:28:30Z</time>
      </trkpt>
      <trkpt lat="45.06478" lon="2.78468">
        <ele>1521</ele>
        <time>2016-09-05T13:28:31Z</time>
      </trkpt>
      <trkpt lat="45.0647" lon="2.78475">
        <ele>1520</ele>
        <time>2016-09-05T13:28:43Z</time>
      </trkpt>
      <trkpt lat="45.06469" lon="2.78475">
        <ele>1520</ele>
        <time>2016-09-05T13:28:44Z</time>
      </trkpt>
      <trkpt lat="45.06462" lon="2.78484">
        <ele>1519</ele>
        <time>2016-09-05T13:28:55Z</time>
      </trkpt>
      <trkpt lat="45.06462" lon="2.78484">
        <ele>1519</ele>
        <time>2016-09-05T13:28:56Z</time>
      </trkpt>
      <trkpt lat="45.06464" lon="2.78496">
        <ele>1519</ele>
        <time>2016-09-05T13:29:07Z</time>
      </trkpt>
      <trkpt lat="45.06465" lon="2.78497">
        <ele>1519</ele>
        <time>2016-09-05T13:29:08Z</time>
      </trkpt>
      <trkpt lat="45.06469" lon="2.78507">
        <ele>1516</ele>
        <time>2016-09-05T13:29:16Z</time>
      </trkpt>
      <trkpt lat="45.0647" lon="2.78508">
        <ele>1516</ele>
        <time>2016-09-05T13:29:17Z</time>
      </trkpt>
      <trkpt lat="45.0647" lon="2.7852">
        <ele>1516</ele>
        <time>2016-09-05T13:29:27Z</time>
      </trkpt>
      <trkpt lat="45.0647" lon="2.78521">
        <ele>1516</ele>
        <time>2016-09-05T13:29:28Z</time>
      </trkpt>
      <trkpt lat="45.06468" lon="2.78533">
        <ele>1515</ele>
        <time>2016-09-05T13:29:37Z</time>
      </trkpt>
      <trkpt lat="45.06468" lon="2.78534">
        <ele>1515</ele>
        <time>2016-09-05T13:29:38Z</time>
      </trkpt>
      <trkpt lat="45.06466" lon="2.78546">
        <ele>1514</ele>
        <time>2016-09-05T13:29:47Z</time>
      </trkpt>
      <trkpt lat="45.06466" lon="2.78547">
        <ele>1514</ele>
        <time>2016-09-05T13:29:48Z</time>
      </trkpt>
      <trkpt lat="45.06466" lon="2.78559">
        <ele>1514</ele>
        <time>2016-09-05T13:29:59Z</time>
      </trkpt>
      <trkpt lat="45.06466" lon="2.7856">
        <ele>1514</ele>
        <time>2016-09-05T13:30:00Z</time>
      </trkpt>
      <trkpt lat="45.06472" lon="2.78569">
        <ele>1515</ele>
        <time>2016-09-05T13:30:09Z</time>
      </trkpt>
      <trkpt lat="45.06472" lon="2.7857">
        <ele>1515</ele>
        <time>2016-09-05T13:30:10Z</time>
      </trkpt>
      <trkpt lat="45.06479" lon="2.78579">
        <ele>1516</ele>
        <time>2016-09-05T13:30:24Z</time>
      </trkpt>
      <trkpt lat="45.06479" lon="2.78579">
        <ele>1516</ele>
        <time>2016-09-05T13:30:25Z</time>
      </trkpt>
      <trkpt lat="45.06485" lon="2.78588">
        <ele>1514</ele>
        <time>2016-09-05T13:30:35Z</time>
      </trkpt>
      <trkpt lat="45.06486" lon="2.78589">
        <ele>1514</ele>
        <time>2016-09-05T13:30:36Z</time>
      </trkpt>
      <trkpt lat="45.06489" lon="2.786">
        <ele>1513</ele>
        <time>2016-09-05T13:30:46Z</time>
      </trkpt>
      <trkpt lat="45.0649" lon="2.78601">
        <ele>1513</ele>
        <time>2016-09-05T13:30:47Z</time>
      </trkpt>
      <trkpt lat="45.06489" lon="2.78613">
        <ele>1512</ele>
        <time>2016-09-05T13:30:57Z</time>
      </trkpt>
      <trkpt lat="45.06489" lon="2.78614">
        <ele>1512</ele>
        <time>2016-09-05T13:30:58Z</time>
      </trkpt>
      <trkpt lat="45.06486" lon="2.78626">
        <ele>1511</ele>
        <time>2016-09-05T13:31:08Z</time>
      </trkpt>
      <trkpt lat="45.06485" lon="2.78626">
        <ele>1511</ele>
        <time>2016-09-05T13:31:09Z</time>
      </trkpt>
      <trkpt lat="45.06484" lon="2.78638">
        <ele>1510</ele>
        <time>2016-09-05T13:31:18Z</time>
      </trkpt>
      <trkpt lat="45.06484" lon="2.7864">
        <ele>1510</ele>
        <time>2016-09-05T13:31:19Z</time>
      </trkpt>
      <trkpt lat="45.0648" lon="2.78651">
        <ele>1510</ele>
        <time>2016-09-05T13:31:38Z</time>
      </trkpt>
      <trkpt lat="45.0648" lon="2.78652">
        <ele>1510</ele>
        <time>2016-09-05T13:31:39Z</time>
      </trkpt>
      <trkpt lat="45.06478" lon="2.78664">
        <ele>1510</ele>
        <time>2016-09-05T13:31:47Z</time>
      </trkpt>
      <trkpt lat="45.06477" lon="2.78665">
        <ele>1510</ele>
        <time>2016-09-05T13:31:48Z</time>
      </trkpt>
      <trkpt lat="45.06475" lon="2.78677">
        <ele>1507</ele>
        <time>2016-09-05T13:31:57Z</time>
      </trkpt>
      <trkpt lat="45.06475" lon="2.78678">
        <ele>1507</ele>
        <time>2016-09-05T13:31:58Z</time>
      </trkpt>
      <trkpt lat="45.06473" lon="2.78689">
        <ele>1506</ele>
        <time>2016-09-05T13:32:07Z</time>
      </trkpt>
      <trkpt lat="45.06473" lon="2.7869">
        <ele>1505</ele>
        <time>2016-09-05T13:32:08Z</time>
      </trkpt>
      <trkpt lat="45.06469" lon="2.78701">
        <ele>1504</ele>
        <time>2016-09-05T13:32:18Z</time>
      </trkpt>
      <trkpt lat="45.06469" lon="2.78703">
        <ele>1504</ele>
        <time>2016-09-05T13:32:19Z</time>
      </trkpt>
      <trkpt lat="45.0647" lon="2.78715">
        <ele>1504</ele>
        <time>2016-09-05T13:32:28Z</time>
      </trkpt>
      <trkpt lat="45.0647" lon="2.78716">
        <ele>1504</ele>
        <time>2016-09-05T13:32:29Z</time>
      </trkpt>
      <trkpt lat="45.0647" lon="2.78728">
        <ele>1504</ele>
        <time>2016-09-05T13:32:38Z</time>
      </trkpt>
      <trkpt lat="45.0647" lon="2.7873">
        <ele>1504</ele>
        <time>2016-09-05T13:32:39Z</time>
      </trkpt>
      <trkpt lat="45.06468" lon="2.78741">
        <ele>1504</ele>
        <time>2016-09-05T13:32:46Z</time>
      </trkpt>
      <trkpt lat="45.06468" lon="2.78742">
        <ele>1504</ele>
        <time>2016-09-05T13:32:47Z</time>
      </trkpt>
      <trkpt lat="45.06469" lon="2.78754">
        <ele>1501</ele>
        <time>2016-09-05T13:32:55Z</time>
      </trkpt>
      <trkpt lat="45.06469" lon="2.78755">
        <ele>1501</ele>
        <time>2016-09-05T13:32:56Z</time>
      </trkpt>
      <trkpt lat="45.06473" lon="2.78765">
        <ele>1501</ele>
        <time>2016-09-05T13:33:04Z</time>
      </trkpt>
      <trkpt lat="45.06473" lon="2.78767">
        <ele>1501</ele>
        <time>2016-09-05T13:33:05Z</time>
      </trkpt>
      <trkpt lat="45.06476" lon="2.78778">
        <ele>1500</ele>
        <time>2016-09-05T13:33:14Z</time>
      </trkpt>
      <trkpt lat="45.06476" lon="2.78779">
        <ele>1500</ele>
        <time>2016-09-05T13:33:15Z</time>
      </trkpt>
      <trkpt lat="45.0648" lon="2.78789">
        <ele>1500</ele>
        <time>2016-09-05T13:33:24Z</time>
      </trkpt>
      <trkpt lat="45.0648" lon="2.78791">
        <ele>1500</ele>
        <time>2016-09-05T13:33:25Z</time>
      </trkpt>
      <trkpt lat="45.06484" lon="2.78801">
        <ele>1500</ele>
        <time>2016-09-05T13:33:33Z</time>
      </trkpt>
      <trkpt lat="45.06484" lon="2.78802">
        <ele>1499</ele>
        <time>2016-09-05T13:33:34Z</time>
      </trkpt>
      <trkpt lat="45.06486" lon="2.78814">
        <ele>1499</ele>
        <time>2016-09-05T13:33:42Z</time>
      </trkpt>
      <trkpt lat="45.06487" lon="2.78815">
        <ele>1499</ele>
        <time>2016-09-05T13:33:43Z</time>
      </trkpt>
      <trkpt lat="45.0649" lon="2.78827">
        <ele>1500</ele>
        <time>2016-09-05T13:33:52Z</time>
      </trkpt>
      <trkpt lat="45.0649" lon="2.78828">
        <ele>1500</ele>
        <time>2016-09-05T13:33:53Z</time>
      </trkpt>
      <trkpt lat="45.06492" lon="2.7884">
        <ele>1497</ele>
        <time>2016-09-05T13:34:02Z</time>
      </trkpt>
      <trkpt lat="45.06492" lon="2.78842">
        <ele>1497</ele>
        <time>2016-09-05T13:34:03Z</time>
      </trkpt>
      <trkpt lat="45.06494" lon="2.78853">
        <ele>1494</ele>
        <time>2016-09-05T13:34:11Z</time>
      </trkpt>
      <trkpt lat="45.06494" lon="2.78855">
        <ele>1494</ele>
        <time>2016-09-05T13:34:12Z</time>
      </trkpt>
      <trkpt lat="45.06499" lon="2.78865">
        <ele>1493</ele>
        <time>2016-09-05T13:34:20Z</time>
      </trkpt>
      <trkpt lat="45.06499" lon="2.78867">
        <ele>1493</ele>
        <time>2016-09-05T13:34:21Z</time>
      </trkpt>
      <trkpt lat="45.06505" lon="2.78876">
        <ele>1500</ele>
        <time>2016-09-05T13:34:32Z</time>
      </trkpt>
      <trkpt lat="45.06505" lon="2.78876">
        <ele>1500</ele>
        <time>2016-09-05T13:34:33Z</time>
      </trkpt>
      <trkpt lat="45.06513" lon="2.78883">
        <ele>1500</ele>
        <time>2016-09-05T13:34:43Z</time>
      </trkpt>
      <trkpt lat="45.06514" lon="2.78883">
        <ele>1500</ele>
        <time>2016-09-05T13:34:44Z</time>
      </trkpt>
      <trkpt lat="45.0652" lon="2.78892">
        <ele>1500</ele>
        <time>2016-09-05T13:34:53Z</time>
      </trkpt>
      <trkpt lat="45.06521" lon="2.78893">
        <ele>1500</ele>
        <time>2016-09-05T13:34:54Z</time>
      </trkpt>
      <trkpt lat="45.06529" lon="2.78898">
        <ele>1500</ele>
        <time>2016-09-05T13:35:02Z</time>
      </trkpt>
      <trkpt lat="45.06529" lon="2.78899">
        <ele>1500</ele>
        <time>2016-09-05T13:35:03Z</time>
      </trkpt>
      <trkpt lat="45.06536" lon="2.78906">
        <ele>1500</ele>
        <time>2016-09-05T13:35:12Z</time>
      </trkpt>
      <trkpt lat="45.06537" lon="2.78907">
        <ele>1500</ele>
        <time>2016-09-05T13:35:13Z</time>
      </trkpt>
      <trkpt lat="45.06545" lon="2.78912">
        <ele>1501</ele>
        <time>2016-09-05T13:35:22Z</time>
      </trkpt>
      <trkpt lat="45.06545" lon="2.78912">
        <ele>1501</ele>
        <time>2016-09-05T13:35:23Z</time>
      </trkpt>
      <trkpt lat="45.06553" lon="2.78917">
        <ele>1495</ele>
        <time>2016-09-05T13:35:32Z</time>
      </trkpt>
      <trkpt lat="45.06554" lon="2.78918">
        <ele>1495</ele>
        <time>2016-09-05T13:35:33Z</time>
      </trkpt>
      <trkpt lat="45.06561" lon="2.78921">
        <ele>1496</ele>
        <time>2016-09-05T13:35:42Z</time>
      </trkpt>
      <trkpt lat="45.06563" lon="2.78921">
        <ele>1497</ele>
        <time>2016-09-05T13:35:43Z</time>
      </trkpt>
      <trkpt lat="45.06571" lon="2.78922">
        <ele>1498</ele>
        <time>2016-09-05T13:35:52Z</time>
      </trkpt>
      <trkpt lat="45.06572" lon="2.78922">
        <ele>1498</ele>
        <time>2016-09-05T13:35:53Z</time>
      </trkpt>
      <trkpt lat="45.0658" lon="2.78922">
        <ele>1500</ele>
        <time>2016-09-05T13:36:03Z</time>
      </trkpt>
      <trkpt lat="45.06581" lon="2.78922">
        <ele>1500</ele>
        <time>2016-09-05T13:36:04Z</time>
      </trkpt>
      <trkpt lat="45.06589" lon="2.78919">
        <ele>1500</ele>
        <time>2016-09-05T13:36:12Z</time>
      </trkpt>
      <trkpt lat="45.0659" lon="2.78918">
        <ele>1500</ele>
        <time>2016-09-05T13:36:13Z</time>
      </trkpt>
      <trkpt lat="45.06598" lon="2.78918">
        <ele>1498</ele>
        <time>2016-09-05T13:36:20Z</time>
      </trkpt>
      <trkpt lat="45.066" lon="2.78918">
        <ele>1498</ele>
        <time>2016-09-05T13:36:21Z</time>
      </trkpt>
      <trkpt lat="45.06607" lon="2.78913">
        <ele>1503</ele>
        <time>2016-09-05T13:36:30Z</time>
      </trkpt>
      <trkpt lat="45.06608" lon="2.78913">
        <ele>1503</ele>
        <time>2016-09-05T13:36:31Z</time>
      </trkpt>
      <trkpt lat="45.06617" lon="2.78912">
        <ele>1503</ele>
        <time>2016-09-05T13:36:41Z</time>
      </trkpt>
      <trkpt lat="45.06617" lon="2.78912">
        <ele>1503</ele>
        <time>2016-09-05T13:36:42Z</time>
      </trkpt>
      <trkpt lat="45.06626" lon="2.7891">
        <ele>1503</ele>
        <time>2016-09-05T13:36:50Z</time>
      </trkpt>
      <trkpt lat="45.06627" lon="2.78911">
        <ele>1502</ele>
        <time>2016-09-05T13:36:51Z</time>
      </trkpt>
      <trkpt lat="45.06635" lon="2.78909">
        <ele>1502</ele>
        <time>2016-09-05T13:36:59Z</time>
      </trkpt>
      <trkpt lat="45.06636" lon="2.78909">
        <ele>1502</ele>
        <time>2016-09-05T13:37:00Z</time>
      </trkpt>
      <trkpt lat="45.06645" lon="2.78906">
        <ele>1501</ele>
        <time>2016-09-05T13:37:08Z</time>
      </trkpt>
      <trkpt lat="45.06646" lon="2.78906">
        <ele>1501</ele>
        <time>2016-09-05T13:37:09Z</time>
      </trkpt>
      <trkpt lat="45.06654" lon="2.78903">
        <ele>1500</ele>
        <time>2016-09-05T13:37:17Z</time>
      </trkpt>
      <trkpt lat="45.06655" lon="2.78902">
        <ele>1500</ele>
        <time>2016-09-05T13:37:18Z</time>
      </trkpt>
      <trkpt lat="45.06663" lon="2.789">
        <ele>1500</ele>
        <time>2016-09-05T13:37:25Z</time>
      </trkpt>
      <trkpt lat="45.06664" lon="2.78899">
        <ele>1500</ele>
        <time>2016-09-05T13:37:26Z</time>
      </trkpt>
      <trkpt lat="45.06672" lon="2.78895">
        <ele>1492</ele>
        <time>2016-09-05T13:37:34Z</time>
      </trkpt>
      <trkpt lat="45.06673" lon="2.78895">
        <ele>1492</ele>
        <time>2016-09-05T13:37:35Z</time>
      </trkpt>
      <trkpt lat="45.06681" lon="2.78893">
        <ele>1491</ele>
        <time>2016-09-05T13:37:44Z</time>
      </trkpt>
      <trkpt lat="45.06682" lon="2.78893">
        <ele>1491</ele>
        <time>2016-09-05T13:37:45Z</time>
      </trkpt>
      <trkpt lat="45.0669" lon="2.78892">
        <ele>1490</ele>
        <time>2016-09-05T13:37:54Z</time>
      </trkpt>
      <trkpt lat="45.06691" lon="2.78892">
        <ele>1490</ele>
        <time>2016-09-05T13:37:55Z</time>
      </trkpt>
      <trkpt lat="45.06699" lon="2.78895">
        <ele>1489</ele>
        <time>2016-09-05T13:38:06Z</time>
      </trkpt>
      <trkpt lat="45.067" lon="2.78895">
        <ele>1489</ele>
        <time>2016-09-05T13:38:07Z</time>
      </trkpt>
      <trkpt lat="45.06709" lon="2.78899">
        <ele>1488</ele>
        <time>2016-09-05T13:38:17Z</time>
      </trkpt>
      <trkpt lat="45.0671" lon="2.78899">
        <ele>1487</ele>
        <time>2016-09-05T13:38:18Z</time>
      </trkpt>
      <trkpt lat="45.06717" lon="2.78902">
        <ele>1486</ele>
        <time>2016-09-05T13:38:26Z</time>
      </trkpt>
      <trkpt lat="45.06718" lon="2.78903">
        <ele>1486</ele>
        <time>2016-09-05T13:38:27Z</time>
      </trkpt>
      <trkpt lat="45.06725" lon="2.78911">
        <ele>1484</ele>
        <time>2016-09-05T13:38:35Z</time>
      </trkpt>
      <trkpt lat="45.06725" lon="2.78912">
        <ele>1483</ele>
        <time>2016-09-05T13:38:36Z</time>
      </trkpt>
      <trkpt lat="45.0673" lon="2.78922">
        <ele>1476</ele>
        <time>2016-09-05T13:39:03Z</time>
      </trkpt>
      <trkpt lat="45.0673" lon="2.78923">
        <ele>1476</ele>
        <time>2016-09-05T13:39:04Z</time>
      </trkpt>
      <trkpt lat="45.06729" lon="2.78935">
        <ele>1476</ele>
        <time>2016-09-05T13:39:29Z</time>
      </trkpt>
      <trkpt lat="45.06728" lon="2.78936">
        <ele>1476</ele>
        <time>2016-09-05T13:39:30Z</time>
      </trkpt>
      <trkpt lat="45.06725" lon="2.78947">
        <ele>1476</ele>
        <time>2016-09-05T13:39:39Z</time>
      </trkpt>
      <trkpt lat="45.06724" lon="2.78948">
        <ele>1476</ele>
        <time>2016-09-05T13:39:40Z</time>
      </trkpt>
      <trkpt lat="45.06721" lon="2.78959">
        <ele>1475</ele>
        <time>2016-09-05T13:39:49Z</time>
      </trkpt>
      <trkpt lat="45.0672" lon="2.7896">
        <ele>1475</ele>
        <time>2016-09-05T13:39:50Z</time>
      </trkpt>
      <trkpt lat="45.06716" lon="2.7897">
        <ele>1475</ele>
        <time>2016-09-05T13:40:00Z</time>
      </trkpt>
      <trkpt lat="45.06716" lon="2.78971">
        <ele>1475</ele>
        <time>2016-09-05T13:40:01Z</time>
      </trkpt>
      <trkpt lat="45.06711" lon="2.78982">
        <ele>1475</ele>
        <time>2016-09-05T13:40:10Z</time>
      </trkpt>
      <trkpt lat="45.06711" lon="2.78984">
        <ele>1475</ele>
        <time>2016-09-05T13:40:11Z</time>
      </trkpt>
      <trkpt lat="45.06709" lon="2.78995">
        <ele>1475</ele>
        <time>2016-09-05T13:40:19Z</time>
      </trkpt>
      <trkpt lat="45.06708" lon="2.78996">
        <ele>1475</ele>
        <time>2016-09-05T13:40:20Z</time>
      </trkpt>
      <trkpt lat="45.06704" lon="2.79006">
        <ele>1468</ele>
        <time>2016-09-05T13:40:28Z</time>
      </trkpt>
      <trkpt lat="45.06704" lon="2.79007">
        <ele>1469</ele>
        <time>2016-09-05T13:40:29Z</time>
      </trkpt>
      <trkpt lat="45.06702" lon="2.79019">
        <ele>1468</ele>
        <time>2016-09-05T13:40:38Z</time>
      </trkpt>
      <trkpt lat="45.06701" lon="2.7902">
        <ele>1468</ele>
        <time>2016-09-05T13:40:39Z</time>
      </trkpt>
      <trkpt lat="45.06699" lon="2.79031">
        <ele>1468</ele>
        <time>2016-09-05T13:40:47Z</time>
      </trkpt>
      <trkpt lat="45.06699" lon="2.79032">
        <ele>1468</ele>
        <time>2016-09-05T13:40:48Z</time>
      </trkpt>
      <trkpt lat="45.06695" lon="2.79043">
        <ele>1468</ele>
        <time>2016-09-05T13:40:56Z</time>
      </trkpt>
      <trkpt lat="45.06694" lon="2.79045">
        <ele>1468</ele>
        <time>2016-09-05T13:40:57Z</time>
      </trkpt>
      <trkpt lat="45.0669" lon="2.79055">
        <ele>1468</ele>
        <time>2016-09-05T13:41:06Z</time>
      </trkpt>
      <trkpt lat="45.06689" lon="2.79056">
        <ele>1468</ele>
        <time>2016-09-05T13:41:07Z</time>
      </trkpt>
      <trkpt lat="45.06684" lon="2.79066">
        <ele>1470</ele>
        <time>2016-09-05T13:41:15Z</time>
      </trkpt>
      <trkpt lat="45.06683" lon="2.79068">
        <ele>1470</ele>
        <time>2016-09-05T13:41:16Z</time>
      </trkpt>
      <trkpt lat="45.06683" lon="2.79079">
        <ele>1471</ele>
        <time>2016-09-05T13:41:23Z</time>
      </trkpt>
      <trkpt lat="45.06682" lon="2.79081">
        <ele>1471</ele>
        <time>2016-09-05T13:41:24Z</time>
      </trkpt>
      <trkpt lat="45.06679" lon="2.79092">
        <ele>1467</ele>
        <time>2016-09-05T13:41:32Z</time>
      </trkpt>
      <trkpt lat="45.06679" lon="2.79093">
        <ele>1467</ele>
        <time>2016-09-05T13:41:33Z</time>
      </trkpt>
      <trkpt lat="45.06676" lon="2.79105">
        <ele>1464</ele>
        <time>2016-09-05T13:41:42Z</time>
      </trkpt>
      <trkpt lat="45.06676" lon="2.79106">
        <ele>1464</ele>
        <time>2016-09-05T13:41:43Z</time>
      </trkpt>
      <trkpt lat="45.06673" lon="2.79117">
        <ele>1462</ele>
        <time>2016-09-05T13:41:52Z</time>
      </trkpt>
      <trkpt lat="45.06673" lon="2.79119">
        <ele>1462</ele>
        <time>2016-09-05T13:41:53Z</time>
      </trkpt>
      <trkpt lat="45.06669" lon="2.79131">
        <ele>1462</ele>
        <time>2016-09-05T13:42:01Z</time>
      </trkpt>
      <trkpt lat="45.06669" lon="2.79132">
        <ele>1462</ele>
        <time>2016-09-05T13:42:02Z</time>
      </trkpt>
      <trkpt lat="45.06666" lon="2.79143">
        <ele>1474</ele>
        <time>2016-09-05T13:42:11Z</time>
      </trkpt>
      <trkpt lat="45.06665" lon="2.79145">
        <ele>1473</ele>
        <time>2016-09-05T13:42:12Z</time>
      </trkpt>
      <trkpt lat="45.06663" lon="2.79156">
        <ele>1472</ele>
        <time>2016-09-05T13:42:20Z</time>
      </trkpt>
      <trkpt lat="45.06663" lon="2.79158">
        <ele>1472</ele>
        <time>2016-09-05T13:42:21Z</time>
      </trkpt>
      <trkpt lat="45.06659" lon="2.79168">
        <ele>1470</ele>
        <time>2016-09-05T13:42:29Z</time>
      </trkpt>
      <trkpt lat="45.06659" lon="2.79169">
        <ele>1470</ele>
        <time>2016-09-05T13:42:30Z</time>
      </trkpt>
      <trkpt lat="45.06657" lon="2.79181">
        <ele>1470</ele>
        <time>2016-09-05T13:42:38Z</time>
      </trkpt>
      <trkpt lat="45.06657" lon="2.79182">
        <ele>1470</ele>
        <time>2016-09-05T13:42:39Z</time>
      </trkpt>
      <trkpt lat="45.06653" lon="2.79194">
        <ele>1470</ele>
        <time>2016-09-05T13:42:49Z</time>
      </trkpt>
      <trkpt lat="45.06652" lon="2.79195">
        <ele>1470</ele>
        <time>2016-09-05T13:42:50Z</time>
      </trkpt>
      <trkpt lat="45.0665" lon="2.79206">
        <ele>1469</ele>
        <time>2016-09-05T13:42:58Z</time>
      </trkpt>
      <trkpt lat="45.0665" lon="2.79207">
        <ele>1469</ele>
        <time>2016-09-05T13:42:59Z</time>
      </trkpt>
      <trkpt lat="45.06648" lon="2.79219">
        <ele>1469</ele>
        <time>2016-09-05T13:43:07Z</time>
      </trkpt>
      <trkpt lat="45.06647" lon="2.79221">
        <ele>1469</ele>
        <time>2016-09-05T13:43:08Z</time>
      </trkpt>
      <trkpt lat="45.06644" lon="2.79233">
        <ele>1468</ele>
        <time>2016-09-05T13:43:16Z</time>
      </trkpt>
      <trkpt lat="45.06644" lon="2.79234">
        <ele>1468</ele>
        <time>2016-09-05T13:43:17Z</time>
      </trkpt>
      <trkpt lat="45.06639" lon="2.79244">
        <ele>1468</ele>
        <time>2016-09-05T13:43:25Z</time>
      </trkpt>
      <trkpt lat="45.06639" lon="2.79245">
        <ele>1468</ele>
        <time>2016-09-05T13:43:26Z</time>
      </trkpt>
      <trkpt lat="45.06635" lon="2.79255">
        <ele>1464</ele>
        <time>2016-09-05T13:43:34Z</time>
      </trkpt>
      <trkpt lat="45.06634" lon="2.79257">
        <ele>1464</ele>
        <time>2016-09-05T13:43:35Z</time>
      </trkpt>
      <trkpt lat="45.06631" lon="2.79268">
        <ele>1464</ele>
        <time>2016-09-05T13:43:43Z</time>
      </trkpt>
      <trkpt lat="45.0663" lon="2.79269">
        <ele>1464</ele>
        <time>2016-09-05T13:43:44Z</time>
      </trkpt>
      <trkpt lat="45.06628" lon="2.7928">
        <ele>1464</ele>
        <time>2016-09-05T13:43:52Z</time>
      </trkpt>
      <trkpt lat="45.06627" lon="2.79282">
        <ele>1464</ele>
        <time>2016-09-05T13:43:53Z</time>
      </trkpt>
      <trkpt lat="45.06624" lon="2.79293">
        <ele>1463</ele>
        <time>2016-09-05T13:44:02Z</time>
      </trkpt>
      <trkpt lat="45.06624" lon="2.79294">
        <ele>1463</ele>
        <time>2016-09-05T13:44:03Z</time>
      </trkpt>
      <trkpt lat="45.06621" lon="2.79305">
        <ele>1463</ele>
        <time>2016-09-05T13:44:11Z</time>
      </trkpt>
      <trkpt lat="45.0662" lon="2.79306">
        <ele>1463</ele>
        <time>2016-09-05T13:44:12Z</time>
      </trkpt>
      <trkpt lat="45.06619" lon="2.79318">
        <ele>1462</ele>
        <time>2016-09-05T13:44:21Z</time>
      </trkpt>
      <trkpt lat="45.06618" lon="2.79319">
        <ele>1462</ele>
        <time>2016-09-05T13:44:22Z</time>
      </trkpt>
      <trkpt lat="45.06618" lon="2.79331">
        <ele>1462</ele>
        <time>2016-09-05T13:44:31Z</time>
      </trkpt>
      <trkpt lat="45.06618" lon="2.79333">
        <ele>1462</ele>
        <time>2016-09-05T13:44:32Z</time>
      </trkpt>
      <trkpt lat="45.06619" lon="2.79344">
        <ele>1457</ele>
        <time>2016-09-05T13:44:41Z</time>
      </trkpt>
      <trkpt lat="45.06618" lon="2.79345">
        <ele>1457</ele>
        <time>2016-09-05T13:44:42Z</time>
      </trkpt>
      <trkpt lat="45.06615" lon="2.79356">
        <ele>1457</ele>
        <time>2016-09-05T13:44:51Z</time>
      </trkpt>
      <trkpt lat="45.06615" lon="2.79358">
        <ele>1457</ele>
        <time>2016-09-05T13:44:52Z</time>
      </trkpt>
      <trkpt lat="45.06609" lon="2.79366">
        <ele>1456</ele>
        <time>2016-09-05T13:45:01Z</time>
      </trkpt>
      <trkpt lat="45.06608" lon="2.79366">
        <ele>1457</ele>
        <time>2016-09-05T13:45:02Z</time>
      </trkpt>
      <trkpt lat="45.06602" lon="2.79374">
        <ele>1456</ele>
        <time>2016-09-05T13:45:11Z</time>
      </trkpt>
      <trkpt lat="45.06602" lon="2.79375">
        <ele>1456</ele>
        <time>2016-09-05T13:45:12Z</time>
      </trkpt>
      <trkpt lat="45.06597" lon="2.79385">
        <ele>1456</ele>
        <time>2016-09-05T13:45:22Z</time>
      </trkpt>
      <trkpt lat="45.06596" lon="2.79385">
        <ele>1456</ele>
        <time>2016-09-05T13:45:23Z</time>
      </trkpt>
      <trkpt lat="45.06592" lon="2.79396">
        <ele>1456</ele>
        <time>2016-09-05T13:45:34Z</time>
      </trkpt>
      <trkpt lat="45.06592" lon="2.79398">
        <ele>1456</ele>
        <time>2016-09-05T13:45:35Z</time>
      </trkpt>
      <trkpt lat="45.06586" lon="2.79405">
        <ele>1456</ele>
        <time>2016-09-05T13:45:43Z</time>
      </trkpt>
      <trkpt lat="45.06586" lon="2.79407">
        <ele>1456</ele>
        <time>2016-09-05T13:45:44Z</time>
      </trkpt>
      <trkpt lat="45.06581" lon="2.79417">
        <ele>1455</ele>
        <time>2016-09-05T13:45:53Z</time>
      </trkpt>
      <trkpt lat="45.0658" lon="2.79418">
        <ele>1455</ele>
        <time>2016-09-05T13:45:54Z</time>
      </trkpt>
      <trkpt lat="45.06575" lon="2.79428">
        <ele>1452</ele>
        <time>2016-09-05T13:46:02Z</time>
      </trkpt>
      <trkpt lat="45.06575" lon="2.79429">
        <ele>1452</ele>
        <time>2016-09-05T13:46:03Z</time>
      </trkpt>
      <trkpt lat="45.06568" lon="2.79437">
        <ele>1451</ele>
        <time>2016-09-05T13:46:10Z</time>
      </trkpt>
      <trkpt lat="45.06567" lon="2.79438">
        <ele>1450</ele>
        <time>2016-09-05T13:46:11Z</time>
      </trkpt>
      <trkpt lat="45.06561" lon="2.79445">
        <ele>1449</ele>
        <time>2016-09-05T13:46:18Z</time>
      </trkpt>
      <trkpt lat="45.0656" lon="2.79445">
        <ele>1449</ele>
        <time>2016-09-05T13:46:19Z</time>
      </trkpt>
      <trkpt lat="45.06552" lon="2.79447">
        <ele>1449</ele>
        <time>2016-09-05T13:46:46Z</time>
      </trkpt>
      <trkpt lat="45.06551" lon="2.79447">
        <ele>1449</ele>
        <time>2016-09-05T13:46:47Z</time>
      </trkpt>
      <trkpt lat="45.06542" lon="2.79448">
        <ele>1448</ele>
        <time>2016-09-05T13:46:55Z</time>
      </trkpt>
      <trkpt lat="45.06541" lon="2.79449">
        <ele>1448</ele>
        <time>2016-09-05T13:46:56Z</time>
      </trkpt>
      <trkpt lat="45.06532" lon="2.79448">
        <ele>1448</ele>
        <time>2016-09-05T13:47:03Z</time>
      </trkpt>
      <trkpt lat="45.06531" lon="2.79448">
        <ele>1448</ele>
        <time>2016-09-05T13:47:04Z</time>
      </trkpt>
      <trkpt lat="45.06522" lon="2.79446">
        <ele>1448</ele>
        <time>2016-09-05T13:47:12Z</time>
      </trkpt>
      <trkpt lat="45.06521" lon="2.79445">
        <ele>1448</ele>
        <time>2016-09-05T13:47:13Z</time>
      </trkpt>
      <trkpt lat="45.06513" lon="2.79442">
        <ele>1448</ele>
        <time>2016-09-05T13:47:20Z</time>
      </trkpt>
      <trkpt lat="45.06512" lon="2.79442">
        <ele>1448</ele>
        <time>2016-09-05T13:47:21Z</time>
      </trkpt>
      <trkpt lat="45.06503" lon="2.79445">
        <ele>1447</ele>
        <time>2016-09-05T13:47:29Z</time>
      </trkpt>
      <trkpt lat="45.06502" lon="2.79444">
        <ele>1447</ele>
        <time>2016-09-05T13:47:30Z</time>
      </trkpt>
      <trkpt lat="45.06493" lon="2.79442">
        <ele>1441</ele>
        <time>2016-09-05T13:47:37Z</time>
      </trkpt>
      <trkpt lat="45.06492" lon="2.79442">
        <ele>1441</ele>
        <time>2016-09-05T13:47:38Z</time>
      </trkpt>
      <trkpt lat="45.06484" lon="2.79444">
        <ele>1441</ele>
        <time>2016-09-05T13:47:45Z</time>
      </trkpt>
      <trkpt lat="45.06483" lon="2.79444">
        <ele>1440</ele>
        <time>2016-09-05T13:47:46Z</time>
      </trkpt>
      <trkpt lat="45.06475" lon="2.79441">
        <ele>1440</ele>
        <time>2016-09-05T13:47:53Z</time>
      </trkpt>
      <trkpt lat="45.06474" lon="2.79441">
        <ele>1440</ele>
        <time>2016-09-05T13:47:54Z</time>
      </trkpt>
      <trkpt lat="45.06466" lon="2.79442">
        <ele>1439</ele>
        <time>2016-09-05T13:48:01Z</time>
      </trkpt>
      <trkpt lat="45.06465" lon="2.79441">
        <ele>1439</ele>
        <time>2016-09-05T13:48:02Z</time>
      </trkpt>
      <trkpt lat="45.06457" lon="2.79437">
        <ele>1438</ele>
        <time>2016-09-05T13:48:10Z</time>
      </trkpt>
      <trkpt lat="45.06456" lon="2.79437">
        <ele>1438</ele>
        <time>2016-09-05T13:48:11Z</time>
      </trkpt>
      <trkpt lat="45.06451" lon="2.79427">
        <ele>1438</ele>
        <time>2016-09-05T13:48:19Z</time>
      </trkpt>
      <trkpt lat="45.06451" lon="2.79426">
        <ele>1438</ele>
        <time>2016-09-05T13:48:20Z</time>
      </trkpt>
      <trkpt lat="45.06446" lon="2.79416">
        <ele>1443</ele>
        <time>2016-09-05T13:48:28Z</time>
      </trkpt>
      <trkpt lat="45.06446" lon="2.79415">
        <ele>1443</ele>
        <time>2016-09-05T13:48:29Z</time>
      </trkpt>
      <trkpt lat="45.06439" lon="2.79406">
        <ele>1442</ele>
        <time>2016-09-05T13:48:37Z</time>
      </trkpt>
      <trkpt lat="45.06438" lon="2.79405">
        <ele>1442</ele>
        <time>2016-09-05T13:48:38Z</time>
      </trkpt>
      <trkpt lat="45.06432" lon="2.79395">
        <ele>1442</ele>
        <time>2016-09-05T13:48:46Z</time>
      </trkpt>
      <trkpt lat="45.06431" lon="2.79395">
        <ele>1442</ele>
        <time>2016-09-05T13:48:47Z</time>
      </trkpt>
      <trkpt lat="45.06423" lon="2.79391">
        <ele>1442</ele>
        <time>2016-09-05T13:48:55Z</time>
      </trkpt>
      <trkpt lat="45.06422" lon="2.79391">
        <ele>1442</ele>
        <time>2016-09-05T13:48:56Z</time>
      </trkpt>
      <trkpt lat="45.06414" lon="2.79391">
        <ele>1436</ele>
        <time>2016-09-05T13:49:06Z</time>
      </trkpt>
      <trkpt lat="45.06413" lon="2.79391">
        <ele>1436</ele>
        <time>2016-09-05T13:49:07Z</time>
      </trkpt>
      <trkpt lat="45.06405" lon="2.79394">
        <ele>1436</ele>
        <time>2016-09-05T13:49:15Z</time>
      </trkpt>
      <trkpt lat="45.06404" lon="2.79394">
        <ele>1436</ele>
        <time>2016-09-05T13:49:16Z</time>
      </trkpt>
      <trkpt lat="45.06395" lon="2.79394">
        <ele>1435</ele>
        <time>2016-09-05T13:49:25Z</time>
      </trkpt>
      <trkpt lat="45.06394" lon="2.79393">
        <ele>1435</ele>
        <time>2016-09-05T13:49:26Z</time>
      </trkpt>
      <trkpt lat="45.06386" lon="2.79391">
        <ele>1435</ele>
        <time>2016-09-05T13:49:34Z</time>
      </trkpt>
      <trkpt lat="45.06385" lon="2.79391">
        <ele>1435</ele>
        <time>2016-09-05T13:49:35Z</time>
      </trkpt>
      <trkpt lat="45.06376" lon="2.79387">
        <ele>1434</ele>
        <time>2016-09-05T13:49:44Z</time>
      </trkpt>
      <trkpt lat="45.06375" lon="2.79387">
        <ele>1434</ele>
        <time>2016-09-05T13:49:45Z</time>
      </trkpt>
      <trkpt lat="45.06367" lon="2.79386">
        <ele>1434</ele>
        <time>2016-09-05T13:49:54Z</time>
      </trkpt>
      <trkpt lat="45.06366" lon="2.79385">
        <ele>1434</ele>
        <time>2016-09-05T13:49:55Z</time>
      </trkpt>
      <trkpt lat="45.0636" lon="2.79377">
        <ele>1434</ele>
        <time>2016-09-05T13:50:05Z</time>
      </trkpt>
      <trkpt lat="45.06359" lon="2.79377">
        <ele>1434</ele>
        <time>2016-09-05T13:50:06Z</time>
      </trkpt>
      <trkpt lat="45.06353" lon="2.79368">
        <ele>1434</ele>
        <time>2016-09-05T13:50:16Z</time>
      </trkpt>
      <trkpt lat="45.06352" lon="2.79367">
        <ele>1434</ele>
        <time>2016-09-05T13:50:17Z</time>
      </trkpt>
      <trkpt lat="45.06346" lon="2.79359">
        <ele>1434</ele>
        <time>2016-09-05T13:50:26Z</time>
      </trkpt>
      <trkpt lat="45.06345" lon="2.79358">
        <ele>1434</ele>
        <time>2016-09-05T13:50:27Z</time>
      </trkpt>
      <trkpt lat="45.0634" lon="2.79347">
        <ele>1434</ele>
        <time>2016-09-05T13:50:37Z</time>
      </trkpt>
      <trkpt lat="45.0634" lon="2.79346">
        <ele>1434</ele>
        <time>2016-09-05T13:50:38Z</time>
      </trkpt>
      <trkpt lat="45.06337" lon="2.79335">
        <ele>1433</ele>
        <time>2016-09-05T13:50:46Z</time>
      </trkpt>
      <trkpt lat="45.06337" lon="2.79334">
        <ele>1433</ele>
        <time>2016-09-05T13:50:47Z</time>
      </trkpt>
      <trkpt lat="45.06331" lon="2.79324">
        <ele>1432</ele>
        <time>2016-09-05T13:50:57Z</time>
      </trkpt>
      <trkpt lat="45.0633" lon="2.79323">
        <ele>1432</ele>
        <time>2016-09-05T13:50:58Z</time>
      </trkpt>
      <trkpt lat="45.06324" lon="2.79313">
        <ele>1431</ele>
        <time>2016-09-05T13:51:06Z</time>
      </trkpt>
      <trkpt lat="45.06323" lon="2.79312">
        <ele>1431</ele>
        <time>2016-09-05T13:51:07Z</time>
      </trkpt>
      <trkpt lat="45.06317" lon="2.79303">
        <ele>1431</ele>
        <time>2016-09-05T13:51:16Z</time>
      </trkpt>
      <trkpt lat="45.06317" lon="2.79302">
        <ele>1431</ele>
        <time>2016-09-05T13:51:17Z</time>
      </trkpt>
      <trkpt lat="45.06313" lon="2.79291">
        <ele>1431</ele>
        <time>2016-09-05T13:51:26Z</time>
      </trkpt>
      <trkpt lat="45.06313" lon="2.7929">
        <ele>1431</ele>
        <time>2016-09-05T13:51:27Z</time>
      </trkpt>
      <trkpt lat="45.06307" lon="2.79282">
        <ele>1431</ele>
        <time>2016-09-05T13:51:36Z</time>
      </trkpt>
      <trkpt lat="45.06306" lon="2.79281">
        <ele>1431</ele>
        <time>2016-09-05T13:51:37Z</time>
      </trkpt>
      <trkpt lat="45.063" lon="2.79272">
        <ele>1431</ele>
        <time>2016-09-05T13:51:45Z</time>
      </trkpt>
      <trkpt lat="45.063" lon="2.79271">
        <ele>1431</ele>
        <time>2016-09-05T13:51:46Z</time>
      </trkpt>
      <trkpt lat="45.06294" lon="2.79261">
        <ele>1430</ele>
        <time>2016-09-05T13:51:55Z</time>
      </trkpt>
      <trkpt lat="45.06294" lon="2.7926">
        <ele>1430</ele>
        <time>2016-09-05T13:51:56Z</time>
      </trkpt>
      <trkpt lat="45.06287" lon="2.79252">
        <ele>1429</ele>
        <time>2016-09-05T13:52:06Z</time>
      </trkpt>
      <trkpt lat="45.06286" lon="2.79251">
        <ele>1429</ele>
        <time>2016-09-05T13:52:07Z</time>
      </trkpt>
      <trkpt lat="45.06282" lon="2.79241">
        <ele>1433</ele>
        <time>2016-09-05T13:52:16Z</time>
      </trkpt>
      <trkpt lat="45.06281" lon="2.79239">
        <ele>1433</ele>
        <time>2016-09-05T13:52:17Z</time>
      </trkpt>
      <trkpt lat="45.06276" lon="2.7923">
        <ele>1433</ele>
        <time>2016-09-05T13:52:25Z</time>
      </trkpt>
      <trkpt lat="45.06275" lon="2.79229">
        <ele>1433</ele>
        <time>2016-09-05T13:52:26Z</time>
      </trkpt>
      <trkpt lat="45.0627" lon="2.79219">
        <ele>1433</ele>
        <time>2016-09-05T13:52:35Z</time>
      </trkpt>
      <trkpt lat="45.06269" lon="2.79218">
        <ele>1433</ele>
        <time>2016-09-05T13:52:36Z</time>
      </trkpt>
      <trkpt lat="45.06263" lon="2.79211">
        <ele>1433</ele>
        <time>2016-09-05T13:52:44Z</time>
      </trkpt>
      <trkpt lat="45.06262" lon="2.7921">
        <ele>1433</ele>
        <time>2016-09-05T13:52:45Z</time>
      </trkpt>
      <trkpt lat="45.06259" lon="2.79198">
        <ele>1433</ele>
        <time>2016-09-05T13:52:53Z</time>
      </trkpt>
      <trkpt lat="45.06258" lon="2.79197">
        <ele>1433</ele>
        <time>2016-09-05T13:52:54Z</time>
      </trkpt>
      <trkpt lat="45.06255" lon="2.79186">
        <ele>1433</ele>
        <time>2016-09-05T13:53:01Z</time>
      </trkpt>
      <trkpt lat="45.06254" lon="2.79185">
        <ele>1433</ele>
        <time>2016-09-05T13:53:02Z</time>
      </trkpt>
      <trkpt lat="45.0625" lon="2.79174">
        <ele>1431</ele>
        <time>2016-09-05T13:53:10Z</time>
      </trkpt>
      <trkpt lat="45.0625" lon="2.79172">
        <ele>1431</ele>
        <time>2016-09-05T13:53:11Z</time>
      </trkpt>
      <trkpt lat="45.06248" lon="2.79161">
        <ele>1429</ele>
        <time>2016-09-05T13:53:18Z</time>
      </trkpt>
      <trkpt lat="45.06248" lon="2.79159">
        <ele>1429</ele>
        <time>2016-09-05T13:53:19Z</time>
      </trkpt>
      <trkpt lat="45.06247" lon="2.79148">
        <ele>1429</ele>
        <time>2016-09-05T13:53:27Z</time>
      </trkpt>
      <trkpt lat="45.06247" lon="2.79147">
        <ele>1429</ele>
        <time>2016-09-05T13:53:28Z</time>
      </trkpt>
      <trkpt lat="45.06245" lon="2.79135">
        <ele>1429</ele>
        <time>2016-09-05T13:53:37Z</time>
      </trkpt>
      <trkpt lat="45.06244" lon="2.79134">
        <ele>1429</ele>
        <time>2016-09-05T13:53:38Z</time>
      </trkpt>
      <trkpt lat="45.06245" lon="2.79122">
        <ele>1430</ele>
        <time>2016-09-05T13:53:45Z</time>
      </trkpt>
      <trkpt lat="45.06245" lon="2.7912">
        <ele>1430</ele>
        <time>2016-09-05T13:53:46Z</time>
      </trkpt>
      <trkpt lat="45.06242" lon="2.79109">
        <ele>1431</ele>
        <time>2016-09-05T13:53:54Z</time>
      </trkpt>
      <trkpt lat="45.06242" lon="2.79107">
        <ele>1431</ele>
        <time>2016-09-05T13:53:55Z</time>
      </trkpt>
      <trkpt lat="45.06239" lon="2.79096">
        <ele>1432</ele>
        <time>2016-09-05T13:54:03Z</time>
      </trkpt>
      <trkpt lat="45.06239" lon="2.79095">
        <ele>1432</ele>
        <time>2016-09-05T13:54:04Z</time>
      </trkpt>
      <trkpt lat="45.06231" lon="2.7909">
        <ele>1431</ele>
        <time>2016-09-05T13:54:13Z</time>
      </trkpt>
      <trkpt lat="45.06229" lon="2.79091">
        <ele>1431</ele>
        <time>2016-09-05T13:54:14Z</time>
      </trkpt>
      <trkpt lat="45.06222" lon="2.79095">
        <ele>1430</ele>
        <time>2016-09-05T13:54:22Z</time>
      </trkpt>
      <trkpt lat="45.06221" lon="2.79096">
        <ele>1430</ele>
        <time>2016-09-05T13:54:23Z</time>
      </trkpt>
      <trkpt lat="45.06217" lon="2.79106">
        <ele>1429</ele>
        <time>2016-09-05T13:54:33Z</time>
      </trkpt>
      <trkpt lat="45.06216" lon="2.79108">
        <ele>1429</ele>
        <time>2016-09-05T13:54:34Z</time>
      </trkpt>
      <trkpt lat="45.06212" lon="2.79118">
        <ele>1428</ele>
        <time>2016-09-05T13:54:43Z</time>
      </trkpt>
      <trkpt lat="45.06211" lon="2.79118">
        <ele>1428</ele>
        <time>2016-09-05T13:54:44Z</time>
      </trkpt>
      <trkpt lat="45.06205" lon="2.79126">
        <ele>1427</ele>
        <time>2016-09-05T13:54:53Z</time>
      </trkpt>
      <trkpt lat="45.06204" lon="2.79128">
        <ele>1427</ele>
        <time>2016-09-05T13:54:54Z</time>
      </trkpt>
      <trkpt lat="45.06199" lon="2.79138">
        <ele>1426</ele>
        <time>2016-09-05T13:55:03Z</time>
      </trkpt>
      <trkpt lat="45.06198" lon="2.79138">
        <ele>1426</ele>
        <time>2016-09-05T13:55:04Z</time>
      </trkpt>
      <trkpt lat="45.06194" lon="2.79148">
        <ele>1425</ele>
        <time>2016-09-05T13:55:15Z</time>
      </trkpt>
      <trkpt lat="45.06193" lon="2.79149">
        <ele>1425</ele>
        <time>2016-09-05T13:55:16Z</time>
      </trkpt>
      <trkpt lat="45.06194" lon="2.79161">
        <ele>1424</ele>
        <time>2016-09-05T13:55:27Z</time>
      </trkpt>
      <trkpt lat="45.06195" lon="2.79162">
        <ele>1424</ele>
        <time>2016-09-05T13:55:28Z</time>
      </trkpt>
      <trkpt lat="45.06194" lon="2.79175">
        <ele>1420</ele>
        <time>2016-09-05T13:58:26Z</time>
      </trkpt>
      <trkpt lat="45.06194" lon="2.79175">
        <ele>1420</ele>
        <time>2016-09-05T13:58:27Z</time>
      </trkpt>
      <trkpt lat="45.06202" lon="2.79176">
        <ele>1421</ele>
        <time>2016-09-05T13:59:22Z</time>
      </trkpt>
      <trkpt lat="45.06203" lon="2.79178">
        <ele>1421</ele>
        <time>2016-09-05T13:59:23Z</time>
      </trkpt>
      <trkpt lat="45.06206" lon="2.79188">
        <ele>1421</ele>
        <time>2016-09-05T13:59:31Z</time>
      </trkpt>
      <trkpt lat="45.06206" lon="2.7919">
        <ele>1421</ele>
        <time>2016-09-05T13:59:32Z</time>
      </trkpt>
      <trkpt lat="45.06209" lon="2.792">
        <ele>1421</ele>
        <time>2016-09-05T13:59:40Z</time>
      </trkpt>
      <trkpt lat="45.06209" lon="2.79202">
        <ele>1421</ele>
        <time>2016-09-05T13:59:41Z</time>
      </trkpt>
      <trkpt lat="45.06213" lon="2.79212">
        <ele>1421</ele>
        <time>2016-09-05T13:59:52Z</time>
      </trkpt>
      <trkpt lat="45.06213" lon="2.79213">
        <ele>1421</ele>
        <time>2016-09-05T13:59:53Z</time>
      </trkpt>
      <trkpt lat="45.06217" lon="2.79223">
        <ele>1421</ele>
        <time>2016-09-05T14:00:01Z</time>
      </trkpt>
      <trkpt lat="45.06218" lon="2.79225">
        <ele>1421</ele>
        <time>2016-09-05T14:00:02Z</time>
      </trkpt>
      <trkpt lat="45.06223" lon="2.79234">
        <ele>1421</ele>
        <time>2016-09-05T14:00:09Z</time>
      </trkpt>
      <trkpt lat="45.06224" lon="2.79235">
        <ele>1421</ele>
        <time>2016-09-05T14:00:10Z</time>
      </trkpt>
      <trkpt lat="45.0623" lon="2.79244">
        <ele>1421</ele>
        <time>2016-09-05T14:00:19Z</time>
      </trkpt>
      <trkpt lat="45.0623" lon="2.79245">
        <ele>1421</ele>
        <time>2016-09-05T14:00:20Z</time>
      </trkpt>
      <trkpt lat="45.06235" lon="2.79255">
        <ele>1419</ele>
        <time>2016-09-05T14:00:27Z</time>
      </trkpt>
      <trkpt lat="45.06235" lon="2.79257">
        <ele>1419</ele>
        <time>2016-09-05T14:00:28Z</time>
      </trkpt>
      <trkpt lat="45.06239" lon="2.79267">
        <ele>1418</ele>
        <time>2016-09-05T14:00:35Z</time>
      </trkpt>
      <trkpt lat="45.06239" lon="2.79269">
        <ele>1418</ele>
        <time>2016-09-05T14:00:36Z</time>
      </trkpt>
      <trkpt lat="45.06243" lon="2.79279">
        <ele>1417</ele>
        <time>2016-09-05T14:00:44Z</time>
      </trkpt>
      <trkpt lat="45.06244" lon="2.79281">
        <ele>1417</ele>
        <time>2016-09-05T14:00:45Z</time>
      </trkpt>
      <trkpt lat="45.06246" lon="2.79293">
        <ele>1416</ele>
        <time>2016-09-05T14:00:53Z</time>
      </trkpt>
      <trkpt lat="45.06246" lon="2.79294">
        <ele>1416</ele>
        <time>2016-09-05T14:00:54Z</time>
      </trkpt>
      <trkpt lat="45.06252" lon="2.79303">
        <ele>1425</ele>
        <time>2016-09-05T14:01:02Z</time>
      </trkpt>
      <trkpt lat="45.06252" lon="2.79305">
        <ele>1425</ele>
        <time>2016-09-05T14:01:03Z</time>
      </trkpt>
      <trkpt lat="45.06256" lon="2.79315">
        <ele>1423</ele>
        <time>2016-09-05T14:01:10Z</time>
      </trkpt>
      <trkpt lat="45.06257" lon="2.79316">
        <ele>1423</ele>
        <time>2016-09-05T14:01:11Z</time>
      </trkpt>
      <trkpt lat="45.06262" lon="2.79326">
        <ele>1423</ele>
        <time>2016-09-05T14:01:19Z</time>
      </trkpt>
      <trkpt lat="45.06262" lon="2.79328">
        <ele>1422</ele>
        <time>2016-09-05T14:01:20Z</time>
      </trkpt>
      <trkpt lat="45.06265" lon="2.79339">
        <ele>1420</ele>
        <time>2016-09-05T14:01:28Z</time>
      </trkpt>
      <trkpt lat="45.06265" lon="2.7934">
        <ele>1420</ele>
        <time>2016-09-05T14:01:29Z</time>
      </trkpt>
      <trkpt lat="45.06269" lon="2.79349">
        <ele>1420</ele>
        <time>2016-09-05T14:01:36Z</time>
      </trkpt>
      <trkpt lat="45.0627" lon="2.79351">
        <ele>1420</ele>
        <time>2016-09-05T14:01:37Z</time>
      </trkpt>
      <trkpt lat="45.06274" lon="2.79362">
        <ele>1421</ele>
        <time>2016-09-05T14:01:44Z</time>
      </trkpt>
      <trkpt lat="45.06274" lon="2.79363">
        <ele>1421</ele>
        <time>2016-09-05T14:01:45Z</time>
      </trkpt>
      <trkpt lat="45.06276" lon="2.79375">
        <ele>1420</ele>
        <time>2016-09-05T14:01:54Z</time>
      </trkpt>
      <trkpt lat="45.06276" lon="2.79376">
        <ele>1420</ele>
        <time>2016-09-05T14:01:55Z</time>
      </trkpt>
      <trkpt lat="45.06274" lon="2.79388">
        <ele>1419</ele>
        <time>2016-09-05T14:02:19Z</time>
      </trkpt>
      <trkpt lat="45.06274" lon="2.79389">
        <ele>1419</ele>
        <time>2016-09-05T14:02:20Z</time>
      </trkpt>
      <trkpt lat="45.06277" lon="2.79399">
        <ele>1419</ele>
        <time>2016-09-05T14:02:34Z</time>
      </trkpt>
      <trkpt lat="45.06277" lon="2.79401">
        <ele>1418</ele>
        <time>2016-09-05T14:02:35Z</time>
      </trkpt>
      <trkpt lat="45.06272" lon="2.7941">
        <ele>1417</ele>
        <time>2016-09-05T14:02:44Z</time>
      </trkpt>
      <trkpt lat="45.06271" lon="2.79411">
        <ele>1417</ele>
        <time>2016-09-05T14:02:45Z</time>
      </trkpt>
      <trkpt lat="45.06264" lon="2.79407">
        <ele>1416</ele>
        <time>2016-09-05T14:02:57Z</time>
      </trkpt>
      <trkpt lat="45.06263" lon="2.79406">
        <ele>1416</ele>
        <time>2016-09-05T14:02:58Z</time>
      </trkpt>
      <trkpt lat="45.06256" lon="2.79399">
        <ele>1416</ele>
        <time>2016-09-05T14:03:05Z</time>
      </trkpt>
      <trkpt lat="45.06255" lon="2.79399">
        <ele>1416</ele>
        <time>2016-09-05T14:03:06Z</time>
      </trkpt>
      <trkpt lat="45.06249" lon="2.79391">
        <ele>1407</ele>
        <time>2016-09-05T14:03:13Z</time>
      </trkpt>
      <trkpt lat="45.06248" lon="2.7939">
        <ele>1407</ele>
        <time>2016-09-05T14:03:14Z</time>
      </trkpt>
      <trkpt lat="45.06242" lon="2.79381">
        <ele>1407</ele>
        <time>2016-09-05T14:03:20Z</time>
      </trkpt>
      <trkpt lat="45.06241" lon="2.7938">
        <ele>1407</ele>
        <time>2016-09-05T14:03:21Z</time>
      </trkpt>
      <trkpt lat="45.06234" lon="2.79372">
        <ele>1407</ele>
        <time>2016-09-05T14:03:30Z</time>
      </trkpt>
      <trkpt lat="45.06233" lon="2.79372">
        <ele>1407</ele>
        <time>2016-09-05T14:03:31Z</time>
      </trkpt>
      <trkpt lat="45.06228" lon="2.79362">
        <ele>1407</ele>
        <time>2016-09-05T14:03:39Z</time>
      </trkpt>
      <trkpt lat="45.06227" lon="2.79361">
        <ele>1407</ele>
        <time>2016-09-05T14:03:40Z</time>
      </trkpt>
      <trkpt lat="45.06223" lon="2.79351">
        <ele>1408</ele>
        <time>2016-09-05T14:03:47Z</time>
      </trkpt>
      <trkpt lat="45.06223" lon="2.7935">
        <ele>1408</ele>
        <time>2016-09-05T14:03:48Z</time>
      </trkpt>
      <trkpt lat="45.06219" lon="2.7934">
        <ele>1408</ele>
        <time>2016-09-05T14:03:56Z</time>
      </trkpt>
      <trkpt lat="45.06218" lon="2.79338">
        <ele>1408</ele>
        <time>2016-09-05T14:03:57Z</time>
      </trkpt>
      <trkpt lat="45.06214" lon="2.79329">
        <ele>1413</ele>
        <time>2016-09-05T14:04:05Z</time>
      </trkpt>
      <trkpt lat="45.06213" lon="2.79327">
        <ele>1413</ele>
        <time>2016-09-05T14:04:06Z</time>
      </trkpt>
      <trkpt lat="45.06209" lon="2.79317">
        <ele>1413</ele>
        <time>2016-09-05T14:04:15Z</time>
      </trkpt>
      <trkpt lat="45.06208" lon="2.79316">
        <ele>1413</ele>
        <time>2016-09-05T14:04:16Z</time>
      </trkpt>
      <trkpt lat="45.06202" lon="2.79307">
        <ele>1413</ele>
        <time>2016-09-05T14:04:24Z</time>
      </trkpt>
      <trkpt lat="45.06201" lon="2.79305">
        <ele>1413</ele>
        <time>2016-09-05T14:04:25Z</time>
      </trkpt>
      <trkpt lat="45.06196" lon="2.79297">
        <ele>1413</ele>
        <time>2016-09-05T14:04:32Z</time>
      </trkpt>
      <trkpt lat="45.06195" lon="2.79295">
        <ele>1413</ele>
        <time>2016-09-05T14:04:33Z</time>
      </trkpt>
      <trkpt lat="45.0619" lon="2.79285">
        <ele>1413</ele>
        <time>2016-09-05T14:04:41Z</time>
      </trkpt>
      <trkpt lat="45.06189" lon="2.79284">
        <ele>1413</ele>
        <time>2016-09-05T14:04:42Z</time>
      </trkpt>
      <trkpt lat="45.06185" lon="2.79273">
        <ele>1413</ele>
        <time>2016-09-05T14:04:50Z</time>
      </trkpt>
      <trkpt lat="45.06184" lon="2.79272">
        <ele>1413</ele>
        <time>2016-09-05T14:04:51Z</time>
      </trkpt>
      <trkpt lat="45.06181" lon="2.79261">
        <ele>1413</ele>
        <time>2016-09-05T14:04:59Z</time>
      </trkpt>
      <trkpt lat="45.0618" lon="2.7926">
        <ele>1413</ele>
        <time>2016-09-05T14:05:00Z</time>
      </trkpt>
      <trkpt lat="45.06174" lon="2.79251">
        <ele>1413</ele>
        <time>2016-09-05T14:05:08Z</time>
      </trkpt>
      <trkpt lat="45.06173" lon="2.7925">
        <ele>1414</ele>
        <time>2016-09-05T14:05:09Z</time>
      </trkpt>
      <trkpt lat="45.06165" lon="2.79244">
        <ele>1411</ele>
        <time>2016-09-05T14:05:18Z</time>
      </trkpt>
      <trkpt lat="45.06164" lon="2.79243">
        <ele>1411</ele>
        <time>2016-09-05T14:05:19Z</time>
      </trkpt>
      <trkpt lat="45.06156" lon="2.79238">
        <ele>1411</ele>
        <time>2016-09-05T14:05:27Z</time>
      </trkpt>
      <trkpt lat="45.06155" lon="2.79238">
        <ele>1411</ele>
        <time>2016-09-05T14:05:28Z</time>
      </trkpt>
      <trkpt lat="45.06148" lon="2.79232">
        <ele>1410</ele>
        <time>2016-09-05T14:05:36Z</time>
      </trkpt>
      <trkpt lat="45.06147" lon="2.79232">
        <ele>1410</ele>
        <time>2016-09-05T14:05:37Z</time>
      </trkpt>
      <trkpt lat="45.06139" lon="2.79226">
        <ele>1409</ele>
        <time>2016-09-05T14:05:45Z</time>
      </trkpt>
      <trkpt lat="45.06138" lon="2.79226">
        <ele>1409</ele>
        <time>2016-09-05T14:05:46Z</time>
      </trkpt>
      <trkpt lat="45.0613" lon="2.79221">
        <ele>1409</ele>
        <time>2016-09-05T14:05:54Z</time>
      </trkpt>
      <trkpt lat="45.06129" lon="2.7922">
        <ele>1409</ele>
        <time>2016-09-05T14:05:55Z</time>
      </trkpt>
      <trkpt lat="45.06122" lon="2.79215">
        <ele>1409</ele>
        <time>2016-09-05T14:06:02Z</time>
      </trkpt>
      <trkpt lat="45.06121" lon="2.79214">
        <ele>1409</ele>
        <time>2016-09-05T14:06:03Z</time>
      </trkpt>
      <trkpt lat="45.06113" lon="2.79208">
        <ele>1408</ele>
        <time>2016-09-05T14:06:11Z</time>
      </trkpt>
      <trkpt lat="45.06112" lon="2.79207">
        <ele>1408</ele>
        <time>2016-09-05T14:06:12Z</time>
      </trkpt>
      <trkpt lat="45.06105" lon="2.79201">
        <ele>1408</ele>
        <time>2016-09-05T14:06:20Z</time>
      </trkpt>
      <trkpt lat="45.06104" lon="2.792">
        <ele>1408</ele>
        <time>2016-09-05T14:06:21Z</time>
      </trkpt>
      <trkpt lat="45.06097" lon="2.79194">
        <ele>1408</ele>
        <time>2016-09-05T14:06:29Z</time>
      </trkpt>
      <trkpt lat="45.06096" lon="2.79194">
        <ele>1408</ele>
        <time>2016-09-05T14:06:30Z</time>
      </trkpt>
      <trkpt lat="45.06089" lon="2.79187">
        <ele>1408</ele>
        <time>2016-09-05T14:06:39Z</time>
      </trkpt>
      <trkpt lat="45.06088" lon="2.79186">
        <ele>1408</ele>
        <time>2016-09-05T14:06:40Z</time>
      </trkpt>
      <trkpt lat="45.06081" lon="2.79179">
        <ele>1403</ele>
        <time>2016-09-05T14:06:48Z</time>
      </trkpt>
      <trkpt lat="45.0608" lon="2.79179">
        <ele>1403</ele>
        <time>2016-09-05T14:06:49Z</time>
      </trkpt>
      <trkpt lat="45.06073" lon="2.79173">
        <ele>1403</ele>
        <time>2016-09-05T14:06:56Z</time>
      </trkpt>
      <trkpt lat="45.06072" lon="2.79172">
        <ele>1403</ele>
        <time>2016-09-05T14:06:57Z</time>
      </trkpt>
      <trkpt lat="45.06064" lon="2.79166">
        <ele>1407</ele>
        <time>2016-09-05T14:07:04Z</time>
      </trkpt>
      <trkpt lat="45.06063" lon="2.79165">
        <ele>1407</ele>
        <time>2016-09-05T14:07:05Z</time>
      </trkpt>
      <trkpt lat="45.06056" lon="2.79159">
        <ele>1407</ele>
        <time>2016-09-05T14:07:12Z</time>
      </trkpt>
      <trkpt lat="45.06055" lon="2.79158">
        <ele>1407</ele>
        <time>2016-09-05T14:07:13Z</time>
      </trkpt>
      <trkpt lat="45.06049" lon="2.7915">
        <ele>1407</ele>
        <time>2016-09-05T14:07:20Z</time>
      </trkpt>
      <trkpt lat="45.06049" lon="2.79149">
        <ele>1407</ele>
        <time>2016-09-05T14:07:21Z</time>
      </trkpt>
      <trkpt lat="45.06043" lon="2.79141">
        <ele>1407</ele>
        <time>2016-09-05T14:07:28Z</time>
      </trkpt>
      <trkpt lat="45.06042" lon="2.79139">
        <ele>1407</ele>
        <time>2016-09-05T14:07:29Z</time>
      </trkpt>
      <trkpt lat="45.06036" lon="2.79131">
        <ele>1407</ele>
        <time>2016-09-05T14:07:36Z</time>
      </trkpt>
      <trkpt lat="45.06035" lon="2.7913">
        <ele>1408</ele>
        <time>2016-09-05T14:07:37Z</time>
      </trkpt>
      <trkpt lat="45.06029" lon="2.79122">
        <ele>1408</ele>
        <time>2016-09-05T14:07:44Z</time>
      </trkpt>
      <trkpt lat="45.06028" lon="2.79121">
        <ele>1408</ele>
        <time>2016-09-05T14:07:45Z</time>
      </trkpt>
      <trkpt lat="45.06023" lon="2.79112">
        <ele>1408</ele>
        <time>2016-09-05T14:07:52Z</time>
      </trkpt>
      <trkpt lat="45.06022" lon="2.7911">
        <ele>1408</ele>
        <time>2016-09-05T14:07:53Z</time>
      </trkpt>
      <trkpt lat="45.06016" lon="2.79103">
        <ele>1409</ele>
        <time>2016-09-05T14:08:00Z</time>
      </trkpt>
      <trkpt lat="45.06015" lon="2.79102">
        <ele>1409</ele>
        <time>2016-09-05T14:08:01Z</time>
      </trkpt>
      <trkpt lat="45.06008" lon="2.79096">
        <ele>1409</ele>
        <time>2016-09-05T14:08:08Z</time>
      </trkpt>
      <trkpt lat="45.06007" lon="2.79095">
        <ele>1409</ele>
        <time>2016-09-05T14:08:09Z</time>
      </trkpt>
      <trkpt lat="45.05999" lon="2.79088">
        <ele>1410</ele>
        <time>2016-09-05T14:08:17Z</time>
      </trkpt>
      <trkpt lat="45.05998" lon="2.79088">
        <ele>1410</ele>
        <time>2016-09-05T14:08:18Z</time>
      </trkpt>
      <trkpt lat="45.05989" lon="2.79086">
        <ele>1410</ele>
        <time>2016-09-05T14:08:26Z</time>
      </trkpt>
      <trkpt lat="45.05988" lon="2.79087">
        <ele>1410</ele>
        <time>2016-09-05T14:08:27Z</time>
      </trkpt>
      <trkpt lat="45.0598" lon="2.7909">
        <ele>1410</ele>
        <time>2016-09-05T14:08:36Z</time>
      </trkpt>
      <trkpt lat="45.05979" lon="2.79091">
        <ele>1410</ele>
        <time>2016-09-05T14:08:37Z</time>
      </trkpt>
      <trkpt lat="45.05972" lon="2.79097">
        <ele>1410</ele>
        <time>2016-09-05T14:08:45Z</time>
      </trkpt>
      <trkpt lat="45.05971" lon="2.79098">
        <ele>1410</ele>
        <time>2016-09-05T14:08:46Z</time>
      </trkpt>
      <trkpt lat="45.05963" lon="2.79104">
        <ele>1411</ele>
        <time>2016-09-05T14:08:55Z</time>
      </trkpt>
      <trkpt lat="45.05962" lon="2.79104">
        <ele>1411</ele>
        <time>2016-09-05T14:08:56Z</time>
      </trkpt>
      <trkpt lat="45.05954" lon="2.7911">
        <ele>1411</ele>
        <time>2016-09-05T14:09:05Z</time>
      </trkpt>
      <trkpt lat="45.05954" lon="2.7911">
        <ele>1411</ele>
        <time>2016-09-05T14:09:06Z</time>
      </trkpt>
      <trkpt lat="45.05946" lon="2.79116">
        <ele>1411</ele>
        <time>2016-09-05T14:09:16Z</time>
      </trkpt>
      <trkpt lat="45.05945" lon="2.79117">
        <ele>1411</ele>
        <time>2016-09-05T14:09:17Z</time>
      </trkpt>
      <trkpt lat="45.05937" lon="2.79123">
        <ele>1411</ele>
        <time>2016-09-05T14:09:27Z</time>
      </trkpt>
      <trkpt lat="45.05937" lon="2.79124">
        <ele>1411</ele>
        <time>2016-09-05T14:09:28Z</time>
      </trkpt>
      <trkpt lat="45.05929" lon="2.79129">
        <ele>1411</ele>
        <time>2016-09-05T14:09:37Z</time>
      </trkpt>
      <trkpt lat="45.05928" lon="2.79129">
        <ele>1411</ele>
        <time>2016-09-05T14:09:38Z</time>
      </trkpt>
      <trkpt lat="45.05919" lon="2.79134">
        <ele>1411</ele>
        <time>2016-09-05T14:09:46Z</time>
      </trkpt>
      <trkpt lat="45.05918" lon="2.79134">
        <ele>1411</ele>
        <time>2016-09-05T14:09:47Z</time>
      </trkpt>
      <trkpt lat="45.0591" lon="2.79136">
        <ele>1412</ele>
        <time>2016-09-05T14:09:55Z</time>
      </trkpt>
      <trkpt lat="45.05908" lon="2.79136">
        <ele>1412</ele>
        <time>2016-09-05T14:09:56Z</time>
      </trkpt>
      <trkpt lat="45.059" lon="2.79135">
        <ele>1412</ele>
        <time>2016-09-05T14:10:04Z</time>
      </trkpt>
      <trkpt lat="45.05899" lon="2.79135">
        <ele>1412</ele>
        <time>2016-09-05T14:10:05Z</time>
      </trkpt>
      <trkpt lat="45.05891" lon="2.7913">
        <ele>1412</ele>
        <time>2016-09-05T14:10:15Z</time>
      </trkpt>
      <trkpt lat="45.0589" lon="2.79129">
        <ele>1412</ele>
        <time>2016-09-05T14:10:16Z</time>
      </trkpt>
      <trkpt lat="45.05882" lon="2.79122">
        <ele>1413</ele>
        <time>2016-09-05T14:10:28Z</time>
      </trkpt>
      <trkpt lat="45.05882" lon="2.79122">
        <ele>1413</ele>
        <time>2016-09-05T14:10:29Z</time>
      </trkpt>
      <trkpt lat="45.05874" lon="2.79116">
        <ele>1413</ele>
        <time>2016-09-05T14:10:40Z</time>
      </trkpt>
      <trkpt lat="45.05874" lon="2.79115">
        <ele>1413</ele>
        <time>2016-09-05T14:10:41Z</time>
      </trkpt>
      <trkpt lat="45.05866" lon="2.7911">
        <ele>1413</ele>
        <time>2016-09-05T14:10:50Z</time>
      </trkpt>
      <trkpt lat="45.05865" lon="2.7911">
        <ele>1413</ele>
        <time>2016-09-05T14:10:51Z</time>
      </trkpt>
      <trkpt lat="45.05858" lon="2.79105">
        <ele>1414</ele>
        <time>2016-09-05T14:11:00Z</time>
      </trkpt>
      <trkpt lat="45.05857" lon="2.79104">
        <ele>1414</ele>
        <time>2016-09-05T14:11:01Z</time>
      </trkpt>
      <trkpt lat="45.05848" lon="2.79104">
        <ele>1414</ele>
        <time>2016-09-05T14:11:11Z</time>
      </trkpt>
      <trkpt lat="45.05848" lon="2.79104">
        <ele>1414</ele>
        <time>2016-09-05T14:11:12Z</time>
      </trkpt>
      <trkpt lat="45.05843" lon="2.79095">
        <ele>1415</ele>
        <time>2016-09-05T14:11:28Z</time>
      </trkpt>
      <trkpt lat="45.05842" lon="2.79094">
        <ele>1415</ele>
        <time>2016-09-05T14:11:29Z</time>
      </trkpt>
      <trkpt lat="45.05836" lon="2.79086">
        <ele>1417</ele>
        <time>2016-09-05T14:11:37Z</time>
      </trkpt>
      <trkpt lat="45.05835" lon="2.79085">
        <ele>1417</ele>
        <time>2016-09-05T14:11:38Z</time>
      </trkpt>
      <trkpt lat="45.05828" lon="2.79078">
        <ele>1418</ele>
        <time>2016-09-05T14:11:47Z</time>
      </trkpt>
      <trkpt lat="45.05827" lon="2.79078">
        <ele>1418</ele>
        <time>2016-09-05T14:11:48Z</time>
      </trkpt>
      <trkpt lat="45.0582" lon="2.79072">
        <ele>1419</ele>
        <time>2016-09-05T14:11:56Z</time>
      </trkpt>
      <trkpt lat="45.05819" lon="2.79071">
        <ele>1419</ele>
        <time>2016-09-05T14:11:57Z</time>
      </trkpt>
      <trkpt lat="45.05811" lon="2.79064">
        <ele>1419</ele>
        <time>2016-09-05T14:12:05Z</time>
      </trkpt>
      <trkpt lat="45.0581" lon="2.79063">
        <ele>1419</ele>
        <time>2016-09-05T14:12:06Z</time>
      </trkpt>
      <trkpt lat="45.05803" lon="2.79056">
        <ele>1419</ele>
        <time>2016-09-05T14:12:14Z</time>
      </trkpt>
      <trkpt lat="45.05802" lon="2.79055">
        <ele>1419</ele>
        <time>2016-09-05T14:12:15Z</time>
      </trkpt>
      <trkpt lat="45.05795" lon="2.7905">
        <ele>1419</ele>
        <time>2016-09-05T14:12:23Z</time>
      </trkpt>
      <trkpt lat="45.05794" lon="2.79049">
        <ele>1419</ele>
        <time>2016-09-05T14:12:24Z</time>
      </trkpt>
      <trkpt lat="45.05787" lon="2.79041">
        <ele>1419</ele>
        <time>2016-09-05T14:12:32Z</time>
      </trkpt>
      <trkpt lat="45.05786" lon="2.7904">
        <ele>1419</ele>
        <time>2016-09-05T14:12:33Z</time>
      </trkpt>
      <trkpt lat="45.05778" lon="2.79034">
        <ele>1420</ele>
        <time>2016-09-05T14:12:41Z</time>
      </trkpt>
      <trkpt lat="45.05777" lon="2.79033">
        <ele>1420</ele>
        <time>2016-09-05T14:12:42Z</time>
      </trkpt>
      <trkpt lat="45.0577" lon="2.79026">
        <ele>1420</ele>
        <time>2016-09-05T14:12:50Z</time>
      </trkpt>
      <trkpt lat="45.05768" lon="2.79026">
        <ele>1420</ele>
        <time>2016-09-05T14:12:51Z</time>
      </trkpt>
      <trkpt lat="45.05761" lon="2.79019">
        <ele>1421</ele>
        <time>2016-09-05T14:12:59Z</time>
      </trkpt>
      <trkpt lat="45.0576" lon="2.79018">
        <ele>1421</ele>
        <time>2016-09-05T14:13:00Z</time>
      </trkpt>
      <trkpt lat="45.05752" lon="2.79014">
        <ele>1421</ele>
        <time>2016-09-05T14:13:08Z</time>
      </trkpt>
      <trkpt lat="45.05751" lon="2.79013">
        <ele>1421</ele>
        <time>2016-09-05T14:13:09Z</time>
      </trkpt>
      <trkpt lat="45.05742" lon="2.7901">
        <ele>1418</ele>
        <time>2016-09-05T14:13:18Z</time>
      </trkpt>
      <trkpt lat="45.05742" lon="2.7901">
        <ele>1418</ele>
        <time>2016-09-05T14:13:19Z</time>
      </trkpt>
      <trkpt lat="45.05733" lon="2.79008">
        <ele>1416</ele>
        <time>2016-09-05T14:13:28Z</time>
      </trkpt>
      <trkpt lat="45.05732" lon="2.79008">
        <ele>1416</ele>
        <time>2016-09-05T14:13:29Z</time>
      </trkpt>
      <trkpt lat="45.05725" lon="2.79004">
        <ele>1415</ele>
        <time>2016-09-05T14:13:36Z</time>
      </trkpt>
      <trkpt lat="45.05723" lon="2.79003">
        <ele>1414</ele>
        <time>2016-09-05T14:13:37Z</time>
      </trkpt>
      <trkpt lat="45.05715" lon="2.79">
        <ele>1420</ele>
        <time>2016-09-05T14:13:45Z</time>
      </trkpt>
      <trkpt lat="45.05714" lon="2.78999">
        <ele>1420</ele>
        <time>2016-09-05T14:13:46Z</time>
      </trkpt>
      <trkpt lat="45.05706" lon="2.78994">
        <ele>1420</ele>
        <time>2016-09-05T14:13:53Z</time>
      </trkpt>
      <trkpt lat="45.05705" lon="2.78993">
        <ele>1420</ele>
        <time>2016-09-05T14:13:54Z</time>
      </trkpt>
      <trkpt lat="45.057" lon="2.78983">
        <ele>1420</ele>
        <time>2016-09-05T14:14:01Z</time>
      </trkpt>
      <trkpt lat="45.057" lon="2.78981">
        <ele>1420</ele>
        <time>2016-09-05T14:14:02Z</time>
      </trkpt>
      <trkpt lat="45.05695" lon="2.78972">
        <ele>1420</ele>
        <time>2016-09-05T14:14:10Z</time>
      </trkpt>
      <trkpt lat="45.05694" lon="2.78971">
        <ele>1420</ele>
        <time>2016-09-05T14:14:11Z</time>
      </trkpt>
      <trkpt lat="45.0569" lon="2.78961">
        <ele>1421</ele>
        <time>2016-09-05T14:14:20Z</time>
      </trkpt>
      <trkpt lat="45.0569" lon="2.7896">
        <ele>1421</ele>
        <time>2016-09-05T14:14:21Z</time>
      </trkpt>
      <trkpt lat="45.05684" lon="2.7895">
        <ele>1421</ele>
        <time>2016-09-05T14:14:30Z</time>
      </trkpt>
      <trkpt lat="45.05683" lon="2.78949">
        <ele>1421</ele>
        <time>2016-09-05T14:14:31Z</time>
      </trkpt>
      <trkpt lat="45.05677" lon="2.78941">
        <ele>1422</ele>
        <time>2016-09-05T14:14:38Z</time>
      </trkpt>
      <trkpt lat="45.05676" lon="2.7894">
        <ele>1422</ele>
        <time>2016-09-05T14:14:39Z</time>
      </trkpt>
      <trkpt lat="45.05669" lon="2.78936">
        <ele>1422</ele>
        <time>2016-09-05T14:14:46Z</time>
      </trkpt>
      <trkpt lat="45.05668" lon="2.78936">
        <ele>1422</ele>
        <time>2016-09-05T14:14:47Z</time>
      </trkpt>
      <trkpt lat="45.05659" lon="2.78934">
        <ele>1419</ele>
        <time>2016-09-05T14:14:55Z</time>
      </trkpt>
      <trkpt lat="45.05658" lon="2.78934">
        <ele>1419</ele>
        <time>2016-09-05T14:14:56Z</time>
      </trkpt>
      <trkpt lat="45.0565" lon="2.78936">
        <ele>1417</ele>
        <time>2016-09-05T14:15:04Z</time>
      </trkpt>
      <trkpt lat="45.05649" lon="2.78936">
        <ele>1417</ele>
        <time>2016-09-05T14:15:05Z</time>
      </trkpt>
      <trkpt lat="45.0564" lon="2.7894">
        <ele>1416</ele>
        <time>2016-09-05T14:15:13Z</time>
      </trkpt>
      <trkpt lat="45.05639" lon="2.7894">
        <ele>1416</ele>
        <time>2016-09-05T14:15:14Z</time>
      </trkpt>
      <trkpt lat="45.05631" lon="2.7894">
        <ele>1416</ele>
        <time>2016-09-05T14:15:22Z</time>
      </trkpt>
      <trkpt lat="45.0563" lon="2.78941">
        <ele>1416</ele>
        <time>2016-09-05T14:15:23Z</time>
      </trkpt>
      <trkpt lat="45.05621" lon="2.78942">
        <ele>1415</ele>
        <time>2016-09-05T14:15:31Z</time>
      </trkpt>
      <trkpt lat="45.0562" lon="2.78942">
        <ele>1415</ele>
        <time>2016-09-05T14:15:32Z</time>
      </trkpt>
      <trkpt lat="45.05612" lon="2.78946">
        <ele>1414</ele>
        <time>2016-09-05T14:15:40Z</time>
      </trkpt>
      <trkpt lat="45.05611" lon="2.78946">
        <ele>1414</ele>
        <time>2016-09-05T14:15:41Z</time>
      </trkpt>
      <trkpt lat="45.05602" lon="2.78946">
        <ele>1414</ele>
        <time>2016-09-05T14:15:49Z</time>
      </trkpt>
      <trkpt lat="45.05601" lon="2.78946">
        <ele>1414</ele>
        <time>2016-09-05T14:15:50Z</time>
      </trkpt>
      <trkpt lat="45.05593" lon="2.78946">
        <ele>1414</ele>
        <time>2016-09-05T14:15:58Z</time>
      </trkpt>
      <trkpt lat="45.05592" lon="2.78946">
        <ele>1414</ele>
        <time>2016-09-05T14:15:59Z</time>
      </trkpt>
      <trkpt lat="45.05583" lon="2.78945">
        <ele>1411</ele>
        <time>2016-09-05T14:16:07Z</time>
      </trkpt>
      <trkpt lat="45.05582" lon="2.78945">
        <ele>1411</ele>
        <time>2016-09-05T14:16:08Z</time>
      </trkpt>
      <trkpt lat="45.05574" lon="2.78942">
        <ele>1411</ele>
        <time>2016-09-05T14:16:16Z</time>
      </trkpt>
      <trkpt lat="45.05573" lon="2.78941">
        <ele>1411</ele>
        <time>2016-09-05T14:16:17Z</time>
      </trkpt>
      <trkpt lat="45.05565" lon="2.78936">
        <ele>1411</ele>
        <time>2016-09-05T14:16:24Z</time>
      </trkpt>
      <trkpt lat="45.05564" lon="2.78936">
        <ele>1411</ele>
        <time>2016-09-05T14:16:25Z</time>
      </trkpt>
      <trkpt lat="45.05556" lon="2.7893">
        <ele>1411</ele>
        <time>2016-09-05T14:16:32Z</time>
      </trkpt>
      <trkpt lat="45.05555" lon="2.78929">
        <ele>1411</ele>
        <time>2016-09-05T14:16:33Z</time>
      </trkpt>
      <trkpt lat="45.05547" lon="2.78925">
        <ele>1410</ele>
        <time>2016-09-05T14:18:31Z</time>
      </trkpt>
      <trkpt lat="45.05547" lon="2.78924">
        <ele>1410</ele>
        <time>2016-09-05T14:18:32Z</time>
      </trkpt>
      <trkpt lat="45.0554" lon="2.78917">
        <ele>1416</ele>
        <time>2016-09-05T14:18:41Z</time>
      </trkpt>
      <trkpt lat="45.05539" lon="2.78916">
        <ele>1415</ele>
        <time>2016-09-05T14:18:42Z</time>
      </trkpt>
      <trkpt lat="45.05531" lon="2.7891">
        <ele>1415</ele>
        <time>2016-09-05T14:18:52Z</time>
      </trkpt>
      <trkpt lat="45.0553" lon="2.7891">
        <ele>1415</ele>
        <time>2016-09-05T14:18:53Z</time>
      </trkpt>
      <trkpt lat="45.05523" lon="2.78905">
        <ele>1414</ele>
        <time>2016-09-05T14:19:03Z</time>
      </trkpt>
      <trkpt lat="45.05522" lon="2.78905">
        <ele>1414</ele>
        <time>2016-09-05T14:19:04Z</time>
      </trkpt>
      <trkpt lat="45.05515" lon="2.78898">
        <ele>1414</ele>
        <time>2016-09-05T14:19:13Z</time>
      </trkpt>
      <trkpt lat="45.05514" lon="2.78897">
        <ele>1414</ele>
        <time>2016-09-05T14:19:14Z</time>
      </trkpt>
      <trkpt lat="45.05506" lon="2.78891">
        <ele>1414</ele>
        <time>2016-09-05T14:19:23Z</time>
      </trkpt>
      <trkpt lat="45.05506" lon="2.78891">
        <ele>1414</ele>
        <time>2016-09-05T14:19:24Z</time>
      </trkpt>
      <trkpt lat="45.05498" lon="2.78887">
        <ele>1410</ele>
        <time>2016-09-05T14:19:33Z</time>
      </trkpt>
      <trkpt lat="45.05497" lon="2.78886">
        <ele>1410</ele>
        <time>2016-09-05T14:19:34Z</time>
      </trkpt>
      <trkpt lat="45.05489" lon="2.78884">
        <ele>1410</ele>
        <time>2016-09-05T14:19:45Z</time>
      </trkpt>
      <trkpt lat="45.05488" lon="2.78883">
        <ele>1410</ele>
        <time>2016-09-05T14:19:46Z</time>
      </trkpt>
      <trkpt lat="45.0548" lon="2.78878">
        <ele>1409</ele>
        <time>2016-09-05T14:19:55Z</time>
      </trkpt>
      <trkpt lat="45.05479" lon="2.78878">
        <ele>1409</ele>
        <time>2016-09-05T14:19:56Z</time>
      </trkpt>
      <trkpt lat="45.05471" lon="2.78873">
        <ele>1409</ele>
        <time>2016-09-05T14:20:04Z</time>
      </trkpt>
      <trkpt lat="45.0547" lon="2.78873">
        <ele>1409</ele>
        <time>2016-09-05T14:20:05Z</time>
      </trkpt>
      <trkpt lat="45.05463" lon="2.78868">
        <ele>1409</ele>
        <time>2016-09-05T14:20:15Z</time>
      </trkpt>
      <trkpt lat="45.05461" lon="2.78868">
        <ele>1409</ele>
        <time>2016-09-05T14:20:16Z</time>
      </trkpt>
      <trkpt lat="45.05453" lon="2.78866">
        <ele>1408</ele>
        <time>2016-09-05T14:20:26Z</time>
      </trkpt>
      <trkpt lat="45.05452" lon="2.78866">
        <ele>1408</ele>
        <time>2016-09-05T14:20:27Z</time>
      </trkpt>
      <trkpt lat="45.05443" lon="2.78864">
        <ele>1408</ele>
        <time>2016-09-05T14:20:36Z</time>
      </trkpt>
      <trkpt lat="45.05443" lon="2.78863">
        <ele>1408</ele>
        <time>2016-09-05T14:20:37Z</time>
      </trkpt>
      <trkpt lat="45.05435" lon="2.7886">
        <ele>1408</ele>
        <time>2016-09-05T14:20:46Z</time>
      </trkpt>
      <trkpt lat="45.05434" lon="2.78859">
        <ele>1408</ele>
        <time>2016-09-05T14:20:47Z</time>
      </trkpt>
      <trkpt lat="45.05427" lon="2.78853">
        <ele>1408</ele>
        <time>2016-09-05T14:20:56Z</time>
      </trkpt>
      <trkpt lat="45.05426" lon="2.78853">
        <ele>1408</ele>
        <time>2016-09-05T14:20:57Z</time>
      </trkpt>
      <trkpt lat="45.05417" lon="2.78848">
        <ele>1407</ele>
        <time>2016-09-05T14:21:06Z</time>
      </trkpt>
      <trkpt lat="45.05417" lon="2.78847">
        <ele>1407</ele>
        <time>2016-09-05T14:21:07Z</time>
      </trkpt>
      <trkpt lat="45.05408" lon="2.78844">
        <ele>1404</ele>
        <time>2016-09-05T14:21:16Z</time>
      </trkpt>
      <trkpt lat="45.05407" lon="2.78844">
        <ele>1404</ele>
        <time>2016-09-05T14:21:17Z</time>
      </trkpt>
      <trkpt lat="45.05401" lon="2.78835">
        <ele>1404</ele>
        <time>2016-09-05T14:21:32Z</time>
      </trkpt>
      <trkpt lat="45.054" lon="2.78835">
        <ele>1404</ele>
        <time>2016-09-05T14:21:33Z</time>
      </trkpt>
      <trkpt lat="45.05392" lon="2.78831">
        <ele>1406</ele>
        <time>2016-09-05T14:21:40Z</time>
      </trkpt>
      <trkpt lat="45.05391" lon="2.78831">
        <ele>1406</ele>
        <time>2016-09-05T14:21:41Z</time>
      </trkpt>
      <trkpt lat="45.05383" lon="2.78831">
        <ele>1405</ele>
        <time>2016-09-05T14:21:49Z</time>
      </trkpt>
      <trkpt lat="45.05381" lon="2.7883">
        <ele>1405</ele>
        <time>2016-09-05T14:21:50Z</time>
      </trkpt>
      <trkpt lat="45.05374" lon="2.78826">
        <ele>1405</ele>
        <time>2016-09-05T14:21:57Z</time>
      </trkpt>
      <trkpt lat="45.05373" lon="2.78825">
        <ele>1405</ele>
        <time>2016-09-05T14:21:58Z</time>
      </trkpt>
      <trkpt lat="45.05365" lon="2.78823">
        <ele>1404</ele>
        <time>2016-09-05T14:22:06Z</time>
      </trkpt>
      <trkpt lat="45.05364" lon="2.78822">
        <ele>1404</ele>
        <time>2016-09-05T14:22:07Z</time>
      </trkpt>
      <trkpt lat="45.05356" lon="2.78821">
        <ele>1404</ele>
        <time>2016-09-05T14:22:14Z</time>
      </trkpt>
      <trkpt lat="45.05354" lon="2.78821">
        <ele>1404</ele>
        <time>2016-09-05T14:22:15Z</time>
      </trkpt>
      <trkpt lat="45.05346" lon="2.78821">
        <ele>1403</ele>
        <time>2016-09-05T14:22:22Z</time>
      </trkpt>
      <trkpt lat="45.05345" lon="2.78822">
        <ele>1403</ele>
        <time>2016-09-05T14:22:23Z</time>
      </trkpt>
      <trkpt lat="45.05338" lon="2.78828">
        <ele>1401</ele>
        <time>2016-09-05T14:22:30Z</time>
      </trkpt>
      <trkpt lat="45.05337" lon="2.78828">
        <ele>1401</ele>
        <time>2016-09-05T14:22:31Z</time>
      </trkpt>
      <trkpt lat="45.05328" lon="2.7883">
        <ele>1401</ele>
        <time>2016-09-05T14:22:39Z</time>
      </trkpt>
      <trkpt lat="45.05327" lon="2.78831">
        <ele>1401</ele>
        <time>2016-09-05T14:22:40Z</time>
      </trkpt>
      <trkpt lat="45.05324" lon="2.78843">
        <ele>1400</ele>
        <time>2016-09-05T14:22:49Z</time>
      </trkpt>
      <trkpt lat="45.05324" lon="2.78844">
        <ele>1400</ele>
        <time>2016-09-05T14:22:50Z</time>
      </trkpt>
      <trkpt lat="45.05318" lon="2.78853">
        <ele>1400</ele>
        <time>2016-09-05T14:22:58Z</time>
      </trkpt>
      <trkpt lat="45.05317" lon="2.78853">
        <ele>1400</ele>
        <time>2016-09-05T14:22:59Z</time>
      </trkpt>
      <trkpt lat="45.05321" lon="2.78865">
        <ele>1400</ele>
        <time>2016-09-05T14:23:10Z</time>
      </trkpt>
      <trkpt lat="45.05321" lon="2.78866">
        <ele>1400</ele>
        <time>2016-09-05T14:23:11Z</time>
      </trkpt>
      <trkpt lat="45.05324" lon="2.78877">
        <ele>1399</ele>
        <time>2016-09-05T14:23:18Z</time>
      </trkpt>
      <trkpt lat="45.05324" lon="2.78879">
        <ele>1399</ele>
        <time>2016-09-05T14:23:19Z</time>
      </trkpt>
      <trkpt lat="45.05325" lon="2.78891">
        <ele>1399</ele>
        <time>2016-09-05T14:23:27Z</time>
      </trkpt>
      <trkpt lat="45.05326" lon="2.78893">
        <ele>1399</ele>
        <time>2016-09-05T14:23:28Z</time>
      </trkpt>
      <trkpt lat="45.05326" lon="2.78905">
        <ele>1398</ele>
        <time>2016-09-05T14:23:37Z</time>
      </trkpt>
      <trkpt lat="45.05326" lon="2.78906">
        <ele>1398</ele>
        <time>2016-09-05T14:23:38Z</time>
      </trkpt>
      <trkpt lat="45.05326" lon="2.78918">
        <ele>1396</ele>
        <time>2016-09-05T14:23:45Z</time>
      </trkpt>
      <trkpt lat="45.05326" lon="2.78919">
        <ele>1396</ele>
        <time>2016-09-05T14:23:46Z</time>
      </trkpt>
      <trkpt lat="45.05322" lon="2.78929">
        <ele>1396</ele>
        <time>2016-09-05T14:23:53Z</time>
      </trkpt>
      <trkpt lat="45.05322" lon="2.7893">
        <ele>1396</ele>
        <time>2016-09-05T14:23:54Z</time>
      </trkpt>
      <trkpt lat="45.05319" lon="2.78942">
        <ele>1396</ele>
        <time>2016-09-05T14:24:01Z</time>
      </trkpt>
      <trkpt lat="45.05319" lon="2.78943">
        <ele>1396</ele>
        <time>2016-09-05T14:24:02Z</time>
      </trkpt>
      <trkpt lat="45.05316" lon="2.78954">
        <ele>1396</ele>
        <time>2016-09-05T14:24:09Z</time>
      </trkpt>
      <trkpt lat="45.05315" lon="2.78955">
        <ele>1396</ele>
        <time>2016-09-05T14:24:10Z</time>
      </trkpt>
      <trkpt lat="45.05312" lon="2.78966">
        <ele>1396</ele>
        <time>2016-09-05T14:24:17Z</time>
      </trkpt>
      <trkpt lat="45.05312" lon="2.78968">
        <ele>1396</ele>
        <time>2016-09-05T14:24:18Z</time>
      </trkpt>
      <trkpt lat="45.05311" lon="2.7898">
        <ele>1395</ele>
        <time>2016-09-05T14:24:26Z</time>
      </trkpt>
      <trkpt lat="45.0531" lon="2.78982">
        <ele>1395</ele>
        <time>2016-09-05T14:24:27Z</time>
      </trkpt>
      <trkpt lat="45.05307" lon="2.78992">
        <ele>1395</ele>
        <time>2016-09-05T14:24:34Z</time>
      </trkpt>
      <trkpt lat="45.05307" lon="2.78994">
        <ele>1395</ele>
        <time>2016-09-05T14:24:35Z</time>
      </trkpt>
      <trkpt lat="45.05307" lon="2.79005">
        <ele>1393</ele>
        <time>2016-09-05T14:24:42Z</time>
      </trkpt>
      <trkpt lat="45.05306" lon="2.79007">
        <ele>1393</ele>
        <time>2016-09-05T14:24:43Z</time>
      </trkpt>
      <trkpt lat="45.05304" lon="2.79017">
        <ele>1393</ele>
        <time>2016-09-05T14:24:50Z</time>
      </trkpt>
      <trkpt lat="45.05303" lon="2.79019">
        <ele>1393</ele>
        <time>2016-09-05T14:24:51Z</time>
      </trkpt>
      <trkpt lat="45.053" lon="2.7903">
        <ele>1393</ele>
        <time>2016-09-05T14:25:00Z</time>
      </trkpt>
      <trkpt lat="45.05299" lon="2.79031">
        <ele>1393</ele>
        <time>2016-09-05T14:25:01Z</time>
      </trkpt>
      <trkpt lat="45.05296" lon="2.79042">
        <ele>1393</ele>
        <time>2016-09-05T14:25:08Z</time>
      </trkpt>
      <trkpt lat="45.05296" lon="2.79044">
        <ele>1393</ele>
        <time>2016-09-05T14:25:09Z</time>
      </trkpt>
      <trkpt lat="45.05293" lon="2.79056">
        <ele>1393</ele>
        <time>2016-09-05T14:25:16Z</time>
      </trkpt>
      <trkpt lat="45.05292" lon="2.79057">
        <ele>1393</ele>
        <time>2016-09-05T14:25:17Z</time>
      </trkpt>
      <trkpt lat="45.05288" lon="2.79067">
        <ele>1393</ele>
        <time>2016-09-05T14:25:24Z</time>
      </trkpt>
      <trkpt lat="45.05288" lon="2.79069">
        <ele>1393</ele>
        <time>2016-09-05T14:25:25Z</time>
      </trkpt>
      <trkpt lat="45.05289" lon="2.7908">
        <ele>1393</ele>
        <time>2016-09-05T14:25:32Z</time>
      </trkpt>
      <trkpt lat="45.05288" lon="2.79082">
        <ele>1393</ele>
        <time>2016-09-05T14:25:33Z</time>
      </trkpt>
      <trkpt lat="45.05288" lon="2.79093">
        <ele>1391</ele>
        <time>2016-09-05T14:26:02Z</time>
      </trkpt>
      <trkpt lat="45.05288" lon="2.79095">
        <ele>1391</ele>
        <time>2016-09-05T14:26:03Z</time>
      </trkpt>
      <trkpt lat="45.05287" lon="2.79107">
        <ele>1391</ele>
        <time>2016-09-05T14:26:10Z</time>
      </trkpt>
      <trkpt lat="45.05287" lon="2.79109">
        <ele>1391</ele>
        <time>2016-09-05T14:26:11Z</time>
      </trkpt>
      <trkpt lat="45.05288" lon="2.79121">
        <ele>1391</ele>
        <time>2016-09-05T14:26:18Z</time>
      </trkpt>
      <trkpt lat="45.05288" lon="2.79122">
        <ele>1391</ele>
        <time>2016-09-05T14:26:19Z</time>
      </trkpt>
      <trkpt lat="45.0529" lon="2.79134">
        <ele>1391</ele>
        <time>2016-09-05T14:26:26Z</time>
      </trkpt>
      <trkpt lat="45.0529" lon="2.79136">
        <ele>1391</ele>
        <time>2016-09-05T14:26:27Z</time>
      </trkpt>
      <trkpt lat="45.0529" lon="2.79147">
        <ele>1391</ele>
        <time>2016-09-05T14:26:34Z</time>
      </trkpt>
      <trkpt lat="45.0529" lon="2.79148">
        <ele>1391</ele>
        <time>2016-09-05T14:26:35Z</time>
      </trkpt>
      <trkpt lat="45.05294" lon="2.79158">
        <ele>1391</ele>
        <time>2016-09-05T14:26:42Z</time>
      </trkpt>
      <trkpt lat="45.05294" lon="2.7916">
        <ele>1391</ele>
        <time>2016-09-05T14:26:43Z</time>
      </trkpt>
      <trkpt lat="45.05295" lon="2.79171">
        <ele>1390</ele>
        <time>2016-09-05T14:26:50Z</time>
      </trkpt>
      <trkpt lat="45.05295" lon="2.79173">
        <ele>1390</ele>
        <time>2016-09-05T14:26:51Z</time>
      </trkpt>
      <trkpt lat="45.05298" lon="2.79183">
        <ele>1390</ele>
        <time>2016-09-05T14:26:58Z</time>
      </trkpt>
      <trkpt lat="45.05298" lon="2.79185">
        <ele>1390</ele>
        <time>2016-09-05T14:26:59Z</time>
      </trkpt>
      <trkpt lat="45.05299" lon="2.79197">
        <ele>1390</ele>
        <time>2016-09-05T14:27:07Z</time>
      </trkpt>
      <trkpt lat="45.05299" lon="2.79198">
        <ele>1390</ele>
        <time>2016-09-05T14:27:08Z</time>
      </trkpt>
      <trkpt lat="45.053" lon="2.7921">
        <ele>1390</ele>
        <time>2016-09-05T14:27:15Z</time>
      </trkpt>
      <trkpt lat="45.053" lon="2.79211">
        <ele>1390</ele>
        <time>2016-09-05T14:27:16Z</time>
      </trkpt>
      <trkpt lat="45.05299" lon="2.79223">
        <ele>1390</ele>
        <time>2016-09-05T14:27:23Z</time>
      </trkpt>
      <trkpt lat="45.053" lon="2.79224">
        <ele>1390</ele>
        <time>2016-09-05T14:27:24Z</time>
      </trkpt>
      <trkpt lat="45.05301" lon="2.79235">
        <ele>1389</ele>
        <time>2016-09-05T14:27:31Z</time>
      </trkpt>
      <trkpt lat="45.05301" lon="2.79237">
        <ele>1389</ele>
        <time>2016-09-05T14:27:32Z</time>
      </trkpt>
      <trkpt lat="45.05302" lon="2.79249">
        <ele>1389</ele>
        <time>2016-09-05T14:27:40Z</time>
      </trkpt>
      <trkpt lat="45.05302" lon="2.79251">
        <ele>1388</ele>
        <time>2016-09-05T14:27:41Z</time>
      </trkpt>
      <trkpt lat="45.05305" lon="2.79262">
        <ele>1388</ele>
        <time>2016-09-05T14:27:50Z</time>
      </trkpt>
      <trkpt lat="45.05305" lon="2.79264">
        <ele>1388</ele>
        <time>2016-09-05T14:27:51Z</time>
      </trkpt>
      <trkpt lat="45.05308" lon="2.79275">
        <ele>1387</ele>
        <time>2016-09-05T14:27:59Z</time>
      </trkpt>
      <trkpt lat="45.05308" lon="2.79276">
        <ele>1387</ele>
        <time>2016-09-05T14:28:00Z</time>
      </trkpt>
      <trkpt lat="45.05312" lon="2.79285">
        <ele>1387</ele>
        <time>2016-09-05T14:28:07Z</time>
      </trkpt>
      <trkpt lat="45.05313" lon="2.79287">
        <ele>1387</ele>
        <time>2016-09-05T14:28:08Z</time>
      </trkpt>
      <trkpt lat="45.05315" lon="2.79298">
        <ele>1387</ele>
        <time>2016-09-05T14:28:20Z</time>
      </trkpt>
      <trkpt lat="45.05315" lon="2.79299">
        <ele>1387</ele>
        <time>2016-09-05T14:28:21Z</time>
      </trkpt>
      <trkpt lat="45.05314" lon="2.79312">
        <ele>1386</ele>
        <time>2016-09-05T14:28:30Z</time>
      </trkpt>
      <trkpt lat="45.05314" lon="2.79313">
        <ele>1386</ele>
        <time>2016-09-05T14:28:31Z</time>
      </trkpt>
      <trkpt lat="45.05316" lon="2.79325">
        <ele>1385</ele>
        <time>2016-09-05T14:28:46Z</time>
      </trkpt>
      <trkpt lat="45.05317" lon="2.79326">
        <ele>1385</ele>
        <time>2016-09-05T14:28:47Z</time>
      </trkpt>
      <trkpt lat="45.05319" lon="2.79338">
        <ele>1385</ele>
        <time>2016-09-05T14:29:56Z</time>
      </trkpt>
      <trkpt lat="45.05319" lon="2.79339">
        <ele>1385</ele>
        <time>2016-09-05T14:29:57Z</time>
      </trkpt>
      <trkpt lat="45.05325" lon="2.79348">
        <ele>1385</ele>
        <time>2016-09-05T14:31:10Z</time>
      </trkpt>
      <trkpt lat="45.05325" lon="2.79349">
        <ele>1385</ele>
        <time>2016-09-05T14:31:11Z</time>
      </trkpt>
      <trkpt lat="45.05318" lon="2.79352">
        <ele>1386</ele>
        <time>2016-09-05T14:31:23Z</time>
      </trkpt>
      <trkpt lat="45.05317" lon="2.79351">
        <ele>1386</ele>
        <time>2016-09-05T14:31:24Z</time>
      </trkpt>
      <trkpt lat="45.05308" lon="2.79349">
        <ele>1386</ele>
        <time>2016-09-05T14:31:31Z</time>
      </trkpt>
      <trkpt lat="45.05307" lon="2.79349">
        <ele>1386</ele>
        <time>2016-09-05T14:31:32Z</time>
      </trkpt>
      <trkpt lat="45.05299" lon="2.79346">
        <ele>1387</ele>
        <time>2016-09-05T14:31:39Z</time>
      </trkpt>
      <trkpt lat="45.05298" lon="2.79346">
        <ele>1387</ele>
        <time>2016-09-05T14:31:40Z</time>
      </trkpt>
      <trkpt lat="45.05289" lon="2.79348">
        <ele>1388</ele>
        <time>2016-09-05T14:31:48Z</time>
      </trkpt>
      <trkpt lat="45.05288" lon="2.79348">
        <ele>1388</ele>
        <time>2016-09-05T14:31:49Z</time>
      </trkpt>
      <trkpt lat="45.0528" lon="2.79348">
        <ele>1388</ele>
        <time>2016-09-05T14:31:56Z</time>
      </trkpt>
      <trkpt lat="45.05279" lon="2.79349">
        <ele>1388</ele>
        <time>2016-09-05T14:31:57Z</time>
      </trkpt>
      <trkpt lat="45.05271" lon="2.79353">
        <ele>1389</ele>
        <time>2016-09-05T14:32:04Z</time>
      </trkpt>
      <trkpt lat="45.0527" lon="2.79353">
        <ele>1389</ele>
        <time>2016-09-05T14:32:05Z</time>
      </trkpt>
      <trkpt lat="45.05261" lon="2.79351">
        <ele>1389</ele>
        <time>2016-09-05T14:32:13Z</time>
      </trkpt>
      <trkpt lat="45.0526" lon="2.79352">
        <ele>1389</ele>
        <time>2016-09-05T14:32:14Z</time>
      </trkpt>
      <trkpt lat="45.05252" lon="2.79351">
        <ele>1390</ele>
        <time>2016-09-05T14:32:23Z</time>
      </trkpt>
    </trkseg>
  </trk>
</gpx>